[[{"header":{"parameterUnit":"m.s-1","parameterCategory":1,"la1":30.6,"la2":28.766,"lo1":-90.7593,"lo2":-88.6598,"dy":0.0162,"dx":0.0183,"nx":116,"ny":114,"refTime":"2023-06-16T12:00:00:Z","depth":0,"parameterNumber":2,"parameterNumberName":"U-component_of_WINDS"},"data":[0.0,0.0,0.0,0.0,0.0,0.0,0.0,0.0,0.0,0.0,0.0,0.0,0.0,0.0,0.0,0.0,0.0,0.0,0.0,0.0,0.0,0.0,0.0,0.0,0.0,0.0,0.0,0.0,0.0,0.0,0.0,0.0,0.0,0.0,0.0,0.0,0.0,0.0,0.0,0.0,0.0,0.0,0.0,0.0,0.0,0.0,0.0,0.0,0.0,0.0,0.0,0.0,0.0,0.0,0.0,0.0,0.0,0.0,0.0,0.0,0.0,0.0,0.0,0.0,0.0,0.0,0.0,0.0,0.0,0.0,0.0,0.0,0.0,0.0,0.0,0.0,0.0,0.0,0.0,0.0,0.0,0.0,0.0,0.0,0.0,0.0,0.0,0.0,0.0,0.0,0.0,0.0,0.0,0.0,0.0,0.0,0.0,0.0,0.0,0.0,0.0,0.0,0.0,0.0,0.0,0.0,0.0,0.0,0.0,0.0,0.0,0.0,0.0,0.0,0.0,0.0,0.0,0.0,0.0,0.0,0.0,0.0,0.0,0.0,0.0,0.0,0.0,0.0,0.0,0.0,0.0,0.0,0.0,0.0,0.0,0.0,0.0,0.0,0.0,0.0,0.0,0.0,0.0,0.0,0.0,0.0,0.0,0.0,0.0,0.0,0.0,0.0,0.0,0.0,0.0,0.0,0.0,0.0,0.0,0.0,0.0,0.0,0.0,0.0,0.0,0.0,0.0,0.0,0.0,0.0,0.0,0.0,0.0,0.0,0.0,0.0,0.0,0.0,0.0,0.0,0.0,0.0,0.0,0.0,0.0,0.0,0.0,0.0,0.0,0.0,0.0,0.0,0.0,0.0,0.0,0.0,0.0,0.0,0.0,0.0,0.0,0.0,0.0,0.0,0.0,0.0,0.0,0.0,0.0,0.0,0.0,0.0,0.0,0.0,0.0,0.0,0.0,0.0,0.0,0.0,0.0,0.0,0.0,0.0,0.0,0.0,0.0,0.0,0.0,0.0,0.0,0.0,0.0,0.0,0.0,0.0,0.0,0.0,0.0,0.0,0.0,0.0,0.0,0.0,0.0,0.0,0.0,0.0,0.0,0.0,0.0,0.0,0.0,0.0,0.0,0.0,0.0,0.0,0.0,0.0,0.0,0.0,0.0,0.0,0.0,0.0,0.0,0.0,0.0,0.0,0.0,0.0,0.0,0.0,0.0,0.0,0.0,0.0,0.0,0.0,0.0,0.0,0.0,0.0,0.0,0.0,0.0,0.0,0.0,0.0,0.0,0.0,0.0,0.0,0.0,0.0,0.0,0.0,0.0,0.0,0.0,0.0,0.0,0.0,0.0,0.0,0.0,0.0,0.0,0.0,0.0,0.0,0.0,0.0,0.0,0.0,0.0,0.0,0.0,0.0,0.0,0.0,0.0,0.0,0.0,0.0,0.0,0.0,0.0,0.0,0.0,0.0,0.0,0.0,0.0,0.0,0.0,0.0,0.0,0.0,0.0,0.0,0.0,0.0,0.0,0.0,0.0,0.0,0.0,0.0,0.0,0.0,0.0,0.0,0.0,0.0,0.0,0.0,0.0,0.0,0.0,0.0,0.0,0.0,0.0,0.0,0.0,0.0,0.0,0.0,0.0,0.0,0.0,0.0,0.0,0.0,0.0,0.0,0.0,0.0,0.0,0.0,0.0,0.0,0.0,0.0,0.0,0.0,0.0,0.0,0.0,0.0,0.0,0.0,0.0,0.0,0.0,0.0,0.0,0.0,0.0,0.0,0.0,0.0,0.0,0.0,0.0,0.0,0.0,0.0,0.0,0.0,0.0,0.0,0.0,0.0,0.0,0.0,0.0,0.0,0.0,0.0,0.0,0.0,0.0,0.0,0.0,0.0,0.0,0.0,0.0,0.0,0.0,0.0,0.0,0.0,0.0,0.0,0.0,0.0,0.0,0.0,0.0,0.0,0.0,0.0,0.0,0.0,0.0,0.0,0.0,0.0,0.0,0.0,0.0,0.0,0.0,0.0,0.0,0.0,0.0,0.0,0.0,0.0,0.0,0.0,0.0,0.0,0.0,0.0,0.0,0.0,0.0,0.0,0.0,0.0,0.0,0.0,0.0,0.0,0.0,0.0,0.0,0.0,0.0,0.0,0.0,0.0,0.0,0.0,0.0,0.0,0.0,0.0,0.0,0.0,0.0,0.0,0.0,0.0,0.0,0.0,0.0,0.0,0.0,0.0,0.0,0.0,0.0,0.0,0.0,0.0,0.0,0.0,0.0,0.0,0.0,0.0,0.0,0.0,0.0,0.0,0.0,0.0,0.0,0.0,0.0,0.0,0.0,0.0,0.0,0.0,0.0,0.0,0.0,0.0,0.0,0.0,0.0,0.0,0.0,0.0,0.0,0.0,0.0,0.0,0.0,0.0,0.0,0.0,0.0,0.0,0.0,0.0,0.0,0.0,0.0,0.0,0.0,0.0,0.0,0.0,0.0,0.0,0.0,0.0,0.0,0.0,0.0,0.0,0.0,0.0,0.0,0.0,0.0,0.0,0.0,0.0,0.0,0.0,0.0,0.0,0.0,0.0,0.0,0.0,0.0,0.0,0.0,0.0,0.0,0.0,0.0,0.0,0.0,0.0,0.0,0.0,0.0,0.0,0.0,0.0,0.0,0.0,0.0,0.0,0.0,0.0,0.0,0.0,0.0,0.0,0.0,0.0,0.0,0.0,0.0,0.0,0.0,0.0,0.0,0.0,0.0,0.0,0.0,0.0,0.0,0.0,0.0,0.0,0.0,0.0,0.0,0.0,0.0,0.0,0.0,0.0,0.0,0.0,0.0,0.0,0.0,0.0,0.0,0.0,0.0,0.0,0.0,0.0,0.0,0.0,0.0,0.0,0.0,0.0,0.0,0.0,0.0,0.0,0.0,0.0,0.0,0.0,0.0,0.0,0.0,0.0,0.0,0.0,0.0,0.0,0.0,0.0,0.0,0.0,0.0,0.0,0.0,0.0,0.0,0.0,0.0,0.0,0.0,0.0,0.0,0.0,0.0,0.0,0.0,0.0,0.0,0.0,0.0,0.0,0.0,0.0,0.0,0.0,0.0,0.0,0.0,0.0,0.0,0.0,0.0,0.0,0.0,0.0,0.0,0.0,0.0,0.0,0.0,0.0,0.0,0.0,0.0,0.0,0.0,0.0,0.0,0.0,0.0,0.0,0.0,0.0,0.0,0.0,0.0,0.0,0.0,0.0,0.0,0.0,0.0,0.0,0.0,0.0,0.0,0.0,0.0,0.0,0.0,0.0,0.0,0.0,0.0,0.0,0.0,0.0,0.0,0.0,0.0,0.0,0.0,0.0,0.0,0.0,0.0,0.0,0.0,0.0,0.0,0.0,0.0,0.0,0.0,0.0,0.0,0.0,0.0,0.0,0.0,0.0,0.0,0.0,0.0,0.0,0.0,0.0,0.0,0.0,0.0,0.0,0.0,0.0,0.0,0.0,0.0,0.0,0.0,0.0,0.0,0.0,0.0,0.0,0.0,0.0,0.0,0.0,0.0,0.0,0.0,0.0,0.0,0.0,0.0,0.0,0.0,0.0,0.0,0.0,0.0,0.0,0.0,0.0,0.0,0.0,0.0,0.0,0.0,0.0,0.0,0.0,0.0,0.0,0.0,0.0,0.0,0.0,0.0,0.0,0.0,0.0,0.0,0.0,0.0,0.0,0.0,0.0,0.0,0.0,0.0,0.0,0.0,0.0,0.0,0.0,0.0,0.0,0.0,0.0,0.0,0.0,0.0,0.0,0.0,0.0,0.0,0.0,0.0,0.0,0.0,0.0,0.0,0.0,0.0,0.0,0.0,0.0,0.0,0.0,0.0,0.0,0.0,0.0,0.0,0.0,0.0,0.0,0.0,0.0,0.0,0.0,0.0,0.0,0.0,0.0,0.0,0.0,0.0,0.0,0.0,0.0,0.0,0.0,0.0,0.0,0.0,0.0,0.0,0.0,0.0,0.0,0.0,0.0,0.0,0.0,0.0,0.0,0.0,0.0,0.0,0.0,0.0,0.0,0.0,0.0,0.0,0.0,0.0,0.0,0.0,0.0,0.0,0.0,0.0,0.0,0.0,0.0,0.0,0.0,0.0,0.0,0.0,0.0,0.0,0.0,0.0,0.0,0.0,0.0,0.0,0.0,0.0,0.0,0.0,0.0,0.0,0.0,0.0,0.0,0.0,0.0,0.0,0.0,0.0,0.0,0.0,0.0,0.0,0.0,0.0,0.0,0.0,0.0,0.0,0.0,0.0,0.0,0.0,0.0,0.0,0.0,0.0,0.0,0.0,0.0,0.0,0.0,0.0,0.0,0.0,0.0,0.0,0.0,0.0,0.0,0.0,0.0,0.0,0.0,0.0,0.0,0.0,0.0,0.0,0.0,0.0,0.0,0.0,0.0,0.0,0.0,0.0,0.0,0.0,0.0,0.0,0.0,0.0,0.0,0.0,0.0,0.0,0.0,0.0,0.0,0.0,0.0,0.0,0.0,0.0,0.0,0.0,0.0,0.0,0.0,0.0,0.0,0.0,0.0,0.0,0.0,0.0,0.0,0.0,0.0,0.0,0.0,0.0,0.0,0.0,0.0,0.0,0.0,0.0,0.0,0.0,0.0,0.0,0.0,0.0,0.0,0.0,0.0,0.0,0.0,0.0,0.0,0.0,0.0,0.0,0.0,0.0,0.0,0.0,0.0,0.0,0.0,0.0,0.0,0.0,0.0,0.0,0.0,0.0,0.0,0.0,0.0,0.0,0.0,0.0,0.0,0.0,0.0,0.0,0.0,0.0,0.0,0.0,0.0,0.0,0.0,0.0,0.0,0.0,0.0,0.0,0.0,0.0,0.0,0.0,0.0,0.0,0.0,0.0,0.0,0.0,0.0,0.0,0.0,0.0,0.0,0.0,0.0,0.0,0.0,0.0,0.0,0.0,0.0,0.0,0.0,0.0,0.0,0.0,0.0,0.0,0.0,0.0,0.0,0.0,0.0,0.0,0.0,0.0,0.0,0.0,0.0,0.0,0.0,0.0,0.0,0.0,0.0,0.0,0.0,0.0,0.0,0.0,0.0,0.0,0.0,0.0,0.0,0.0,0.0,0.0,0.0,0.0,0.0,0.0,0.0,0.0,0.0,0.0,0.0,0.0,0.0,0.0,0.0,0.0,0.0,0.0,0.0,0.0,0.0,0.0,0.0,0.0,0.0,0.0,0.0,0.0,0.0,0.0,0.0,0.0,0.0,0.0,0.0,0.0,0.0,0.0,0.0,0.0,0.0,0.0,0.0,0.0,0.0,0.0,0.0,0.0,0.0,0.0,0.0,0.0,0.0,0.0,0.0,0.0,0.0,0.0,0.0,0.0,0.0,0.0,0.0,0.0,0.0,0.0,0.0,0.0,0.0,0.0,0.0,0.0,0.0,0.0,0.0,0.0,0.0,0.0,0.0,0.0,0.0,0.0,0.0,0.0,0.0,0.0,0.0,0.0,0.0,0.0,0.0,0.0,0.0,0.0,0.0,0.0,0.0,0.0,0.0,0.0,0.0,0.0,0.0,0.0,0.0,0.0,0.0,0.0,0.0,0.0,0.0,0.0,0.0,0.0,0.0,0.0,0.0,0.0,0.0,0.0,0.0,0.0,0.0,0.0,0.0,0.0,0.0,0.0,0.0,0.0,0.0,0.0,0.0,0.0,0.0,0.0,0.0,0.0,0.0,0.0,0.0,0.0,0.0,0.0,0.0,0.0,0.0,0.0,0.0,0.0,0.0,0.0,0.0,0.0,0.0,0.0,0.0,0.0,0.0,0.0,0.0,0.0,0.0,0.0,0.0,0.0,0.0,0.0,0.0,0.0,0.0,0.0,0.0,0.0,0.0,0.0,0.0,0.0,0.0,0.0,0.0,0.0,0.0,0.0,0.0,0.0,0.0,0.0,0.0,0.0,0.0,0.0,0.0,0.0,0.0,0.0,0.0,0.0,0.0,0.0,0.0,0.0,0.0,0.0,0.0,0.0,0.0,0.0,0.0,0.0,0.0,0.0,0.0,0.0,0.0,0.0,0.0,0.0,0.0,0.0,0.0,-0.7841,0.0,0.0,0.0,0.0,0.0,0.0,0.0,0.0,0.0,0.0,0.0,0.0,0.0,0.0,0.0,0.0,0.0,0.0,0.0,0.0,0.0,0.0,0.0,0.0,0.0,0.0,0.0,0.0,0.0,0.0,0.0,0.0,0.0,0.0,0.0,0.0,0.0,0.0,0.0,0.616,0.6679,0.755,0.7122,0.6701,0.6283,0.0,0.0,0.0,0.0,0.0,0.0,0.0,0.0,0.0,0.0,0.0,0.0,0.0,0.0,0.0,0.0,0.0,0.0,0.0,0.0,0.0,0.0,0.0,0.0,0.0,0.0,0.0,0.0,0.0,0.0,0.0,0.0,0.0,0.0,0.0,0.0,0.0,0.0,0.0,0.0,0.0,0.0,0.0,0.0,0.0,0.0,0.0,0.0,0.0,0.0,0.0,0.0,0.0,0.0,0.0,0.0,0.0,0.0,0.0,0.0,0.0,0.0,0.0,0.0,0.0,0.0,0.0,0.0,0.0,0.0,0.0,-0.8804,0.0,0.0,0.0,0.0,0.0,0.0,0.0,0.0,0.0,0.0,0.0,0.0,0.0,0.0,0.0,0.0,0.0,0.0,0.0,0.0,0.0,0.0,0.0,0.0,0.0,0.0,0.0,0.0,0.0,0.0,0.0,0.0,0.0,0.0,0.0,0.0,0.0,0.0,0.7345,0.7862,0.861,0.9159,0.8635,0.7332,0.7032,0.0,0.0,0.0,0.0,0.0,0.0,0.0,0.0,0.0,0.0,0.0,0.0,0.0,0.0,0.0,0.0,0.0,0.0,0.0,0.0,0.0,0.0,0.0,0.0,0.0,0.0,0.0,0.0,0.0,0.0,0.0,0.0,0.0,0.0,0.0,0.0,0.0,0.0,0.0,0.0,0.0,0.0,0.0,0.0,0.0,0.0,0.0,0.0,0.0,0.0,0.0,0.0,0.0,0.0,0.0,0.0,0.0,0.0,0.0,0.0,0.0,0.0,0.0,-1.028,-1.083,-1.1473,-1.1904,-1.227,-1.2437,-1.1316,-1.0685,-1.0246,-1.0174,0.0,0.0,0.0,0.0,0.0,0.0,0.0,0.0,0.0,0.0,0.0,0.0,0.0,0.0,0.0,0.0,0.0,0.0,0.0,0.0,0.0,0.0,0.0,0.0,0.0,0.0,0.0,0.0,0.0,0.0,0.0,0.0,0.0,0.6455,0.7158,0.7769,0.9337,0.9969,0.9792,1.0853,1.0822,0.9851,0.8627,0.7888,0.7494,0.0,0.0,0.0,0.0,0.0,0.0,0.0,0.0,0.0,0.0,0.0,0.0,0.0,0.0,0.0,0.0,0.0,0.0,0.0,0.0,0.0,0.0,0.0,0.0,0.0,0.0,0.0,0.0,0.0,0.0,0.0,0.0,0.0,0.0,0.0,0.0,0.0,0.0,0.0,0.0,0.0,-0.0531,-0.0971,0.0,0.0,0.0,0.0,0.0,0.0,0.0,0.0,0.0,0.0,0.0,0.0,0.0,-0.8611,-0.8916,-1.0037,-1.081,-1.1275,-1.1854,-1.254,-1.3242,-1.3525,-1.4012,-1.4455,-1.4449,0.0,-1.2133,-1.2104,0.0,0.0,0.0,0.0,0.0,0.0,0.0,0.0,0.0,0.0,0.0,0.0,0.0,0.0,0.0,0.0,0.0,0.0,0.0,0.0,0.0,0.0,0.0,0.0,0.0,0.0,0.0,0.0,0.0,0.0,0.0,0.0,0.6768,0.7301,0.8183,0.9428,1.0836,1.1473,1.1293,1.1855,1.1946,1.1549,1.0663,0.9684,0.8594,0.8089,0.0,0.0,0.0,0.0,0.0,0.0,0.0,0.0,0.0,0.0,0.0,0.0,0.0,0.0,0.0,0.0,0.0,0.0,0.0,0.0,0.0,0.0,0.0,0.0,0.0,0.0,0.0,0.0,0.0,0.0,0.0,0.0,0.0,0.0,0.0,0.0,0.0,0.0,0.0,-0.056,-0.1064,-0.1552,-0.2046,-0.2511,0.0,0.0,0.0,0.0,0.0,0.0,0.0,0.0,0.0,-0.867,-0.9547,-1.0264,-1.0863,-1.174,-1.2445,-1.3152,-1.3738,-1.4376,-1.4992,-1.563,-1.6027,-1.6421,-1.6552,-1.613,-1.5246,-1.4173,-1.3663,-1.3672,0.0,0.0,0.0,0.0,-1.3727,-1.3802,0.0,0.0,0.0,0.0,0.0,0.0,0.0,0.0,0.0,0.0,0.0,0.0,0.0,0.0,0.0,1.0398,0.0,0.0,0.0,0.0,0.0,0.0,0.0,0.7429,0.7875,0.849,0.9554,1.1015,1.2204,1.2712,1.2597,1.2979,1.3042,1.2763,1.2458,1.1352,0.9681,0.9249,0.85,0.7593,0.0,0.0,0.0,0.0,0.0,0.0,0.0,0.0,0.0,0.0,0.0,0.0,0.0,0.0,0.0,0.0,0.0,0.0,0.0,0.0,0.0,0.0,0.0,0.0,0.0,0.0,0.0,0.0,0.0,0.0,0.0,0.0,0.0,0.0,0.0,0.0,0.0,-0.112,-0.1595,-0.2263,-0.2833,-0.3315,0.0,0.0,0.0,0.0,0.0,0.0,-0.8286,-0.8729,-0.9422,-1.0458,-1.1237,-1.2043,-1.288,-1.3482,-1.416,-1.501,-1.5617,-1.6163,-1.6665,-1.7404,-1.7922,-1.8129,-1.8213,-1.8252,-1.8038,-1.6211,-1.5526,-1.5477,-1.5731,-1.5754,-1.5685,-1.6073,-1.6068,-1.5906,0.0,0.0,0.0,0.0,0.0,0.0,0.0,0.0,0.0,0.0,0.0,0.9206,0.0,0.0,1.1537,1.1856,1.156,1.1144,0.0,0.0,0.9685,0.8674,0.8783,0.8795,0.8639,1.0213,1.1411,1.2185,1.3382,1.3733,1.3454,1.4482,1.4491,1.3621,1.3785,1.2713,1.0856,1.0401,0.9458,0.8194,0.7629,0.0,0.0,0.0,0.0,0.0,0.0,0.0,0.0,0.0,0.0,0.0,0.0,0.0,0.0,0.0,0.0,0.0,0.0,0.0,0.0,0.0,0.0,0.0,0.0,0.0,0.0,0.0,0.0,0.0,0.0,0.0,0.0,0.0,0.0,0.0,0.0,0.0,0.0,-0.3097,-0.368,0.0,0.0,0.0,0.0,-0.7123,-0.7843,-0.8798,-0.988,-1.0362,-1.1139,-1.2318,-1.3095,-1.3869,-1.4702,-1.5425,-1.6135,-1.6711,-1.7302,-1.7899,-1.837,-1.8748,-1.9098,-1.9304,-1.9619,-1.9765,-1.9586,-1.8255,-1.7333,-1.6845,-1.7566,-1.7793,-1.7738,-1.8013,-1.8118,-1.8137,0.0,0.0,0.0,0.0,0.0,0.0,0.0,0.0,0.0,0.8056,0.9145,1.0298,0.0,1.2301,1.2878,1.3092,1.2929,1.2603,1.2131,0.0,1.0769,1.0143,0.9902,0.9953,1.0371,1.1604,1.2634,1.3364,1.409,1.4469,1.4553,1.4705,1.4606,1.4114,1.4077,1.345,1.2346,1.1436,1.0417,0.9369,0.8378,0.7433,0.0,0.0,0.0,0.0,0.0,0.0,0.0,0.0,0.0,0.0,0.0,0.0,0.0,0.0,0.0,0.0,0.0,0.0,0.0,0.0,0.0,0.0,0.0,0.0,0.0,0.0,0.0,0.0,0.0,0.0,0.0,0.0,0.0,0.0,0.0,0.0,0.0,-0.3995,-0.4723,0.0,-0.6351,-0.7107,-0.7854,-0.8677,-0.954,-1.0464,-1.1234,-1.2082,-1.2936,-1.3632,-1.4778,-1.5541,-1.5861,-1.6876,-1.7547,-1.7857,-1.851,-1.8986,-1.9312,-2.009,-2.0528,-2.0619,-2.0855,-2.1023,-2.0974,-2.0701,-2.0015,-1.9315,-1.9791,-1.9734,-1.952,-1.9884,-1.9877,-1.9701,0.0,0.0,0.0,0.0,0.0,0.0,0.0,0.0,0.0,0.8819,0.9843,1.1054,1.2596,1.3379,1.3993,1.4376,1.4208,1.3825,1.3176,0.0,1.1724,1.1139,1.0908,1.1121,1.1778,1.2737,1.3574,1.4329,1.4872,1.5205,1.5397,1.5298,1.5101,1.4938,1.4529,1.409,1.3454,1.2431,1.1339,1.0315,0.9207,0.8306,0.7497,0.0,0.0,0.0,0.0,0.0,0.0,0.0,0.0,0.0,0.0,0.0,0.0,0.0,0.0,0.0,0.0,0.0,0.0,0.0,0.0,0.0,0.0,0.0,0.0,0.0,0.0,0.0,0.0,0.0,0.0,0.0,0.0,0.0,0.0,0.0,-0.3989,-0.5048,-0.5808,-0.6506,-0.7383,-0.8346,-0.9272,-1.0002,-1.0929,-1.1924,-1.2851,-1.3504,-1.4316,-1.5051,-1.6085,-1.6895,-1.7221,-1.8058,-1.8658,-1.9101,-1.9863,-2.0237,-2.0466,-2.1494,-2.1873,-2.1866,-2.2322,-2.2449,-2.2425,-2.2743,-2.2445,-2.1881,-2.1715,-2.1501,-2.1395,-2.1786,-2.1799,-2.1509,0.0,0.0,0.0,0.0,0.0,0.0,0.0,0.0,0.0,0.8705,0.9995,1.1525,1.3328,1.4061,1.481,1.572,1.5331,1.4635,1.3686,1.3202,1.2549,1.163,1.1853,1.2324,1.2855,1.3619,1.4297,1.492,1.5737,1.6098,1.6035,1.624,1.619,1.5938,1.5218,1.4643,1.4024,1.3423,1.2302,1.0953,1.025,0.9366,0.8416,0.0,0.0,0.0,0.0,0.0,0.0,0.0,0.0,0.0,0.0,0.0,0.0,0.0,0.0,0.0,0.0,0.0,0.0,0.0,0.0,0.0,0.0,0.0,0.0,0.0,0.0,0.0,0.0,0.0,0.0,0.0,0.0,0.0,-0.3385,-0.3926,-0.4814,-0.6067,-0.6789,-0.7511,-0.8161,-0.9472,-1.0606,-1.1223,-1.2014,-1.3098,-1.4525,-1.4657,-1.5322,-1.67,-1.6984,-1.7811,-1.9058,-1.9239,-1.9727,-2.042,-2.13,-2.1796,-2.1803,-2.2837,-2.3227,-2.3227,-2.3819,-2.4172,-2.414,-2.4375,-2.458,-2.4472,-2.3386,-2.3061,-2.3364,-2.3682,-2.3669,-2.3656,0.0,0.0,0.0,0.0,0.0,0.0,0.0,0.0,0.8449,0.9278,1.0805,1.2332,1.3634,1.4624,1.5346,1.5647,1.5419,1.5046,1.4536,1.4018,1.3619,1.3173,1.3049,1.3305,1.4035,1.4463,1.5024,1.5793,1.5932,1.6065,1.6183,1.6111,1.585,1.55,1.5046,1.4596,1.4173,1.3647,1.2856,1.1897,1.0733,0.9852,0.9069,0.0,0.0,0.0,0.0,0.0,0.0,0.0,0.0,0.0,0.0,0.0,0.0,0.0,0.0,0.0,0.0,0.0,0.0,0.0,0.0,0.0,0.0,0.0,0.0,0.0,0.0,0.0,0.0,0.0,0.0,0.0,0.0,-0.4153,-0.4153,-0.5022,-0.5911,-0.6864,-0.7855,-0.8776,-0.9798,-1.0676,-1.1563,-1.2488,-1.317,-1.4004,-1.502,-1.589,-1.6803,-1.7533,-1.8765,-1.9635,-1.9992,-2.0893,-2.1529,-2.1647,-2.2445,-2.2845,-2.2853,-2.3535,-2.3819,-2.3937,-2.4525,-2.476,-2.4752,-2.5128,-2.5425,-2.5447,-2.459,-2.4098,-2.3968,-2.4515,-2.4809,-2.4918,0.0,0.0,0.0,0.0,0.0,0.0,0.0,0.6926,0.8539,0.9341,1.0911,1.2411,1.3641,1.4698,1.5374,1.5628,1.5502,1.5243,1.4851,1.4275,1.3886,1.3664,1.3778,1.4092,1.4637,1.5162,1.569,1.621,1.6323,1.6374,1.6468,1.6266,1.5881,1.5508,1.5147,1.4701,1.422,1.367,1.3158,1.2435,1.1399,1.0515,0.9661,0.8767,0.8161,0.7761,0.7075,0.6554,0.6115,0.5779,0.0,0.0,0.0,0.0,0.0,0.0,0.0,0.0,0.0,0.0,0.0,0.0,0.0,0.0,0.0,0.0,0.0,0.0,0.0,0.0,0.0,0.0,0.0,0.0,-0.4346,-0.5084,-0.5555,-0.6129,-0.6883,-0.796,-0.8786,-0.9731,-1.0822,-1.1477,-1.2409,-1.3538,-1.4224,-1.5082,-1.6029,-1.713,-1.7997,-1.8632,-1.9784,-2.0604,-2.1081,-2.1795,-2.2386,-2.2632,-2.3365,-2.38,-2.38,-2.454,-2.4971,-2.4963,-2.5448,-2.5694,-2.5677,-2.5999,-2.6282,0.0,0.0,0.0,0.0,0.0,-2.5745,-2.5878,0.0,0.0,0.0,0.0,0.0,0.0,0.0,0.6807,0.8354,0.9022,1.0528,1.2026,1.3336,1.43,1.4996,1.5512,1.5392,1.5167,1.4838,1.4201,1.3779,1.3644,1.4224,1.4678,1.5025,1.5785,1.6233,1.6459,1.6684,1.6766,1.681,1.6369,1.6028,1.5737,1.5267,1.4848,1.4334,1.3761,1.3234,1.278,1.2048,1.1104,1.0195,0.9552,0.8927,0.8321,0.7721,0.7113,0.6641,0.6275,0.0,0.0,0.0,0.0,0.0,0.0,0.0,0.0,0.0,0.0,0.0,0.0,0.0,0.0,0.0,0.0,0.0,0.0,0.0,0.0,0.0,0.0,0.0,0.0,-0.5284,-0.6135,-0.7127,-0.7287,-0.7925,-0.9057,-0.9669,-1.0465,-1.1313,-1.2169,-1.3182,-1.4331,-1.5129,-1.607,-1.7291,0.0,0.0,0.0,0.0,-2.1057,-2.2257,-2.2377,-2.2737,-2.3461,-2.4251,-2.4763,-2.4771,-2.5684,-2.6197,-2.6197,-2.6449,-2.6692,-2.6667,-2.6943,-2.7108,-2.695,-2.6224,-2.6125,-2.6363,-2.6564,-2.6649,-2.6614,0.0,0.0,0.0,0.0,0.0,0.0,0.0,0.6776,0.8221,0.8517,1.0055,1.1516,1.2595,1.3325,1.3912,1.4423,1.4658,1.4821,1.5009,1.4435,1.438,1.524,1.5002,1.5195,1.5958,1.6236,1.646,1.6628,1.672,1.6706,1.6591,1.6379,1.5933,1.554,1.5267,1.4956,1.4613,1.3849,1.3317,1.3054,1.2113,1.1342,1.0736,0.9925,0.9311,0.8791,0.817,0.7608,0.7127,0.6651,0.6088,0.5532,0.5012,0.0,0.0,0.0,0.0,0.0,0.0,0.0,0.0,0.0,0.0,0.0,0.0,0.0,0.0,0.0,0.0,0.0,0.0,0.0,0.0,-0.5027,-0.6169,-0.7282,-0.7976,-0.8822,-0.9344,-0.9513,-1.0366,-1.1205,-1.2214,-1.3121,-1.408,-1.5032,-1.5705,-1.6612,-1.7661,-1.8481,-1.9467,-2.0465,-2.1307,-2.2178,-2.2923,-2.3417,-2.404,-2.4783,0.0,0.0,-2.5846,-2.6294,-2.6449,-2.6571,-2.6822,-2.7185,-2.7272,-2.7323,-2.7514,-2.7477,-2.7127,-2.6856,-2.6874,-2.7126,-2.759,-2.7893,0.0,0.0,0.0,0.0,0.0,0.0,0.0,0.651,0.7826,0.8281,0.9381,1.0513,1.1636,1.2269,1.2899,1.3498,1.3962,1.4313,1.4511,1.4423,1.4671,1.5401,1.5357,1.5586,1.6299,1.6499,1.6654,1.6788,1.6747,1.6621,1.64,1.6028,1.5642,1.5261,1.4981,1.4694,1.4214,1.3732,1.3369,1.3026,1.2096,1.1546,1.1091,1.0158,0.9526,0.8918,0.8404,0.7851,0.7304,0.6873,0.6418,0.5981,0.5363,0.4893,0.4414,0.0,0.0,0.0,0.0,0.0,0.0,0.0,0.0,0.0,0.0,0.0,0.0,0.0,0.0,-0.2442,0.0,0.0,-0.5101,-0.5811,-0.6865,-0.7954,-0.8578,-0.9461,-1.0143,-1.0436,-1.1161,-1.209,-1.2893,-1.3656,-1.4615,-1.5458,-1.6223,-1.7155,-1.8172,-1.9059,-2.0142,-2.1139,-2.1909,-2.2731,-2.3604,-2.4232,-2.4857,-2.5357,-2.5847,-2.6214,-2.6327,-2.67,-2.6822,-2.6822,-2.7177,-2.7409,-2.7521,-2.8011,-2.8138,-2.7965,-2.8108,-2.776,-2.7206,-2.7647,-2.8077,-2.8339,0.0,0.0,0.0,0.0,0.0,0.0,0.0,0.0,0.0,0.7933,0.8634,0.9456,1.0443,1.1125,1.185,1.2618,1.3215,1.369,1.402,1.4345,1.4731,1.5266,1.5471,1.5795,1.6245,1.6477,1.6588,1.6664,1.6586,1.64,1.6224,1.5737,1.5356,1.5083,1.479,1.4406,1.3835,1.3636,1.3318,1.2945,1.2035,1.1472,1.1182,1.0216,0.9511,0.8982,0.8577,0.8039,0.7497,0.7041,0.6706,0.6331,0.5708,0.5224,0.4788,0.4138,0.3645,0.0,0.0,0.0,0.0,0.0,0.0,0.0,0.0,0.0,-0.0749,-0.1585,-0.2307,-0.3106,-0.3935,-0.4864,-0.5855,-0.671,-0.7648,-0.8453,-0.9237,-1.0109,-1.0831,-1.1513,-1.2083,-1.2679,-1.3478,-1.4243,-1.4969,-1.5951,-1.6848,-1.7828,-1.8688,-1.9724,-2.0609,-2.1607,-2.2362,-2.3106,-2.4108,-2.4734,-2.5357,-2.5725,-2.6327,-2.6692,-2.6813,-2.7064,-2.7194,-2.7306,-2.753,-2.7762,-2.7873,-2.8646,-2.8784,-2.8446,-2.8924,-2.8535,-2.7745,-2.8184,-2.8504,-2.8668,0.0,0.0,0.0,0.0,0.0,0.0,0.0,0.0,0.0,0.6989,0.7968,0.8749,0.8931,0.9676,1.0627,1.1826,1.2222,1.2888,1.4108,1.4151,1.4604,1.5523,1.5504,1.5551,1.5809,1.6117,1.6293,1.6077,1.6216,1.6224,1.6224,1.5737,1.5356,1.5083,1.479,1.4406,1.3835,1.3636,1.3222,1.272,1.1786,1.1288,1.088,0.9819,0.9187,0.9,0.8737,0.8242,0.7693,0.7069,0.673,0.6448,0.5764,0.5368,0.4989,0.419,0.0,0.3461,0.3089,0.2484,0.1789,0.1179,0.0861,0.05,0.0,0.0,-0.1318,-0.193,-0.2732,-0.3696,-0.4649,-0.5533,-0.6478,-0.7669,-0.8441,-0.9249,-1.0148,-1.0973,-1.1686,-1.2497,-1.2743,-1.3239,-1.4435,-1.5101,-1.5957,-1.6818,-1.7479,-1.839,-1.945,-2.0221,-2.0982,-2.1985,-2.2731,-2.3362,-2.4108,-2.4734,-2.5472,-2.6075,-2.6449,-2.6926,-2.7401,-2.7401,-2.765,-2.79,-2.8277,-2.8507,-2.8829,-2.8815,-2.8859,-2.8981,-2.893,-2.8918,-2.892,-2.8727,-2.9152,-2.9879,0.0,0.0,0.0,0.0,0.0,0.0,0.0,0.0,0.0,0.0,0.7091,0.7496,0.7942,0.8723,0.9608,1.0601,1.1183,1.1991,1.3139,1.3559,1.4101,1.4956,1.5087,1.5306,1.5718,1.5855,1.5834,1.585,1.5936,1.5871,1.5771,1.538,1.5178,1.5083,1.4688,1.4118,1.3507,1.3406,1.298,1.2368,1.1486,1.099,1.0752,0.9676,0.8959,0.8422,0.826,0.7777,0.0,0.0,0.639,0.6044,0.5533,0.5128,0.4776,0.4252,0.3763,0.0,0.277,0.2027,0.1439,0.0,0.0692,0.0091,-0.0282,-0.0984,-0.1843,-0.2606,-0.3354,-0.4263,-0.5184,-0.5998,-0.6882,0.0,-0.8881,-0.9774,-1.0451,-1.1541,-1.2449,-1.2808,-1.3439,-1.4007,-1.4605,-1.5263,-1.6069,-1.6797,-1.7837,-1.8688,-1.9577,-2.0475,-2.1235,-2.2111,-2.2981,-2.3611,-2.4108,-2.5095,-2.5831,-2.6075,-2.6805,-2.7289,-2.7521,-2.7642,-2.802,-2.8268,-2.8636,-2.8984,-2.9303,-2.9477,-2.9507,-2.94,-2.952,-2.9621,-2.9564,-2.9469,-2.9879,-3.0495,0.0,0.0,0.0,0.0,0.0,0.0,0.0,0.0,0.0,0.0,0.0,0.0,0.0,0.7909,0.8652,0.9469,1.031,1.1233,1.2229,1.2955,1.3664,1.4238,1.4551,1.4947,1.5375,1.5387,1.5368,1.5413,1.5549,1.5467,1.5284,1.5026,1.4848,1.4848,1.427,1.369,1.3048,1.3048,1.259,1.1838,1.1222,1.0722,1.0349,0.9326,0.8631,0.8102,0.7863,0.7409,0.6834,0.6417,0.6018,0.5728,0.5228,0.4893,0.4621,0.4082,0.353,0.2926,0.226,0.0,0.0,0.0894,0.0377,-0.0198,-0.0812,-0.1478,-0.2188,-0.3226,-0.398,-0.4777,-0.5751,-0.6499,-0.7319,-0.8388,-0.9323,-1.0042,-1.0823,-1.1907,-1.2771,-1.3144,-1.397,-1.4561,-1.494,-1.5514,-1.6213,-1.691,-1.7972,-1.9,-1.9705,-2.0729,-2.1481,-2.2111,-2.3106,-2.386,-2.4108,-2.5456,-2.6075,-2.6067,-2.703,-2.7521,-2.7642,-2.8131,-2.8507,-2.8746,-2.9103,-2.9384,-2.9723,-2.9881,-2.9888,-2.9768,-3.0089,-3.0263,-3.0412,-3.0599,-3.0899,-3.1197,0.0,0.0,0.0,0.0,0.0,0.0,0.0,0.0,0.0,0.0,0.0,0.0,0.0,0.7107,0.7748,0.858,0.9712,1.0794,1.1667,1.2506,1.3164,1.3538,1.3848,1.4201,1.4565,1.4693,1.4755,1.4762,1.4946,1.4977,1.4977,1.443,1.4244,1.4244,1.3713,1.3259,1.2791,1.2791,1.2243,1.1283,1.0921,1.0398,0.9882,0.8585,0.8119,0.8025,0.7718,0.719,0.6606,0.6018,0.5803,0.5656,0.4942,0.4735,0.0,0.3734,0.3013,0.2304,0.1531,0.0,0.1118,0.0194,-0.0102,-0.0429,-0.1553,-0.2154,-0.2652,-0.3631,-0.4464,-0.543,-0.6118,-0.7093,-0.8013,-0.8895,-0.9561,-1.036,-1.1158,-1.1941,-1.2695,-1.369,-1.3885,-1.4495,0.0,-1.606,-1.6669,-1.7656,-1.8309,-1.9059,-2.0094,-2.0982,-2.1734,-2.2111,-2.3355,-2.4108,-2.4108,-2.5456,-2.6075,-2.6067,-2.703,-2.7642,-2.802,-2.8966,-2.944,-2.944,-2.9804,-2.9938,-3.011,-2.9756,-2.9748,-3.0186,-3.0381,-3.0713,-3.1219,-3.2015,-3.2218,-3.2117,0.0,0.0,0.0,0.0,0.0,0.0,0.0,0.0,0.0,0.0,0.0,0.0,0.0,0.0,0.0,0.0,0.8693,0.9673,1.0642,1.1464,1.2155,1.2644,1.3103,1.3404,1.3492,1.3815,1.3895,1.3738,1.4125,1.4173,1.4095,1.3932,1.3758,1.3671,1.3324,1.2793,1.2289,1.2118,1.1669,1.0941,1.029,0.9892,0.9441,0.8307,0.7594,0.7194,0.0,0.6287,0.5951,0.547,0.5013,0.4628,0.4364,0.4137,0.3713,0.3098,0.2432,0.1785,0.1431,0.0,0.0298,0.0,-0.0756,-0.1447,-0.1841,-0.2677,-0.351,-0.3998,-0.4822,-0.5651,-0.6391,-0.7102,-0.7892,-0.8757,-0.9655,-1.0605,-1.1507,-1.2426,-1.3255,-1.3867,-1.4406,0.0,0.0,0.0,0.0,-1.7648,-1.8577,-1.9299,-2.0094,-2.1229,-2.1985,-2.2111,-2.3362,-2.4108,-2.4108,-2.5456,-2.6197,-2.6449,-2.7659,-2.8498,-2.8966,-2.9322,-2.9677,-3.0138,-3.0103,-3.0361,-3.0734,-3.0429,-3.0555,-3.1,-3.1381,-3.1812,-3.2409,-3.34,-3.3981,-3.4264,0.0,0.0,0.0,0.0,0.0,0.0,0.0,0.0,0.0,0.0,0.0,0.0,0.0,0.0,0.0,0.0,0.0,0.8756,0.9753,1.0494,1.1157,1.1698,1.2166,1.2489,1.2549,1.2868,1.297,1.2931,1.3154,1.3223,1.3252,1.312,1.305,1.2881,1.255,1.2134,1.165,1.141,1.0942,1.0462,0.9687,0.9234,0.886,0.7845,0.7094,0.0,0.5859,0.5434,0.522,0.4832,0.4451,0.4062,0.3843,0.3413,0.2958,0.2366,0.188,0.1424,0.0942,0.0397,-0.0208,-0.0655,-0.1347,-0.2067,-0.2463,-0.3167,-0.3969,-0.4548,-0.5198,-0.5851,-0.669,-0.7239,-0.7979,-0.8828,-0.9748,-1.0714,-1.1606,-1.2559,-1.3414,-1.4023,-1.4736,-1.5403,0.0,0.0,0.0,-1.7747,-1.8748,-1.9524,-2.032,-2.1427,-2.2111,-2.2237,-2.3479,-2.4108,-2.4232,-2.5464,-2.6441,-2.7056,-2.8148,-2.8984,-2.9558,-2.9644,-2.9938,-3.0383,-3.0413,-3.069,-3.1033,-3.0992,-3.138,-3.1908,-3.2521,-3.3001,-3.3598,-3.4666,-3.5534,-3.6011,0.0,0.0,0.0,0.0,0.0,0.0,0.0,0.0,0.0,0.0,0.0,0.0,0.0,0.0,0.0,0.0,0.0,0.0,0.8989,0.9606,1.0194,1.0806,1.1115,1.1437,1.169,1.178,1.1912,1.208,1.2068,1.223,1.251,1.2084,1.1944,1.187,1.1501,1.1205,1.0902,1.0593,1.0154,0.9708,0.8978,0.8467,0.8143,0.7081,0.655,0.6307,0.5306,0.4782,0.4397,0.4249,0.4142,0.3955,0.3349,0.2761,0.2231,0.1707,0.1416,0.1009,0.0099,-0.0104,-0.0431,-0.156,-0.1957,-0.2356,-0.3531,-0.3718,-0.4014,-0.5146,-0.5569,-0.5902,0.0,0.0,-0.8125,-0.8967,-0.9828,-1.0574,-1.1354,-1.2477,-1.3435,0.0,0.0,0.0,0.0,0.0,0.0,-1.7835,0.0,-1.9743,-2.0661,-2.1575,-2.2237,-2.2606,-2.3611,-2.4232,-2.461,-2.5709,-2.6796,-2.802,-2.8719,-2.9185,-2.9521,-3.0045,-3.0205,-3.029,-3.0621,-3.0941,-3.1169,-3.1645,-3.2299,-3.3001,-3.3784,-3.4385,-3.5066,-3.6023,-3.6777,-3.7243,0.0,0.0,0.0,0.0,0.0,0.0,0.0,0.0,0.0,0.0,0.0,0.0,0.0,0.0,0.0,0.0,0.0,0.0,0.8541,0.8767,0.9224,1.0058,1.0003,1.0171,1.0531,1.077,1.0937,1.0912,1.1181,1.1298,1.1259,1.1134,1.0936,1.0744,1.0612,1.0413,1.0086,0.9813,0.9499,0.9152,0.8387,0.7901,0.7542,0.6611,0.5927,0.5415,0.4957,0.4343,0.3854,0.0,0.0,0.0,0.0,0.2147,0.1632,0.1397,0.0831,0.0194,0.0,-0.0748,-0.1447,-0.1706,-0.2553,-0.3405,-0.3595,-0.4225,-0.4927,-0.5019,-0.5755,-0.6378,0.0,0.0,0.0,-0.8774,-0.9827,0.0,-1.1787,-1.2713,0.0,-1.4391,0.0,-1.5833,-1.6419,-1.7015,0.0,0.0,-1.8861,-1.9743,-2.0661,-2.1575,-2.2355,-2.2981,-2.3736,-2.4363,-2.498,-2.6432,-2.7642,-2.8737,-2.9025,-2.9458,-3.0036,-3.027,-3.0732,-3.1254,-3.1225,-3.1795,-3.2608,-3.2541,-3.3115,-3.4091,-3.486,-3.5726,-3.6671,-3.7599,-3.8482,-3.9285,0.0,0.0,0.0,0.0,0.0,0.0,0.0,0.0,0.0,0.0,0.0,0.0,0.0,0.0,0.0,0.0,0.0,0.0,0.0,0.8128,0.8532,0.9232,0.9106,0.9152,0.9369,0.9681,0.9829,0.9866,1.0089,1.0179,1.0247,1.013,0.9955,0.9728,0.961,0.9434,0.9138,0.8842,0.8604,0.0,0.0,0.7105,0.6799,0.5987,0.5352,0.4837,0.4584,0.3999,0.0,0.0,0.0,0.2469,0.2109,0.1692,0.1288,0.0817,0.0,-0.0201,-0.0735,-0.131,-0.2027,-0.2519,-0.3109,-0.3788,-0.4177,-0.4715,-0.5088,-0.5417,-0.5792,0.0,-0.6527,0.0,0.0,0.0,0.0,0.0,-1.1877,-1.2966,-1.3883,0.0,-1.5531,0.0,-1.6891,-1.7367,-1.8077,0.0,-1.9186,-1.9872,-2.0645,-2.1673,-2.2328,-2.2818,-2.3665,-2.4514,-2.5493,-2.6898,-2.7957,-2.8551,-2.9241,-2.9809,-3.0475,-3.0679,-3.1225,-3.1955,0.0,-3.2608,-3.3501,-3.3802,-3.4654,-3.563,-3.6458,-3.7389,-3.8328,-3.9224,-4.0073,-4.0901,0.0,0.0,0.0,0.0,0.0,0.0,0.0,0.0,0.0,0.0,0.0,0.0,0.0,0.0,0.0,0.0,0.0,0.0,0.0,0.0,0.7972,0.8432,0.8353,0.8333,0.8455,0.8599,0.8771,0.8943,0.8954,0.9023,0.922,0.901,0.8857,0.8776,0.8564,0.8358,0.8152,0.7884,0.7635,0.7297,0.6694,0.635,0.6056,0.0,0.0,0.4477,0.4103,0.0,0.0,0.0,0.2265,0.2147,0.1715,0.1431,0.1,0.019,-0.0198,-0.0514,-0.1511,-0.1885,-0.237,-0.3426,-0.374,-0.4012,-0.4907,-0.5004,-0.5055,-0.5784,0.0,-0.6059,-0.6533,-0.6989,-0.7654,-0.8536,0.0,-1.0615,-1.1792,-1.3139,-1.4235,-1.5098,-1.6026,-1.6773,-1.7485,-1.796,-1.8434,-1.9236,-1.971,-2.0226,-2.085,-2.163,-2.2289,-2.2885,-2.3811,-2.486,-2.6166,-2.729,-2.8087,-2.8427,-2.9492,-3.0349,-3.0966,-3.137,-3.1906,-3.2509,-3.2881,-3.3586,-3.4471,-3.5426,-3.6377,-3.7507,-3.8405,-3.921,-4.0014,-4.0887,-4.1699,-4.2298,0.0,0.0,0.0,0.0,0.0,0.0,0.0,0.0,0.0,0.0,0.6303,0.5856,0.0,0.0,0.0,0.0,0.0,0.0,0.0,0.0,0.0,0.7587,0.7747,0.7937,0.8155,0.8086,0.8073,0.8119,0.807,0.7983,0.7947,0.7903,0.7736,0.7524,0.748,0.7304,0.7014,0.7157,0.6965,0.6601,0.6466,0.6117,0.557,0.5067,0.0,0.0,0.3224,0.0,0.2583,0.228,0.2118,0.1982,0.1468,0.0873,0.0372,0.0,-0.0719,-0.1485,-0.1738,-0.2573,-0.3425,-0.3613,-0.4268,-0.4985,-0.4968,-0.5372,0.0,0.0,-0.5975,-0.6396,-0.6301,-0.704,-0.7851,-0.8541,0.0,0.0,0.0,0.0,-1.4117,0.0,0.0,0.0,0.0,0.0,0.0,0.0,0.0,-2.1169,-2.1533,-2.1867,-2.2759,-2.4164,-2.5319,-2.6362,-2.7404,-2.8314,-2.9215,-2.9996,-3.0503,-3.1061,-3.1657,-3.2233,-3.2925,-3.3714,-3.4397,0.0,-3.6282,-3.6993,-3.7912,-3.893,-3.9899,-4.0746,-4.1558,-4.2356,-4.3066,-4.3928,0.0,0.0,0.0,0.0,0.0,0.0,0.0,0.7023,0.71,0.7186,0.7054,0.6779,0.6327,0.6147,0.0,0.0,0.0,0.0,0.0,0.0,0.0,0.0,0.0,0.0,0.7364,0.7595,0.7646,0.7577,0.0,0.7553,0.744,0.7316,0.7122,0.6934,0.6855,0.6665,0.6362,0.645,0.6214,0.5813,0.5721,0.5427,0.0,0.0,0.0,0.0,0.0,0.0,0.2271,0.1852,0.16,0.1282,0.0984,0.0532,0.0,-0.0698,-0.1347,-0.1821,-0.2529,-0.3138,-0.373,-0.4332,-0.4802,-0.5309,-0.5422,0.0,0.0,0.0,-0.6076,-0.6266,-0.6424,-0.6897,0.0,0.0,0.0,0.0,0.0,0.0,0.0,0.0,0.0,0.0,0.0,0.0,0.0,0.0,0.0,-2.1476,-2.1624,-2.2482,-2.3606,-2.4864,-2.5874,-2.6882,-2.777,-2.8758,-2.9735,-3.0605,-3.1326,-3.2222,-3.3107,-3.3866,-3.4727,-3.5593,-3.6339,-3.7178,-3.8017,-3.8903,-3.9757,-4.0718,-4.1504,-4.2312,-4.3195,-4.3773,-4.4479,-4.5227,0.0,0.0,0.0,0.0,0.0,0.0,0.0,0.7358,0.7567,0.7509,0.7833,0.7778,0.7056,0.6782,0.6401,0.0,0.0,0.0,0.0,0.0,0.0,0.0,0.0,0.0,0.0,0.0,0.0,0.0,0.0,0.0,0.0,0.0,0.0,0.0,0.0,0.0,0.5799,0.5785,0.5548,0.0,0.0,0.0,0.0,0.0,0.0,0.0,0.0,0.0,0.0,0.0,0.0942,0.0588,0.032,0.0,-0.038,-0.1396,-0.1856,-0.2231,-0.3311,-0.3781,-0.4093,-0.5037,-0.5409,-0.5585,-0.6064,-0.6143,0.0,0.0,-0.6065,-0.6109,-0.646,0.0,-0.7212,0.0,-0.9051,-1.0309,0.0,0.0,0.0,0.0,0.0,0.0,0.0,0.0,0.0,0.0,0.0,0.0,-2.2184,-2.3528,-2.4761,-2.5652,-2.6518,-2.7492,-2.8465,-2.9513,-3.0557,-3.1483,-3.2588,-3.3662,-3.4909,-3.5746,-3.6688,-3.7625,-3.8352,-3.9169,-3.9871,-4.0831,-4.1656,-4.246,-4.313,-4.3928,-4.4631,-4.5243,-4.5825,-4.634,0.0,0.0,0.0,0.0,0.0,0.0,0.0,0.7376,0.7726,0.808,0.8412,0.8441,0.7934,0.7222,0.6541,0.0,0.0,0.0,0.0,0.0,0.0,0.0,0.0,0.0,0.0,0.0,0.0,0.0,0.0,0.0,0.0,0.0,0.0,0.0,0.0,0.0,0.0,0.5311,0.0,0.0,0.0,0.0,0.0,0.0,0.0,0.0,0.0,0.0,0.0,0.0,0.0,0.0,-0.0601,-0.0911,-0.11,-0.1484,0.0,0.0,-0.3458,-0.4223,-0.5042,-0.5437,-0.5877,-0.6388,-0.6617,0.0,0.0,-0.6254,-0.6226,-0.6233,-0.6158,0.0,0.0,0.0,0.0,-1.0169,0.0,0.0,0.0,0.0,0.0,0.0,0.0,0.0,0.0,0.0,0.0,0.0,-2.4094,-2.5203,-2.63,-2.7168,-2.8232,-2.9408,-3.0463,-3.1597,-3.2588,-3.3662,-3.4715,-3.5759,-3.6781,-3.7691,-3.8658,-3.9541,-4.0362,0.0,0.0,-4.2651,-4.3367,-4.4082,-4.4856,-4.5463,-4.5913,-4.6464,-4.6896,-4.7337,0.0,0.0,0.0,0.0,0.0,0.0,0.715,0.7499,0.7856,0.8274,0.8672,0.8702,0.8071,0.7708,0.7129,0.0,0.0,0.0,0.0,0.0,0.0,0.0,0.0,0.0,0.0,0.0,0.0,0.0,0.0,0.0,0.0,0.0,0.0,0.0,0.0,0.0,0.0,0.0,0.0,0.0,0.0,0.0,0.0,0.0,0.0,0.0,0.0,0.0,0.0,0.0,0.0,0.0,-0.1127,-0.1664,0.0,0.0,-0.302,-0.3706,-0.4184,-0.4986,-0.5618,-0.5947,-0.6431,-0.6783,-0.6802,0.0,-0.6708,-0.6591,-0.645,-0.635,-0.6607,-0.681,-0.7197,-0.8011,-0.8837,-0.9951,-1.1399,0.0,0.0,0.0,0.0,0.0,0.0,0.0,0.0,0.0,0.0,0.0,-2.7435,-2.7356,-2.7785,-2.884,-2.9995,-3.1143,-3.2264,-3.3441,-3.4521,-3.5568,-3.6675,-3.786,-3.8938,-3.9917,-4.0774,-4.1544,-4.2379,0.0,0.0,-4.4236,-4.4856,-4.539,-4.5953,-4.648,-4.6913,-4.7439,-4.7787,-4.8146,0.0,0.0,0.0,0.0,0.0,0.65,0.6979,0.7526,0.7938,0.819,0.86,0.865,0.7955,0.7872,0.7421,0.6373,0.0,0.0,0.0,0.0,0.0,0.0,0.0,0.0,0.0,0.0,0.0,0.6757,0.0,0.0,0.0,0.0,0.0,0.0,0.0,0.0,0.0,0.0,0.0,0.0,0.0,0.0,0.0,0.0,0.0,0.0,0.0,0.0,0.0,0.0,0.0,0.0,0.0,-0.2394,-0.2989,0.0,-0.3595,-0.4302,-0.4796,-0.5507,-0.6241,-0.647,-0.6881,-0.7072,0.0,0.0,-0.6831,-0.6868,-0.6684,-0.6563,-0.6934,-0.6989,-0.7295,-0.8228,-0.8991,-1.0052,-1.1459,-1.2949,0.0,0.0,0.0,0.0,0.0,0.0,0.0,0.0,0.0,0.0,-3.039,-3.0172,-3.0265,-3.0906,-3.2017,-3.312,-3.4216,-3.5436,-3.6569,-3.7691,-3.8849,-3.9917,-4.1056,-4.1971,-4.2717,-4.3367,-4.4082,-4.4631,0.0,-4.5665,-4.6127,-4.6566,-4.7101,-4.7455,-4.7803,-4.8386,-4.8639,-4.8861,0.0,0.0,0.0,0.0,0.0,0.0,0.6432,0.7354,0.7954,0.783,0.8153,0.8193,0.7669,0.7548,0.7294,0.674,0.0,0.0,0.0,0.0,0.0,0.0,0.0,0.0,0.0,0.0,0.6641,0.689,0.711,0.7086,0.0,0.0,0.0,0.0,0.0,0.0,0.0,0.0,0.0,0.0,0.0,0.0,0.0,0.0,0.0,0.0,0.0,0.0,0.0,0.0,0.0,0.0,0.0,-0.2954,-0.3422,-0.3289,-0.3929,-0.4849,-0.5153,-0.59,-0.675,-0.6932,-0.7158,-0.7432,0.0,0.0,-0.7042,-0.7112,-0.7002,-0.692,-0.6926,-0.735,-0.7896,-0.8577,-0.9417,-1.0635,-1.2334,-1.3703,0.0,0.0,0.0,0.0,0.0,0.0,0.0,0.0,0.0,0.0,-3.2621,-3.3702,-3.3911,-3.3155,-3.4412,-3.5568,-3.6527,-3.7782,-3.8952,-4.019,-4.1155,-4.2015,-4.2921,-4.3789,-4.4479,-4.511,0.0,-4.6111,0.0,-4.6965,-4.7337,-4.777,-4.8292,-4.8483,-4.8547,-4.9229,-4.9488,-4.9547,0.0,0.0,0.0,0.0,0.0,0.0,0.0,0.7194,0.772,0.791,0.8045,0.8023,0.7769,0.7724,0.747,0.6893,0.0,0.0,0.0,0.0,0.0,0.0,0.0,0.0,0.0,0.0,0.6689,0.6631,0.7158,0.7273,0.7035,0.6755,0.0,0.0,0.0,0.0,0.0,0.0,0.0,0.0,0.0,0.0,0.0,0.0,0.0,0.0,0.0,0.0,0.0,0.0,0.0,0.0,0.0,0.0,0.0,-0.4061,-0.4556,0.0,-0.5582,-0.6436,-0.719,-0.7087,-0.7548,-0.7844,-0.7449,0.0,-0.7356,-0.7294,-0.7254,-0.7236,-0.7419,-0.7578,-0.8017,-0.8893,-0.975,-1.096,0.0,0.0,0.0,0.0,0.0,0.0,0.0,0.0,0.0,0.0,0.0,0.0,-3.4764,-3.6018,-3.6232,-3.539,-3.6514,-3.7612,-3.8595,-3.9757,-4.0887,-4.1821,-4.2731,-4.3618,-4.4403,-4.5079,-4.5737,0.0,0.0,-4.7085,-4.7556,-4.7918,-4.8211,-4.8467,-4.8968,-4.9168,-4.9229,-4.9884,-5.0132,-5.0171,0.0,0.0,0.0,0.0,0.0,0.0,0.0,0.6694,0.7299,0.7462,0.7693,0.7796,0.7697,0.7697,0.753,0.7118,0.0,0.0,0.0,0.0,0.0,0.0,0.0,0.0,0.0,0.6573,0.6845,0.6831,0.7453,0.7626,0.735,0.7063,0.675,0.6459,0.0,0.0,0.0,0.0,0.0,0.0,0.0,0.0,0.1715,0.0,0.0,0.0,0.0,0.0,0.0,0.0,0.0,0.0,0.0,0.0,0.0,0.0,-0.5088,-0.5503,-0.588,-0.6704,-0.7431,-0.7261,-0.7706,0.0,0.0,-0.7593,-0.7617,-0.7624,-0.7698,-0.7788,-0.7943,-0.8176,-0.8661,-0.9522,-1.0493,0.0,0.0,0.0,0.0,0.0,0.0,0.0,0.0,0.0,0.0,0.0,0.0,0.0,-3.7114,-3.8326,-3.8787,-3.8389,-3.8876,-3.9596,-4.0547,-4.1738,-4.2666,-4.3461,-4.4312,-4.5005,-4.5697,-4.6269,-4.6828,0.0,-4.7655,-4.8048,0.0,-4.8781,-4.8968,-4.9195,-4.9649,-4.9825,-4.9884,-5.0471,-5.0675,-5.0766,0.0,0.0,0.0,0.0,0.0,0.0,0.0,0.5967,0.6696,0.6565,0.7099,0.746,0.7386,0.7386,0.7356,0.728,0.0,0.0,0.0,0.0,0.0,0.0,0.0,0.0,0.0,0.6779,0.7097,0.746,0.7969,0.8092,0.783,0.7569,0.7214,0.676,0.6101,0.0,0.0,0.0,0.0,0.0,0.0,0.0,0.0,0.0,0.0,0.0,0.0,0.0,0.0,0.0,0.0,0.0,0.0,0.0,0.0,0.0,0.0,0.0,0.0,-0.6909,-0.7612,0.0,0.0,0.0,0.0,0.0,0.0,-0.8037,-0.8281,-0.8474,-0.8474,-0.9072,-0.982,0.0,0.0,0.0,0.0,0.0,0.0,0.0,0.0,0.0,0.0,0.0,0.0,0.0,0.0,0.0,-3.9669,-4.0533,-4.1406,-4.2015,-4.1489,-4.1656,-4.2452,-4.3476,-4.4327,-4.4887,-4.5697,-4.6285,-4.6722,-4.7202,-4.7803,0.0,-4.8467,-4.8984,-4.953,-4.953,-4.9708,-4.9982,-5.0341,-5.0453,-5.0509,-5.0981,-5.1211,-5.1262,0.0,0.0,0.0,0.0,0.0,0.0,0.0,0.0,0.0,0.0,0.6193,0.6274,0.62,0.62,0.6178,0.0,0.0,0.0,0.0,0.0,0.0,0.0,0.0,0.0,0.0,0.7013,0.7425,0.8004,0.8197,0.8266,0.8239,0.7809,0.7313,0.6684,0.6175,0.534,0.0,0.0,0.0,0.0,0.0,0.0,0.0,0.0,0.0,0.0,-0.114,-0.1721,0.0,0.0,0.0,0.0,0.0,0.0,0.0,0.0,-0.5683,-0.6186,-0.6704,0.0,-0.7562,-0.7767,-0.8159,-0.8494,0.0,0.0,0.0,0.0,0.0,-0.9204,-0.9302,-0.9877,-1.0722,0.0,0.0,0.0,0.0,0.0,0.0,0.0,0.0,0.0,0.0,0.0,0.0,0.0,0.0,-4.0703,-4.1544,-4.2216,-4.2971,-4.3618,-4.4129,-4.422,-4.3959,-4.4856,-4.5463,-4.5913,-4.655,-4.705,-4.7421,-4.8016,-4.8513,-4.8995,-4.9152,-4.9649,-5.0171,-5.0171,-5.0324,-5.064,-5.091,-5.0999,-5.107,-5.1538,-5.179,-5.192,0.0,0.0,0.0,0.0,0.0,0.0,0.0,0.0,0.0,0.0,0.0,0.0,0.0,0.0,0.0,0.0,0.0,0.0,0.0,0.0,0.0,0.0,0.0,0.0,0.7269,0.7226,0.7635,0.8517,0.8533,0.8564,0.8568,0.8142,0.7597,0.6975,0.5936,0.4903,0.0,0.0,0.0,0.0,0.1306,0.0,0.0,0.0,0.0,0.0,-0.1647,-0.2183,0.0,-0.3358,-0.394,-0.4418,0.0,0.0,0.0,0.0,-0.603,-0.6558,-0.7014,-0.7387,-0.7805,-0.8145,-0.8581,-0.8881,-0.8844,0.0,0.0,0.0,0.0,-1.0125,-1.0473,-1.1399,0.0,0.0,0.0,0.0,0.0,0.0,0.0,0.0,0.0,0.0,0.0,0.0,0.0,0.0,0.0,-4.2541,-4.321,-4.3913,-4.454,-4.5005,-4.5753,-4.5825,-4.5169,-4.5985,-4.648,-4.6775,-4.7455,-4.7869,-4.8211,-4.8719,-4.9212,-4.9691,-4.9825,-5.0211,-5.0766,-5.0766,-5.0928,-5.1245,-5.1452,-5.1554,-5.1654,-5.1987,-5.218,-5.2351,0.0,0.0,0.0,0.0,0.0,0.0,0.0,0.0,0.0,0.0,0.0,0.0,0.0,0.0,0.0,0.0,0.0,0.0,0.0,0.0,0.0,0.0,0.0,0.6991,0.7711,0.7552,0.7951,0.9005,0.8944,0.8881,0.886,0.843,0.7834,0.7081,0.5522,0.4366,0.0,0.0,0.0,0.0,0.0873,0.0,0.0,0.0,0.0,0.0,0.0,0.0,0.0,-0.3826,-0.436,-0.4861,-0.5217,0.0,0.0,0.0,0.0,0.0,-0.7327,-0.7814,-0.8252,-0.868,-0.9009,-0.9363,-0.9732,0.0,0.0,0.0,0.0,0.0,0.0,-1.3341,0.0,0.0,0.0,0.0,0.0,0.0,0.0,0.0,0.0,0.0,0.0,0.0,0.0,0.0,0.0,-4.4343,-4.4737,-4.5478,-4.5985,-4.6214,-4.6896,-4.7033,-4.641,-4.7033,-4.7388,-4.7605,-4.8275,-4.8719,-4.8827,-4.9411,-4.9901,-5.0285,0.0,0.0,-5.128,-5.1314,-5.1503,-5.179,-5.1938,-5.2084,-5.2228,-5.2369,-5.2518,-5.2725,0.0,0.0,0.0,0.0,0.0,0.0,0.0,0.0,0.0,0.0,0.0,0.0,0.0,0.0,0.0,0.0,0.0,0.0,0.0,0.0,0.0,0.0,0.7349,0.7576,0.7866,0.8319,0.8901,0.9571,0.9397,0.9263,0.9231,0.8649,0.7529,0.6006,0.4895,0.399,0.3241,0.0,0.0,0.0,0.0,0.0,0.0,0.0,0.0,0.0,0.0,0.0,0.0,-0.4017,-0.4638,-0.5233,-0.5468,0.0,0.0,0.0,0.0,0.0,-0.8019,-0.8708,-0.9297,-0.9239,-0.9621,-1.0133,-1.0557,-1.1189,0.0,0.0,0.0,0.0,0.0,-1.5628,0.0,0.0,0.0,0.0,0.0,0.0,0.0,0.0,0.0,0.0,0.0,0.0,0.0,0.0,0.0,-4.5624,-4.6001,-4.655,-4.6981,-4.7202,-4.7869,-4.8211,-4.8129,-4.8211,-4.8275,-4.8339,-4.9046,-4.935,-4.9411,-4.9999,-5.0324,-5.053,0.0,-5.128,-5.1622,-5.1889,-5.2084,-5.2228,-5.2426,-5.2563,-5.2717,-5.285,-5.3023,-5.3217,0.0,0.0,0.0,0.0,0.0,0.0,0.0,0.0,0.0,0.0,0.0,0.0,0.0,0.0,0.0,0.0,0.0,0.0,0.0,0.0,0.0,0.744,0.8,0.819,0.7954,0.8518,0.9065,0.9588,0.9529,0.9437,0.9298,0.8195,0.6943,0.5478,0.4539,0.3633,0.2709,0.1937,0.0,0.0,0.0,0.0,0.0,0.0,0.0,0.0,0.0,0.0,0.0,0.0,-0.4908,-0.5531,-0.5909,0.0,0.0,0.0,0.0,0.0,-0.8456,-0.9406,-1.029,-1.0484,-1.104,-1.1584,-1.2013,-1.2776,0.0,0.0,0.0,0.0,0.0,0.0,0.0,0.0,0.0,0.0,0.0,0.0,0.0,0.0,0.0,0.0,0.0,0.0,0.0,0.0,0.0,0.0,-4.6844,-4.7522,-4.7869,-4.8016,-4.8656,-4.9046,-4.9046,-4.9394,-4.9394,-4.9046,-4.9708,-4.9775,-4.9361,-4.9936,-5.0084,-4.9817,0.0,-5.0766,-5.1502,-5.1672,-5.2109,-5.269,-5.2806,-5.2919,-5.3091,-5.3258,-5.3444,-5.3641,0.0,0.0,0.0,0.0,0.0,0.0,0.0,0.0,0.0,0.0,0.0,0.0,0.0,0.0,0.0,0.0,0.0,0.0,0.0,0.0,0.7409,0.765,0.8512,0.8735,0.826,0.8858,0.9423,0.9856,0.9791,0.9503,0.8944,0.7531,0.6271,0.5071,0.419,0.3206,0.2175,0.1405,0.0703,0.0,0.0,0.0,0.0,0.0,0.0,0.0,0.0,0.0,0.0,0.0,0.0,0.0,0.0,0.0,0.0,-0.7855,-0.8193,-0.8545,-0.8981,-1.0089,-1.129,-1.1947,-1.2568,-1.3128,-1.3686,-1.4592,0.0,0.0,0.0,0.0,0.0,0.0,0.0,0.0,0.0,0.0,0.0,0.0,0.0,0.0,0.0,0.0,0.0,0.0,0.0,0.0,0.0,-4.7538,-4.7671,-4.8339,-4.8736,-4.8736,-4.935,-4.9708,-4.9708,-5.0111,-5.0007,-4.9451,-5.0007,-4.9883,-4.9169,-4.971,-4.9675,-4.9251,-4.9611,-5.0308,-5.1103,-5.1442,-5.2053,-5.2834,-5.3059,-5.3258,-5.3502,-5.368,-5.387,-5.4054,0.0,0.0,0.0,0.0,0.0,0.0,0.0,0.0,0.0,0.0,0.0,0.0,0.0,0.0,0.0,0.0,0.0,0.0,0.0,0.0,0.8115,0.7899,0.871,0.9102,0.8944,0.9868,1.0554,1.0876,1.0454,0.947,0.7981,0.682,0.5674,0.4499,0.3582,0.2622,0.1709,0.0839,0.0033,-0.0669,0.0,0.0,0.0,0.0,0.0,0.0,0.0,0.0,0.0,0.0,0.0,0.0,0.0,0.0,-0.7796,-0.8423,-0.8918,-0.9319,-0.9873,-1.1012,-1.2337,-1.3368,-1.3862,0.0,-1.5394,-1.668,0.0,-1.9097,0.0,0.0,0.0,0.0,0.0,0.0,0.0,0.0,0.0,0.0,0.0,0.0,0.0,0.0,0.0,0.0,0.0,0.0,-4.8,-4.842,-4.842,-4.9046,-4.9428,-4.9428,-4.9999,-5.0359,-5.0359,-5.0189,-4.9802,-4.9246,-4.9802,-4.9674,-4.8915,-4.9418,-4.9618,-4.9611,-5.0141,-5.0411,-5.0563,-5.1605,-5.2121,-5.2333,-5.3209,-5.3757,-5.4055,-5.4144,-5.4284,-5.4453,0.0,0.0,0.0,0.0,0.0,0.0,0.0,0.0,0.0,0.0,0.0,0.0,0.0,0.0,0.0,0.0,0.0,0.0,0.0,0.0,0.8374,0.8092,0.8926,0.937,0.9308,1.0135,1.051,1.0433,0.9518,0.8509,0.7455,0.6327,0.5158,0.3889,0.304,0.2108,0.1074,0.0302,-0.0436,-0.1138,-0.1804,0.0,0.0,0.0,0.0,0.0,0.0,0.0,0.0,0.0,-0.566,-0.6239,-0.6922,-0.7555,-0.8221,-0.9037,-0.9518,-0.9952,-1.0611,-1.181,-1.3206,-1.4474,-1.6109,0.0,0.0,-1.8959,-2.0477,-2.1933,-2.3296,0.0,0.0,0.0,0.0,0.0,0.0,0.0,0.0,0.0,0.0,0.0,0.0,0.0,0.0,0.0,0.0,-4.6623,-4.7743,-4.8395,-4.8395,-4.9433,-5.0057,-5.0057,-5.0585,-5.091,-5.091,-5.067,-5.0178,-4.9532,-4.9679,-4.9383,-4.8679,-4.9028,-4.9021,-4.8617,-4.8926,-4.9438,-5.011,-5.1115,-5.1916,-5.2586,-5.3591,-5.4144,-5.4352,-5.4434,-5.4552,-5.4686,0.0,0.0,0.0,0.0,0.0,0.0,0.0,0.0,0.0,0.0,0.0,0.0,0.0,0.0,0.0,0.0,0.0,0.0,0.8344,0.8582,0.8607,0.8345,0.8968,0.9389,0.9577,1.0034,1.0284,1.0334,0.9039,0.7857,0.6871,0.5779,0.4552,0.3236,0.2379,0.1444,0.0471,-0.0302,-0.1005,-0.1705,-0.2374,-0.2973,0.0,0.0,0.0,0.0,0.0,0.0,0.0,0.0,-0.6015,-0.655,-0.7245,-0.7935,-0.8636,-0.9469,-1.0108,-1.0746,-1.1643,-1.2853,-1.422,-1.5932,0.0,0.0,-2.0785,-2.1859,-2.3227,-2.5061,-2.6658,0.0,0.0,0.0,0.0,0.0,0.0,0.0,0.0,0.0,0.0,0.0,0.0,0.0,0.0,-4.5457,-4.6143,-4.6481,-4.7503,-4.8157,-4.8254,-4.9448,-5.0215,-5.0307,-5.0752,-5.1043,-5.1043,-5.0563,-5.0019,-4.9541,-4.9383,-4.8967,-4.8349,-4.8689,-4.8601,-4.821,-4.842,-4.8883,-4.9639,-5.0563,-5.1763,-5.3003,-5.3999,-5.4486,-5.4648,-5.4692,-5.4803,-5.496,0.0,0.0,0.0,0.0,0.0,0.0,0.0,0.0,0.0,0.0,0.0,0.0,0.0,0.0,0.0,0.0,0.0,0.0,0.9321,0.9109,0.8891,0.8612,0.8797,0.9189,0.9772,0.9579,0.9939,1.0864,0.9284,0.7709,0.6259,0.507,0.3763,0.2462,0.1524,0.0629,-0.0168,-0.0971,-0.1738,-0.2441,-0.2977,-0.3536,0.0,0.0,0.0,0.0,0.0,0.0,0.0,0.0,-0.6291,-0.6648,-0.737,-0.8157,-0.8969,-0.9768,-1.0724,-1.179,-1.3042,-1.4162,-1.5491,0.0,0.0,0.0,-2.4748,-2.5558,-2.6273,-2.8596,0.0,0.0,0.0,0.0,0.0,0.0,0.0,0.0,0.0,0.0,0.0,0.0,0.0,0.0,0.0,-4.5513,-4.6089,-4.713,-4.7516,-4.781,-4.8064,-4.91,-4.9837,-5.0112,-5.041,-5.0683,-5.0778,-4.9724,-4.9213,-4.9195,-4.8788,-4.8402,-4.8032,-4.8343,-4.855,-4.8623,-4.882,-4.8925,-4.9083,-5.0104,-5.1662,-5.3484,-5.4446,-5.4871,-5.5,-5.5,-5.5094,-5.5183,0.0,0.0,0.0,0.0,0.0,0.0,0.0,0.0,0.0,0.0,0.0,0.0,0.0,0.0,0.0,0.0,0.0,0.0,0.9517,0.9331,0.9099,0.8824,0.9049,0.9093,0.8887,0.8596,0.8582,0.8855,0.7581,0.6354,0.5161,0.3968,0.2843,0.1758,0.0871,-0.0038,-0.092,-0.1597,-0.2269,-0.294,-0.3532,-0.4021,-0.4468,0.0,0.0,0.0,0.0,0.0,0.0,0.0,0.0,0.0,-0.7797,-0.8364,-0.9062,-1.0383,-1.1263,-1.2149,-1.3839,-1.5459,0.0,0.0,0.0,0.0,0.0,-2.7527,0.0,0.0,0.0,0.0,0.0,0.0,0.0,0.0,0.0,0.0,0.0,0.0,0.0,0.0,0.0,0.0,-4.5009,-4.5302,-4.5713,-4.6186,-4.7004,-4.7577,-4.7797,-4.8838,-4.951,-4.9734,-5.0109,-5.0379,-5.053,-4.9911,-4.9616,-4.9616,-4.921,-4.882,-4.8439,-4.8678,-4.8874,-4.9046,-4.9079,-4.9244,-4.9546,-5.1111,-5.247,-5.3648,-5.4648,-5.5066,-5.5149,-5.5255,-5.5307,-5.5358,0.0,0.0,0.0,0.0,0.0,0.0,0.0,0.0,0.0,0.0,0.0,0.0,0.0,0.0,0.0,0.0,0.0,0.0,0.0,0.9514,0.9304,0.9023,0.9044,0.8786,0.8163,0.7795,0.7423,0.7062,0.6368,0.5409,0.42,0.3055,0.1953,0.0893,0.0079,-0.0798,-0.1661,-0.2256,-0.2867,-0.3499,-0.4021,-0.4505,-0.4922,0.0,0.0,0.0,0.0,0.0,0.0,0.0,0.0,0.0,-0.8139,-0.8744,-0.95,-1.0851,-1.1777,-1.2839,-1.4999,-1.6726,0.0,-2.1001,0.0,0.0,0.0,0.0,0.0,0.0,0.0,0.0,0.0,0.0,0.0,0.0,0.0,0.0,0.0,0.0,0.0,0.0,0.0,-4.4906,-4.5123,-4.5389,-4.5684,-4.5938,-4.6642,-4.7183,-4.7453,-4.8407,-4.9116,-4.9414,-4.9762,-4.9989,-5.0171,-4.9769,-4.9598,-4.9615,-4.9468,-4.9289,-4.9057,-4.9075,-4.9193,-4.9358,-4.9421,-4.9555,-4.9892,-5.167,-5.275,-5.3411,-5.4699,-5.5281,-5.5364,-5.5456,-5.5504,-5.5573,0.0,0.0,0.0,0.0,0.0,0.0,0.0,0.0,0.0,0.0,0.0,0.0,0.0,0.0,0.0,0.0,0.0,0.0,0.0,0.0,0.9502,0.924,0.8857,0.8321,0.7621,0.7152,0.645,0.5522,0.547,0.4718,0.3384,0.2199,0.1063,-0.0039,-0.0861,-0.1637,-0.2432,-0.2981,-0.3532,-0.4118,-0.4505,-0.4953,-0.5404,-0.5718,0.0,0.0,0.0,0.0,0.0,0.0,0.0,0.0,-0.8473,-0.9204,-1.0137,-1.1203,-1.2285,-1.3714,-1.6246,0.0,0.0,-2.2985,0.0,0.0,0.0,0.0,0.0,0.0,0.0,0.0,0.0,0.0,0.0,0.0,0.0,0.0,0.0,0.0,0.0,-4.4886,-4.5086,-4.5336,-4.5494,-4.5735,-4.5988,-4.6235,-4.6542,-4.6806,-4.7151,-4.7985,-4.8663,-4.9127,-4.9328,-4.9524,-4.9732,-4.9399,-4.9276,-4.9352,-4.9615,-4.9778,-4.9835,-4.9566,-4.9525,-4.9634,-4.9778,-4.9955,-5.0278,-5.1935,-5.2743,-5.3097,-5.4776,-5.5504,-5.5618,-5.5618,-5.5705,-5.5807,0.0,0.0,0.0,0.0,0.0,0.0,0.0,0.0,0.0,0.0,0.0,0.0,0.0,0.0,0.0,0.0,0.0,0.0,0.0,0.0,0.9657,0.9453,0.8667,0.8049,0.7693,0.6703,0.5829,0.5041,0.4469,0.3668,0.2603,0.1325,0.0166,-0.0821,-0.1666,-0.2441,-0.3196,-0.3671,-0.4172,-0.4654,-0.5068,-0.5446,-0.5797,-0.6091,-0.6376,0.0,0.0,0.0,0.0,0.0,0.0,0.0,-0.8996,-0.955,-1.0262,-1.1349,-1.2534,-1.4026,-1.6457,-1.8874,0.0,0.0,-2.7961,-3.1833,0.0,0.0,0.0,0.0,0.0,0.0,0.0,0.0,0.0,0.0,0.0,0.0,0.0,0.0,0.0,-4.5441,-4.558,-4.5786,-4.5988,-4.6284,-4.6542,-4.6795,-4.7053,-4.7302,-4.7627,-4.7933,-4.8309,-4.8715,-4.8937,-4.9134,-4.934,-4.9496,-4.9596,-4.9617,-4.9906,-5.0057,-5.0108,-4.9879,-4.9824,-4.9925,-5.0057,-5.0514,-5.1269,-5.2384,-5.3302,-5.4081,-5.5212,-5.5703,-5.5766,-5.5827,-5.5847,-5.5885,0.0,0.0,0.0,0.0,0.0,0.0,0.0,0.0,0.0,0.0,0.0,0.0,0.0,0.0,0.0,0.0,0.0,0.0,0.0,0.0,0.9731,0.9376,0.861,0.7942,0.7425,0.6303,0.5291,0.4427,0.3386,0.251,0.1742,0.042,-0.0726,-0.1692,-0.2559,-0.3302,-0.4003,-0.4335,-0.4718,-0.5169,-0.5508,-0.5851,-0.6168,-0.6429,-0.6742,-0.7035,-0.7383,0.0,0.0,0.0,0.0,0.0,0.0,0.0,-1.0751,-1.1784,-1.2996,-1.4452,-1.6581,0.0,0.0,-2.5824,0.0,-3.3474,-3.5231,0.0,0.0,0.0,0.0,0.0,0.0,0.0,0.0,0.0,0.0,0.0,0.0,0.0,-4.5786,-4.5887,-4.6038,-4.6235,-4.6381,-4.6713,-4.6989,-4.7143,-4.7432,-4.777,-4.7995,-4.821,-4.8476,-4.889,-4.9061,-4.9244,-4.9452,-4.9731,-4.9906,-4.9948,-5.0188,-5.0329,-5.0377,-5.0188,-5.0133,-5.0207,-5.0278,-5.0822,-5.1729,-5.2647,-5.3577,-5.4504,-5.542,-5.5827,-5.5904,-5.5958,-5.6012,-5.6046,0.0,0.0,0.0,0.0,0.0,0.0,0.0,0.0,0.0,0.0,0.0,0.0,0.0,0.0,0.0,0.0,0.0,0.0,0.0,0.0,0.0,0.9241,0.8621,0.7913,0.7093,0.596,0.486,0.3788,0.2462,0.1446,0.0785,-0.0469,-0.1593,-0.2639,-0.3421,-0.4148,-0.4792,-0.4979,-0.5271,-0.5648,-0.5952,-0.6229,-0.6535,-0.6794,-0.7065,-0.7344,-0.7734,-0.8109,-0.8467,-0.8887,0.0,0.0,0.0,0.0,-1.113,-1.2043,-1.3183,-1.4594,-1.653,0.0,-2.2922,-2.7635,-3.117,0.0,-3.5616,-3.7214,0.0,0.0,0.0,0.0,0.0,0.0,0.0,0.0,0.0,0.0,0.0,-4.6042,-4.6192,-4.6315,-4.6572,-4.6713,-4.6713,-4.7125,-4.7389,-4.7432,-4.7811,-4.819,-4.8382,-4.8605,-4.8872,-4.9244,-4.9384,-4.9585,-4.9778,-5.0005,-5.0163,-5.0259,-5.0459,-5.0566,-5.0625,-5.0462,-5.0396,-5.0438,-5.0438,-5.1056,-5.2118,-5.2895,-5.382,-5.4823,-5.5615,-5.5958,-5.6046,-5.6114,-5.6164,-5.6228,0.0,0.0,0.0,0.0,0.0,0.0,0.0,0.0,0.0,0.0,0.0,0.0,0.0,0.0,0.0,0.0,0.0,0.0,1.0193,0.0,0.0,0.9305,0.8644,0.7891,0.7021,0.5842,0.4625,0.3368,0.2049,0.0776,0.0,0.0,0.0,-0.3483,-0.4109,-0.4829,-0.5578,-0.565,-0.5874,-0.6214,-0.656,-0.6764,-0.6957,-0.7225,-0.7462,-0.7686,-0.808,-0.8495,-0.8887,-0.9345,-0.9868,0.0,0.0,0.0,-1.0831,-1.1308,-1.2281,-1.3702,-1.6101,0.0,-2.5659,0.0,-3.1189,-3.3615,0.0,0.0,-3.8204,0.0,0.0,0.0,0.0,0.0,0.0,0.0,-4.435,-4.4706,-4.5549,-4.5765,-4.6122,-4.6799,-4.7098,-4.7214,-4.7214,-4.7542,-4.7793,-4.7911,-4.8247,-4.8532,-4.8715,-4.8978,-4.9225,-4.9439,-4.9655,-4.9843,-5.0057,-5.0207,-5.0329,-5.0466,-5.0664,-5.0775,-5.0775,-5.0757,-5.0682,-5.0586,-5.0625,-5.1588,-5.3109,-5.3224,-5.4283,-5.5822,-5.5937,-5.6046,-5.618,-5.6251,-5.6278,-5.6291,0.0,0.0,0.0,0.0,0.0,0.0,0.0,0.0,0.0,0.0,0.0,0.0,0.0,0.0,0.0,1.0305,1.0265,1.0239,1.0195,0.999,0.97,0.938,0.8742,0.7958,0.6962,0.5767,0.4464,0.3081,0.1735,0.0,0.0,-0.2159,-0.3218,0.0,0.0,0.0,-0.6215,-0.6368,-0.6514,-0.6673,-0.6915,-0.7145,-0.7373,0.0,0.0,0.0,0.0,0.0,0.0,0.0,0.0,-1.0678,-1.037,0.0,0.0,0.0,-1.2007,-1.3904,-1.7037,-2.0522,-2.4015,0.0,-2.9916,-3.2565,-3.4222,0.0,-3.7845,-3.8664,-3.9549,-4.058,0.0,-4.2489,-4.3042,-4.387,-4.4098,-4.4426,-4.5293,-4.5881,-4.632,-4.6679,-4.7307,-4.7687,-4.7687,-4.7992,-4.8229,-4.8326,-4.8605,-4.8874,-4.9079,-4.934,-4.9555,-4.9722,-4.9933,-5.0063,-5.0207,-5.0377,-5.0546,-5.0739,-5.081,-5.0863,-5.0861,-5.0893,-5.0844,-5.072,-5.0738,-5.147,-5.2665,-5.32,-5.4141,-5.5316,-5.5901,-5.6175,-5.6251,-5.6285,-5.6309,-5.6353,0.0,0.0,0.0,0.0,0.0,0.0,0.0,0.0,0.0,0.0,0.0,0.0,0.0,0.0,0.0,0.0,1.0293,1.0268,1.0193,1.0036,0.9765,0.9409,0.8805,0.7968,0.6872,0.5638,0.428,0.2804,0.0,0.0,-0.1341,-0.2788,-0.3981,0.0,-0.583,-0.6466,0.0,0.0,0.0,0.0,0.0,0.0,0.0,0.0,0.0,0.0,0.0,0.0,0.0,0.0,0.0,0.0,0.0,0.0,0.0,0.0,0.0,0.0,0.0,0.0,-2.199,-2.5098,-2.8223,-3.1084,0.0,0.0,-3.694,0.0,-3.9056,-3.9937,-4.0925,-4.1867,-4.2808,-4.3681,-4.3808,-4.4136,-4.501,-4.5685,-4.6194,-4.6612,-4.7335,-4.7892,-4.8114,-4.8401,-4.8642,-4.8731,-4.894,-4.916,-4.9402,-4.9615,-4.9816,-4.9959,-5.0139,-5.0259,-5.0374,-5.0586,-5.0738,-5.0899,-5.0916,-5.0929,-5.0941,-5.0986,-5.0975,-5.088,-5.088,-5.1363,-5.2213,-5.3149,-5.3994,-5.4859,-5.5841,-5.6259,-5.6297,-5.6314,-5.6367,-5.6398,0.0,0.0,0.0,0.0,0.0,0.0,0.0,0.0,0.0,0.0,0.0,0.0,1.0293,1.0293,1.0292,1.0291,1.0291,1.0273,1.0206,1.0074,0.9824,0.9426,0.8764,0.0,0.6738,0.5401,0.3996,0.253,0.0,0.0,-0.1622,-0.2944,-0.4356,-0.5745,-0.6253,-0.7037,-0.7905,0.0,0.0,0.0,0.0,0.0,0.0,0.0,0.0,0.0,0.0,0.0,0.0,0.0,0.0,0.0,0.0,0.0,0.0,0.0,0.0,0.0,0.0,-1.8055,0.0,-2.375,-2.6354,0.0,0.0,0.0,0.0,0.0,-3.8581,-3.9398,-4.0203,-4.1438,-4.2582,-4.3389,-4.3518,-4.3793,-4.4618,-4.4783,-4.537,-4.691,-4.7224,-4.7647,-4.8477,-4.8697,-4.8892,-4.9146,-4.9244,-4.9402,-4.9663,-4.9816,-4.9986,-5.0163,-5.0255,-5.0396,-5.0567,-5.0775,-5.0899,-5.0899,-5.096,-5.0986,-5.1005,-5.1053,-5.1087,-5.1087,-5.1087,-5.1532,-5.2346,-5.3219,-5.412,-5.4982,-5.5929,-5.6297,-5.6314,-5.6368,-5.6407,-5.6405,0.0,0.0,0.0,0.0,0.0,0.0,0.0,0.0,0.0,0.0,0.0,0.0,0.0,1.0307,1.0305,1.0303,1.0308,1.0273,1.0196,1.0066,0.9825,0.9412,0.8719,0.7759,0.6536,0.5151,0.3702,0.0,0.0,-0.0583,-0.1952,-0.315,-0.4411,-0.566,-0.6518,-0.7401,-0.8265,-0.8441,0.0,0.0,0.0,0.0,0.0,0.0,0.0,0.0,0.0,0.0,0.0,0.0,0.0,0.0,0.0,0.0,0.0,0.0,0.0,0.0,0.0,0.0,0.0,-2.1427,-2.4386,-2.727,-2.9528,-3.1902,-3.4035,-3.5474,-3.7268,-3.882,-3.9589,-4.133,-4.2704,-4.2982,-4.3463,-4.3906,-4.4202,-4.4702,-4.5238,-4.5811,-4.6453,-4.7203,-4.8085,-4.8263,-4.8669,-4.9415,-4.9555,-4.9673,-4.9816,-5.0057,-5.0207,-5.0278,-5.0393,-5.0565,-5.072,-5.0846,-5.0932,-5.096,-5.099,-5.102,-5.1067,-5.1095,-5.1102,-5.1102,-5.1153,-5.1296,-5.1643,-5.3067,-5.3851,-5.4278,-5.5734,-5.6333,-5.6368,-5.6387,-5.6425,-5.6469,0.0,0.0,0.0,0.0,0.0,0.0,0.0,0.0,0.0,1.0701,0.0,0.0,0.0,0.0,1.1016,1.0739,1.0458,1.0273,1.0204,1.0066,0.9805,0.9379,0.8595,0.755,0.6265,0.479,0.3286,0.1761,0.0452,-0.0842,-0.2097,-0.3202,-0.4333,-0.5464,-0.6464,-0.7498,0.0,0.0,0.0,-0.9848,0.0,0.0,-1.1872,0.0,0.0,0.0,0.0,0.0,0.0,0.0,0.0,0.0,0.0,0.0,0.0,0.0,0.0,0.0,-1.3117,0.0,0.0,0.0,-2.2191,-2.4876,-2.7125,0.0,-3.2164,-3.3556,-3.5587,-3.7351,-3.815,-4.0199,-4.1894,-4.2385,-4.3118,-4.3639,-4.3639,-4.4395,-4.501,-4.5301,-4.5873,-4.6607,-4.7535,-4.7984,-4.8499,-4.9239,-4.9636,0.0,-5.0031,-5.0188,-5.0329,-5.0396,-5.0565,-5.0721,-5.0846,-5.0897,-5.096,-5.1005,-5.1015,-5.1062,-5.1095,-5.1114,-5.1127,-5.1139,-5.1171,-5.1178,-5.1257,-5.2712,-5.3475,-5.3888,-5.5322,-5.6105,-5.6398,-5.6425,-5.6469,-5.6503,0.0,0.0,0.0,0.0,0.0,0.0,0.0,0.0,1.0672,1.1523,0.0,0.0,0.0,0.0,0.0,1.1605,1.0796,1.0306,1.0231,1.0093,0.9789,0.9318,0.8398,0.7256,0.5911,0.4302,0.276,0.1272,0.0,-0.1091,-0.2047,-0.3106,-0.419,-0.53,-0.6113,-0.7247,-0.858,0.0,-0.9722,-1.1035,0.0,-1.2384,-1.3338,0.0,0.0,0.0,-1.6227,-1.69,0.0,0.0,0.0,0.0,0.0,0.0,0.0,0.0,0.0,0.0,0.0,0.0,0.0,0.0,0.0,0.0,-2.521,0.0,-2.9323,-3.1785,-3.3601,-3.5019,-3.5886,-3.7999,-4.0051,-4.1445,-4.2399,-4.2996,-4.3015,-4.3754,-4.4606,-4.5469,-4.5563,-4.5988,-4.6996,-4.7825,-4.8409,-4.8647,-4.9447,-5.0032,-5.024,-5.0283,-5.0396,-5.0606,-5.0738,-5.0827,-5.0899,-5.096,-5.1005,-5.0986,-5.1069,-5.1095,-5.1114,-5.1171,-5.1202,-5.1202,-5.1202,-5.1202,-5.126,-5.215,-5.3016,-5.3902,-5.4753,-5.5629,-5.6417,-5.648,-5.6503,-5.6504,0.0,0.0,0.0,0.0,0.0,0.0,1.2116,1.2112,1.2187,0.0,0.0,0.0,1.2783,1.2792,1.2705,1.2469,1.1661,1.1158,1.1133,1.0389,0.9701,0.9175,0.8125,0.6869,0.5428,0.3781,0.2198,0.0721,-0.0405,-0.1459,-0.2437,-0.3129,-0.3917,0.0,-0.5502,-0.6468,-0.7592,-0.8816,0.0,0.0,-1.2005,-1.312,0.0,0.0,0.0,0.0,0.0,-1.9801,0.0,0.0,-1.897,-1.7612,0.0,0.0,0.0,0.0,0.0,0.0,-1.29,0.0,0.0,0.0,0.0,0.0,0.0,0.0,-2.7514,-2.9399,-3.1621,-3.3635,-3.5059,-3.6329,-3.7501,-3.8471,-4.0772,-4.2641,-4.3262,-4.3563,-4.4041,-4.4831,-4.4979,-4.5398,-4.6346,-4.667,-4.7106,0.0,-4.8215,-4.8686,-4.9328,-5.0117,-5.0567,-5.0682,-5.0793,-5.088,-5.0909,-5.0975,-5.1015,-5.1069,-5.1082,-5.1127,-5.1171,-5.1186,-5.1197,-5.1197,-5.12,-5.121,-5.1268,-5.2142,-5.2999,-5.3896,-5.4772,-5.5656,-5.6461,-5.6484,-5.6504,-5.6503,0.0,0.0,0.0,0.0,0.0,1.2793,1.2793,1.2808,1.3058,0.0,0.0,0.0,1.4851,1.4298,1.3881,1.3881,1.2756,1.1883,1.1523,1.0805,0.9969,0.8966,0.7755,0.638,0.4816,0.3106,0.1546,0.0131,-0.0904,-0.1814,-0.2655,-0.3223,-0.3798,0.0,0.0,0.0,0.0,0.0,0.0,0.0,-1.2499,0.0,0.0,-1.6831,-1.8321,0.0,0.0,0.0,-2.1719,-2.1761,-2.0561,0.0,0.0,0.0,0.0,0.0,0.0,0.0,0.0,0.0,0.0,0.0,0.0,0.0,-2.0431,-2.2588,-2.482,0.0,-2.9041,-3.1066,-3.2692,-3.3933,-3.5077,-3.6255,-3.83,-4.0257,-4.1736,-4.2591,-4.3353,-4.4184,-4.4335,-4.4706,-4.5651,-4.6107,-4.6557,-4.7095,-4.7608,-4.8097,-4.8599,-4.924,-4.9797,-5.0235,-5.0306,-5.0546,-5.0941,-5.1005,-5.1062,-5.1095,-5.1127,-5.1152,-5.1206,-5.1197,-5.12,-5.121,-5.1201,-5.122,-5.1288,-5.1794,-5.2505,-5.3399,-5.4253,-5.5166,-5.5989,-5.6368,-5.6497,-5.6514,0.0,0.0,1.209,1.2811,1.3104,1.3239,1.3239,1.3311,1.3926,0.0,1.5688,1.6243,1.773,1.656,1.5686,1.567,1.4091,1.275,1.1968,1.1432,1.0455,0.8823,0.7415,0.5864,0.4097,0.2358,0.0823,-0.0507,-0.1419,-0.2172,-0.2745,-0.3301,-0.379,-0.42,0.0,0.0,0.0,0.0,0.0,-1.0847,-1.2977,-1.4647,0.0,0.0,-1.9239,0.0,-2.1609,-2.2408,-2.3115,-2.3044,-2.173,0.0,0.0,0.0,0.0,0.0,-1.3934,0.0,0.0,0.0,0.0,0.0,0.0,0.0,-1.9292,-2.0573,-2.1962,0.0,-2.6182,-2.7822,-2.9614,-3.1107,-3.2629,-3.4418,-3.5394,-3.6806,-3.9334,-4.1098,-4.2469,-4.3346,-4.3525,-4.3916,-4.4763,-4.5595,-4.6118,-4.6254,-4.7237,-4.7914,-4.7952,-4.8121,-4.8596,-4.9431,-4.9467,-4.9904,-5.0865,-5.0932,-5.1011,-5.1108,-5.1171,-5.1206,-5.12,-5.1219,-5.121,-5.1211,-5.122,-5.123,-5.1295,-5.1295,-5.1802,-5.2687,-5.344,-5.4351,-5.5294,-5.6068,-5.6411,-5.6514,0.0,0.0,1.3654,1.3829,1.5017,1.5933,1.5933,1.6489,1.7025,1.7375,1.7411,1.7536,1.7855,1.7618,1.7412,1.7414,1.5875,1.4766,1.4504,1.2657,1.0845,0.9174,0.7506,0.5562,0.3287,0.1522,0.0065,-0.1128,-0.1963,-0.2558,-0.2955,-0.3294,-0.3607,-0.3923,0.0,0.0,0.0,0.0,0.0,-1.0576,-1.2992,0.0,-1.613,-1.8445,-2.0526,-2.2437,-2.3804,-2.4906,-2.5492,0.0,-2.3415,-2.2413,0.0,0.0,0.0,0.0,0.0,0.0,0.0,0.0,0.0,0.0,0.0,0.0,-1.7895,-1.9342,-2.0954,0.0,-2.4004,-2.545,-2.7834,-2.853,-2.9493,-3.1809,-3.2919,-3.4773,-3.8479,-3.9884,-4.0855,-4.1673,-4.2438,-4.2959,-4.3155,-4.3368,-4.3848,-4.4595,-4.6129,-4.7049,-4.7139,-4.786,-4.8353,-4.8543,-4.8604,-4.9088,-5.0021,-5.0061,-5.044,-5.1178,-5.1197,-5.12,-5.1201,-5.1269,-5.1278,-5.1287,-5.1276,-5.1292,-5.1292,-5.1296,-5.181,-5.2629,-5.2792,-5.3806,-5.5215,-5.5396,-5.5938,-5.6579,0.0,1.35,1.4242,1.467,1.5793,1.6645,1.6645,1.7357,1.8069,1.8481,1.9277,1.9953,2.0395,2.0089,1.9659,1.9224,1.8001,1.6612,1.5098,1.3429,1.1386,0.885,0.6856,0.4758,0.249,0.0719,-0.0719,-0.1807,-0.2466,-0.2955,-0.326,-0.345,-0.3668,-0.3885,0.0,0.0,0.0,0.0,-0.9947,-1.099,-1.3241,0.0,-1.6718,-1.8846,-2.1122,-2.3383,-2.4684,-2.6029,-2.7102,-2.6236,-2.5209,0.0,0.0,-2.1062,-1.9982,0.0,-1.8348,-1.7928,0.0,0.0,0.0,-1.599,0.0,0.0,0.0,-1.7741,-1.8953,-2.1062,-2.1842,-2.2938,-2.5485,-2.5945,-2.6779,-2.9306,-3.0049,-3.1301,-3.4159,-3.6759,-3.8784,-4.0005,-4.0597,-4.1246,-4.2068,-4.222,-4.2638,-4.359,-4.4853,-4.5632,-4.5703,-4.6577,-4.7264,-4.7734,-4.7777,-4.8244,-4.9149,-4.9174,-4.9668,-5.0547,-5.0577,-5.0831,-5.1249,-5.1287,-5.1304,-5.13,-5.1296,-5.1323,-5.1349,-5.1362,-5.1603,-5.2038,-5.2486,-5.3181,-5.405,-5.4923,-5.556,-5.6019,1.3823,1.4225,1.4552,1.5251,1.6196,1.6848,1.6848,1.7713,1.8683,1.9566,2.1012,2.228,2.3159,2.2673,2.2002,2.1299,2.0312,1.8542,1.5734,1.4264,1.1941,0.8493,0.6107,0.3817,0.1572,-0.0304,-0.1709,-0.2631,-0.3129,-0.3483,-0.3719,-0.3721,-0.3801,0.0,0.0,0.0,0.0,0.0,0.0,-1.1583,0.0,-1.5567,-1.7473,-1.9155,-2.1555,-2.4195,-2.5577,-2.7016,-2.8302,-2.7988,0.0,-2.5379,-2.4598,-2.3105,0.0,0.0,0.0,0.0,0.0,0.0,0.0,0.0,0.0,-1.6547,0.0,0.0,0.0,-1.9355,-1.9947,0.0,0.0,0.0,0.0,0.0,0.0,0.0,0.0,-3.2678,0.0,-3.757,-3.8139,-3.8961,-4.0511,-4.1023,-4.1627,-4.2553,-4.3447,-4.4037,-4.424,-4.508,-4.5916,-4.6687,-4.6875,-4.7398,-4.8262,-4.8336,-4.8816,-4.9663,-4.9722,-5.0198,-5.107,-5.107,-5.1164,-5.1317,-5.1317,-5.1343,-5.1394,-5.14,-5.1405,-5.1474,-5.2177,-5.2552,-5.2869,-5.4275,-5.5004,-5.5397,1.4053,1.4667,1.5183,1.5299,1.6657,1.7743,1.7743,1.9095,2.0438,2.1302,2.225,2.3178,2.4068,0.0,0.0,0.0,0.0,0.0,1.8427,0.0,1.2486,0.8656,0.578,0.3023,0.0266,-0.1856,-0.3216,-0.38,-0.4164,-0.4395,-0.4468,-0.4007,-0.3944,0.0,-0.5053,0.0,0.0,0.0,-1.0413,0.0,-1.3973,-1.6079,0.0,-1.9565,-2.2171,-2.5433,-2.7949,-2.8984,-2.9074,0.0,-2.7863,-2.7074,0.0,-2.446,0.0,0.0,0.0,0.0,0.0,0.0,0.0,0.0,-1.7072,0.0,0.0,0.0,-1.6876,-1.7877,0.0,0.0,0.0,0.0,0.0,0.0,0.0,0.0,-2.6863,-2.8135,-3.0044,-3.3135,-3.4825,-3.614,-3.7164,-3.8661,-3.9933,-4.0824,-4.1754,-4.2579,-4.3308,-4.4233,-4.4796,-4.4886,-4.5704,-4.6546,-4.7423,-4.7494,-4.7981,-4.8844,-4.8844,-4.9336,-5.0251,-5.0251,-5.0654,-5.1394,-5.1394,-5.1394,-5.1394,-5.1391,-5.1396,-5.1416,-5.1513,-5.2015,-5.2713,-5.2911,-5.3974,-5.5309,1.4795,1.5074,0.0,1.5298,1.6716,1.7833,1.7843,1.9724,2.1815,2.3663,2.4255,2.5035,0.0,0.0,0.0,0.0,0.0,2.2383,0.0,0.0,1.1932,0.7427,0.3519,0.0385,-0.1912,-0.4232,-0.5415,-0.5457,-0.5676,-0.5408,-0.4719,-0.4649,-0.452,-0.4408,-0.5401,0.0,-0.7236,0.0,0.0,0.0,0.0,0.0,0.0,-2.0104,-2.2934,-2.6726,-2.8279,-2.9221,-2.9645,0.0,-2.8494,0.0,0.0,0.0,0.0,0.0,0.0,0.0,0.0,0.0,0.0,0.0,0.0,0.0,0.0,0.0,-1.6695,0.0,0.0,0.0,0.0,0.0,0.0,0.0,-2.1204,0.0,0.0,0.0,-2.642,0.0,0.0,0.0,-3.4417,-3.6588,-3.8054,-3.8434,-4.0224,-4.1448,-4.1796,-4.3627,-4.4652,-4.4645,-4.5537,-4.6191,-4.66,-4.6668,-4.7151,-4.7993,-4.8008,-4.847,-4.9354,-4.9861,-5.0302,-5.0664,-5.1171,-5.1396,-5.139,-5.1398,-5.1402,-5.1405,-5.1405,-5.1623,-5.2016,-5.2511,-5.3159,-5.3943,1.5274,0.0,0.0,0.0,1.6665,1.8049,1.8724,2.0662,2.2881,2.5215,0.0,0.0,2.8661,2.8782,0.0,0.0,0.0,2.3332,0.0,0.0,1.0532,0.504,0.0835,0.0,0.0,-0.6652,-0.7506,-0.7075,-0.7027,-0.6528,-0.5622,-0.5658,-0.5357,-0.4828,0.0,-0.6901,-0.7499,0.0,0.0,-1.3474,-1.5967,-1.856,-2.1011,-2.1724,-2.4168,-2.7372,-2.8331,-2.9145,-2.9717,-2.9691,-2.9053,0.0,-2.8315,0.0,0.0,0.0,0.0,0.0,-2.3746,0.0,0.0,0.0,0.0,0.0,0.0,0.0,0.0,0.0,0.0,0.0,0.0,0.0,0.0,-1.9027,0.0,-1.9209,0.0,-2.1346,0.0,0.0,0.0,0.0,0.0,-3.3986,-3.5593,-3.5836,-3.8048,-3.9611,-4.0095,-4.2366,-4.3873,-4.4353,-4.522,-4.5813,-4.6123,-4.6177,-4.652,-4.7138,-4.7138,-4.7599,-4.8474,-4.9103,-4.966,-5.0137,-5.0766,-5.1187,-5.1391,-5.1391,-5.1394,-5.1398,-5.14,-5.1398,-5.1474,-5.2106,-5.2499,-5.287,1.5211,1.5206,0.0,0.0,0.0,0.0,2.1094,2.2327,0.0,0.0,0.0,0.0,0.0,0.0,0.0,0.0,0.0,2.3857,1.8821,0.0,0.8071,0.0,0.0,0.0,0.0,0.0,-0.9186,-0.8539,-0.8015,-0.7742,-0.7701,-0.7117,-0.645,-0.5809,-0.7158,-0.7829,-0.8105,-1.0012,-1.1903,-1.3877,-1.6365,-1.9662,-2.3167,0.0,-2.607,-2.7092,-2.864,0.0,0.0,-2.9709,-2.9544,0.0,0.0,0.0,0.0,0.0,0.0,0.0,0.0,0.0,0.0,-2.2184,0.0,0.0,0.0,0.0,-1.7861,0.0,0.0,0.0,0.0,0.0,-1.9177,-1.9184,-1.8488,0.0,0.0,0.0,0.0,0.0,0.0,0.0,0.0,-3.0463,-3.23,-3.3161,-3.4856,-3.66,-3.8287,-4.0052,-4.1791,-4.3491,-4.4375,-4.5287,-4.6185,-4.6208,-4.6209,-4.6242,-4.624,-4.6699,-4.7533,-4.7561,-4.8509,-5.01,-5.0125,-5.0617,-5.1398,-5.1398,-5.1398,-5.1398,-5.1403,-5.1404,-5.1404,-5.1424,-5.1972,-5.2715,0.0,0.0,0.0,0.0,0.0,0.0,0.0,2.3216,0.0,0.0,0.0,0.0,0.0,0.0,3.0684,0.0,0.0,2.1817,1.6327,0.9157,0.0,0.0,0.0,-1.0622,0.0,0.0,0.0,-1.0591,-0.9996,-0.9275,-0.8409,-0.8462,-0.7736,-0.6442,0.0,-0.8431,0.0,0.0,0.0,0.0,0.0,-2.2385,-2.4655,0.0,0.0,-2.7547,-2.7989,-2.8682,0.0,-2.9381,-2.9363,-2.9378,-2.9288,-2.8976,-2.8643,-2.8498,-2.8141,0.0,0.0,0.0,-2.526,-2.4452,0.0,0.0,0.0,0.0,0.0,0.0,0.0,0.0,0.0,0.0,-1.756,-1.7546,-1.6814,-1.6454,0.0,0.0,0.0,0.0,0.0,0.0,0.0,0.0,-2.9926,-3.1349,-3.3585,-3.5406,-3.6581,-3.9345,-4.1199,-4.1829,-4.378,-4.4973,-4.5331,-4.5917,-4.6228,-4.6275,-4.6275,-4.6425,-4.6733,-4.7302,-4.8206,-4.9344,-4.9873,-5.0599,-5.1403,-5.1403,-5.1404,-5.1405,-5.1406,-5.1406,-5.1406,-5.1406,-5.1582,-5.1914,1.6939,0.0,0.0,0.0,0.0,0.0,0.0,0.0,0.0,0.0,2.9767,0.0,3.2492,0.0,3.0682,0.0,2.4204,1.8581,1.1259,0.423,0.0,-0.7724,-1.2179,0.0,0.0,0.0,0.0,0.0,0.0,-1.0443,-0.9419,-0.9725,-0.9057,-0.7668,0.0,-0.9321,-0.945,0.0,-1.3863,0.0,0.0,-2.4137,0.0,0.0,-2.6826,-2.7719,0.0,-2.8478,-2.9341,-2.9209,-2.9328,-2.9569,-2.9681,-2.9496,-2.9216,-2.9355,-2.9072,-2.867,-2.8454,-2.7658,0.0,-2.619,-2.4997,0.0,-2.2202,0.0,0.0,0.0,0.0,0.0,0.0,0.0,-1.7525,-1.7207,-1.6438,-1.594,0.0,-1.6675,0.0,0.0,0.0,0.0,0.0,0.0,-2.7651,-2.8737,-3.1515,-3.3666,0.0,-3.7566,-3.9671,-4.0968,-4.2599,-4.3927,-4.4884,-4.5462,-4.5933,-4.6303,-4.6292,-4.6303,-4.6312,-4.6883,-4.7608,-4.8471,-4.9312,-5.0174,-5.0996,-5.1289,-5.1406,-5.1405,-5.1405,-5.1404,-5.1403,-5.1406,-5.1406,-5.1483,0.0,0.0,0.0,0.0,1.875,0.0,0.0,0.0,2.6627,0.0,3.0177,3.1579,3.3895,3.2294,3.0067,2.7651,2.1766,0.0,0.4069,-0.1042,0.0,0.0,-1.6274,-1.661,-1.7889,0.0,0.0,0.0,0.0,0.0,-1.079,-1.0907,-1.0376,-0.937,-1.0091,0.0,-1.054,-1.1986,-1.419,-1.707,-2.1855,-2.481,-2.6438,-2.7234,-2.7572,-2.7695,-2.8075,-2.8551,-2.9007,-2.9274,-2.9543,-2.9758,-2.9886,-3.0037,-3.0189,-3.033,-3.0386,-3.0257,-2.9552,-2.9369,-2.9026,-2.7434,-2.642,0.0,0.0,0.0,-2.3221,0.0,0.0,0.0,0.0,0.0,0.0,-1.8219,-1.7297,-1.6409,-1.557,0.0,0.0,0.0,0.0,0.0,0.0,-2.3391,-2.5421,-2.5583,-2.8644,-3.1287,0.0,-3.48,-3.7304,-4.0694,-4.0928,-4.2214,-4.4746,-4.4855,-4.5358,-4.6249,-4.6287,-4.6293,-4.6295,-4.6305,-4.6775,-4.7655,-4.8515,-4.9394,-5.0252,-5.1072,-5.1403,-5.1398,-5.1398,-5.1398,-5.1398,-5.1403,-5.1402,-5.1398,1.8589,1.9112,1.9708,0.0,2.0834,2.206,0.0,0.0,0.0,0.0,3.2035,3.2985,3.217,3.0262,2.7228,2.2629,1.328,0.0,0.0,0.0,0.0,-1.8529,-2.0694,-2.1186,-1.9782,-1.8177,0.0,-1.4819,0.0,0.0,-1.2094,-1.1747,-1.101,-0.9976,0.0,0.0,-1.1136,-1.2417,-1.5828,-2.0617,-2.3887,-2.5894,-2.7043,0.0,-2.8578,-2.937,-2.89,-2.9276,-3.0064,-3.0325,-3.0939,-3.1638,-3.1745,-3.1492,-3.1164,-3.1232,-3.089,-3.0453,-3.03,-2.9848,-2.9316,-2.8933,-2.8184,-2.7344,0.0,0.0,0.0,0.0,0.0,0.0,0.0,0.0,0.0,-1.9101,-1.7695,-1.6615,0.0,0.0,0.0,-1.5777,0.0,0.0,-2.0357,-2.1284,-2.2857,-2.5413,-2.7012,-2.889,0.0,0.0,-3.5917,-3.8105,-4.0007,-4.1668,-4.3022,-4.4324,-4.5098,-4.535,-4.5997,-4.6297,-4.6305,-4.6306,-4.6777,-4.7656,-4.8514,-4.9373,-5.0189,-5.1049,-5.14,-5.1398,-5.1398,-5.1396,-5.1394,-5.1398,-5.14,-5.1398,2.0517,0.0,0.0,2.3064,0.0,0.0,2.5313,0.0,0.0,3.0464,3.2015,0.0,3.0306,2.7297,2.2336,1.4617,0.6256,0.0,0.0,0.0,0.0,-2.3177,-2.353,-2.3001,-2.1545,-1.9431,0.0,-1.5998,0.0,0.0,-1.2507,-1.1962,-1.1382,-1.0821,-1.0928,-1.1381,-1.2262,-1.4901,-1.8315,-2.2223,-2.4938,-2.6655,0.0,-2.8631,-2.9545,-3.0319,-3.0342,-3.0686,-3.1182,-3.1389,-3.1864,-3.2371,-3.2509,-3.2329,-3.2095,-3.2172,-3.1959,-3.1698,-3.1751,-3.1475,-3.1076,-3.0723,-2.9984,-2.9137,-2.832,-2.7458,-2.6685,0.0,-2.5093,0.0,0.0,0.0,0.0,0.0,0.0,0.0,0.0,0.0,0.0,0.0,-1.7365,0.0,-1.9301,-2.0068,-2.1308,-2.3237,-2.5201,0.0,0.0,0.0,-3.4469,-3.6571,-3.8764,-4.0521,-4.1816,-4.3556,-4.4621,-4.5009,-4.5889,-4.6305,-4.6308,-4.6308,-4.6562,-4.7086,-4.7946,-4.8783,-4.9597,-5.0476,-5.1062,-5.1408,-5.1408,-5.1405,-5.1398,-5.1402,-5.1408,-5.1408,0.0,0.0,0.0,0.0,0.0,0.0,0.0,2.859,0.0,3.0759,0.0,2.9814,2.6628,2.2296,1.5315,0.4417,0.0,-0.9354,-2.1183,-2.2337,-2.4266,-2.8102,-2.5344,-2.3478,-2.2975,-2.0466,0.0,0.0,0.0,-1.367,-1.2477,-1.1911,-1.1621,-1.1549,-1.1577,0.0,0.0,-1.7974,-2.0819,-2.2722,-2.548,-2.7247,-2.838,-2.9747,-3.0539,-3.1075,-3.2051,-3.2353,-3.2311,-3.2449,-3.2598,-3.2779,-3.2912,-3.2977,-3.3025,-3.3149,-3.319,-3.3231,-3.3284,-3.3356,-3.322,-3.2467,-3.1697,-3.0937,-3.0111,-2.9259,-2.8574,-2.8408,-2.7114,-2.5933,0.0,0.0,0.0,0.0,0.0,0.0,0.0,0.0,0.0,0.0,0.0,0.0,-1.785,-1.9234,-2.0255,-2.0488,0.0,0.0,0.0,0.0,-3.2801,-3.548,-3.7371,-3.9181,-4.0912,-4.277,-4.4086,-4.4837,-4.5837,-4.6308,-4.6308,-4.6307,-4.6305,-4.636,-4.7219,-4.8055,-4.8867,-4.9745,-5.0601,-5.139,-5.139,-5.1406,-5.1396,-5.1396,-5.1401,-5.1429,0.0,0.0,0.0,0.0,0.0,2.957,2.9138,2.9973,3.0789,3.1233,2.9955,2.528,1.5531,1.1136,0.4301,-0.7239,-1.4737,0.0,0.0,0.0,0.0,-2.8024,-2.6657,-2.5142,-2.345,-2.1749,-1.9793,0.0,-1.6011,-1.4438,-1.2891,-1.2291,-1.1746,-1.1267,-1.1383,0.0,-1.4914,-1.8732,0.0,-2.3199,-2.5992,-2.8041,-2.9566,-3.0189,-3.147,-3.2954,-3.3317,-3.3374,-3.328,-3.3464,-3.4027,-3.4666,-3.4845,-3.4513,-3.4048,-3.4138,-3.3727,-3.3304,-3.3356,-3.3399,-3.3367,-3.3202,-3.3064,-3.2723,-3.1864,-3.0985,-3.0146,-2.9411,-2.8412,-2.7248,-2.5858,0.0,0.0,0.0,0.0,0.0,0.0,0.0,0.0,0.0,0.0,0.0,0.0,-1.7783,0.0,0.0,0.0,0.0,0.0,0.0,-3.04,0.0,-3.6235,-3.8313,0.0,0.0,-4.3782,-4.3943,-4.5546,-4.6308,-4.6307,-4.6305,-4.63,-4.6354,-4.721,-4.8066,-4.888,-4.9735,-5.061,-5.1401,-5.1405,-5.14,-5.14,-5.14,-5.14,-5.1497,0.0,0.0,0.0,0.0,0.0,0.0,0.0,2.99,0.0,2.8528,2.3412,1.6779,0.8773,0.1573,-0.6484,-1.5977,-2.0448,-2.3998,-2.6932,-2.8993,-2.9484,-2.8008,-2.6716,0.0,-2.3631,-2.2178,-2.0404,-1.8228,-1.656,-1.5037,-1.3661,-1.2733,-1.2138,-1.183,0.0,-1.3833,0.0,0.0,0.0,-2.4115,-2.7057,-2.8999,-3.0319,-3.1626,-3.2751,-3.3749,-3.4323,-3.4511,-3.4494,-3.456,-3.4863,-3.5235,-3.5397,-3.5232,-3.4986,-3.5097,-3.489,-3.465,-3.4698,-3.471,-3.4648,-3.4195,-3.4044,-3.3785,-3.2913,-3.2049,-3.1287,-3.0834,-2.9687,-2.812,-2.5951,-2.4888,0.0,0.0,0.0,0.0,0.0,0.0,0.0,0.0,0.0,0.0,0.0,0.0,0.0,0.0,0.0,0.0,0.0,0.0,-2.962,0.0,0.0,0.0,-3.917,0.0,-4.3709,-4.3711,-4.5469,-4.6307,-4.6301,-4.63,-4.6295,-4.6345,-4.7178,-4.8014,-4.8903,-5.0225,-5.1021,-5.1405,-5.14,-5.1388,-5.1343,-5.1343,-5.1629,-5.2071,0.0,2.8867,0.0,0.0,3.2453,0.0,2.9578,2.6791,2.4563,2.3266,1.5515,0.7391,0.015,-0.8045,-1.6031,-2.3518,-2.4386,-2.6363,-3.0666,-2.9795,-2.8774,-2.7886,-2.6521,-2.5205,-2.3953,-2.2392,-2.0671,0.0,-1.7062,-1.5533,-1.413,-1.3159,-1.2687,-1.2635,0.0,0.0,0.0,0.0,-2.2443,-2.4878,-2.8085,-3.0112,-3.135,-3.3034,-3.3908,-3.432,-3.5096,-3.5402,-3.5449,-3.5397,-3.5369,-3.5383,-3.5495,-3.5588,-3.5669,-3.5779,-3.5859,-3.5899,-3.5916,-3.5955,-3.5817,-3.5135,-3.4893,-3.4642,-3.3751,-3.2875,-3.2193,-3.1961,-3.0576,-2.8764,-2.6694,-2.6178,0.0,0.0,0.0,0.0,0.0,0.0,0.0,0.0,0.0,0.0,0.0,0.0,0.0,0.0,0.0,0.0,-2.3976,0.0,0.0,0.0,0.0,-3.7536,-3.8593,0.0,-4.3691,-4.3728,-4.5466,-4.6301,-4.629,-4.6309,-4.6284,-4.6312,-4.7142,-4.8094,-4.9201,-5.0731,-5.1388,-5.1388,-5.1382,-5.1356,-5.1323,-5.1518,-5.201,-5.2656,0.0,0.0,0.0,0.0,0.0,0.0,1.9564,1.7851,1.6981,1.4524,0.8819,-0.082,-1.6116,-1.9095,-2.3005,-3.0593,-3.012,-2.9406,-2.9233,-2.8834,-2.8257,-2.7471,-2.681,-2.5846,-2.4644,-2.2711,-2.0818,0.0,0.0,-1.5841,-1.3735,-1.3511,-1.336,0.0,0.0,0.0,0.0,-2.0255,-2.2951,-2.4924,-2.854,-3.1327,-3.3365,-3.3808,-3.451,-3.5297,-3.5495,-3.5581,-3.5596,-3.5639,-3.5626,-3.5581,-3.5669,-3.5726,-3.5791,-3.5866,-3.5899,-3.5916,-3.5974,-3.5953,-3.5893,-3.5806,-3.5747,-3.545,-3.4591,-3.3713,-3.2854,-3.2053,-3.0571,-2.9303,-2.9001,-2.8349,-2.7547,0.0,0.0,0.0,0.0,0.0,0.0,0.0,0.0,0.0,0.0,-1.9766,0.0,0.0,-1.9313,0.0,0.0,0.0,0.0,-3.0913,-3.4333,-3.6913,-3.8574,-4.1992,-4.3708,-4.3724,-4.5477,-4.629,-4.63,-4.6292,-4.626,-4.627,-4.7123,-4.843,-5.0048,-5.0933,-5.1317,-5.131,-5.1316,-5.1308,-5.1398,-5.2191,-5.2533,-5.2825,0.0,0.0,0.0,0.0,0.0,0.0,0.0,1.474,0.8566,-0.078,-0.6315,-1.214,-1.9381,-2.4149,-2.7736,-2.9987,-2.9218,-2.8424,-2.792,-2.7749,-2.7302,-2.6674,-2.6086,-2.5175,-2.3865,-2.2773,-2.1311,0.0,0.0,-1.6896,-1.5361,-1.4713,-1.4574,0.0,0.0,-1.6952,-1.8962,-2.2316,-2.4977,-2.7246,-3.074,-3.2867,-3.4019,-3.4708,-3.525,-3.565,-3.5708,-3.5715,-3.5732,-3.5799,-3.5779,-3.5718,-3.5795,-3.5833,-3.588,-3.5935,-3.5964,-3.5957,-3.5933,-3.591,-3.589,-3.5852,-3.5799,-3.5638,-3.5262,-3.4487,-3.3616,-3.2734,-3.1226,-2.9883,-2.9332,-2.8984,-2.8481,-2.7663,0.0,0.0,0.0,0.0,0.0,0.0,0.0,0.0,0.0,0.0,0.0,0.0,0.0,0.0,0.0,0.0,0.0,-3.08,0.0,-3.6834,-3.8572,-4.1988,-4.3704,-4.3718,-4.547,-4.63,-4.6292,-4.626,-4.6791,-4.7813,-4.8685,-4.9731,-5.0855,-5.116,-5.1296,-5.1289,-5.1292,-5.1304,-5.1393,-5.2222,-5.2874,-5.3497,3.185,0.0,3.2724,0.0,3.0257,2.6023,1.6303,0.9548,0.0465,-1.3693,-1.8242,-2.0798,-2.2444,-2.6803,-2.9116,-2.8045,-2.73,-2.6828,-2.6676,-2.6552,-2.6319,-2.5996,-2.5454,0.0,-2.3553,-2.278,-2.1579,-2.0007,-1.8895,0.0,-1.6801,-1.6099,-1.6051,0.0,-1.7377,-1.8887,-2.1002,-2.4176,-2.6804,-2.9096,-3.2299,-3.4008,-3.4722,-3.5403,-3.5735,-3.5827,-3.5827,-3.5819,-3.5836,-3.588,-3.5885,-3.5858,-3.5894,-3.5903,-3.5932,-3.5951,-3.5976,-3.5964,-3.5903,-3.586,-3.5827,-3.5776,-3.5717,-3.5658,-3.5607,-3.4936,-3.3975,-3.2852,-3.1482,-3.0306,-2.9659,-2.9573,-2.9313,-2.8492,0.0,0.0,0.0,0.0,0.0,0.0,-2.4534,-2.3884,-2.2671,-2.2326,0.0,0.0,0.0,0.0,0.0,0.0,0.0,0.0,0.0,0.0,-3.8586,-4.1982,-4.3696,-4.3726,-4.5457,-4.6264,-4.6275,-4.6493,-4.7528,-4.9191,-4.9795,-5.0521,-5.1265,-5.1265,-5.1265,-5.1276,-5.1267,-5.1433,-5.1745,-5.2592,-5.3418,-5.4263,3.1939,3.1943,3.1383,2.9456,2.763,2.1095,0.5232,0.0242,-0.7054,-2.1976,-2.4065,-2.5204,-2.8023,-2.7379,-2.6511,-2.5881,-2.5346,-2.5087,-2.5312,-2.5312,-2.5382,0.0,0.0,-2.4536,-2.4018,-2.2742,-2.156,-2.0505,0.0,0.0,-1.7472,0.0,-1.7683,-1.8044,-1.9709,-2.0813,-2.1719,-2.539,-2.7989,-2.9826,-3.2667,-3.4547,-3.5691,-3.5779,-3.5835,-3.5893,-3.5893,-3.5899,-3.5908,-3.5891,-3.5935,-3.5996,-3.5923,-3.5947,-3.5995,-3.5916,-3.5899,-3.5899,-3.5903,-3.5791,-3.5697,-3.5698,-3.5648,-3.5601,-3.5601,-3.494,-3.3805,-3.2066,-3.1075,-3.0479,-3.0398,-3.0439,-3.019,-2.9322,0.0,0.0,0.0,0.0,0.0,0.0,-2.4832,-2.4311,-2.4365,-2.3592,0.0,0.0,0.0,0.0,0.0,0.0,0.0,-3.1987,-3.4624,0.0,-3.858,-4.1989,-4.3697,-4.3728,-4.5392,-4.6201,-4.6222,-4.7086,-4.8409,-4.9982,-5.0002,-5.046,-5.1191,-5.1191,-5.1191,-5.1191,-5.1211,-5.1736,-5.2592,-5.3455,-5.43,-5.5116,3.4835,3.391,3.2703,3.0577,2.8112,2.3232,1.3685,0.5214,-0.4572,-1.7019,-2.0929,-2.2687,-2.2994,-2.3758,-2.416,0.0,-2.3852,-2.3875,0.0,-2.4093,-2.425,-2.4467,-2.3908,-2.363,-2.3594,-2.2523,-2.1661,-2.1046,0.0,0.0,0.0,-1.9368,-2.0009,-2.0898,-2.2113,-2.3443,-2.5098,-2.8049,-3.0143,-3.1632,-3.3913,-3.521,-3.5776,-3.5833,-3.5877,-3.5898,-3.5898,-3.5898,-3.5896,-3.5909,-3.5901,-3.5932,-3.5916,-3.5918,-3.594,-3.5916,-3.588,-3.5827,-3.5784,-3.5688,-3.562,-3.5585,-3.5553,-3.5528,-3.5463,-3.4782,-3.3851,-3.2685,-3.1808,-3.1052,-3.0456,-3.0402,-3.0348,-3.0062,-3.0034,0.0,0.0,0.0,0.0,0.0,-2.5698,-2.4963,-2.4399,-2.4611,0.0,0.0,0.0,0.0,0.0,0.0,0.0,0.0,-3.5165,0.0,-3.8518,-4.1968,-4.37,-4.3714,-4.5409,-4.6488,-4.7053,-4.7929,-4.8933,-5.0033,-5.0578,-5.0967,-5.1211,-5.1211,-5.1211,-5.1211,-5.119,-5.1725,-5.26,-5.3421,-5.4232,-5.5061,3.5827,3.3769,3.13,2.7954,2.5525,2.1762,1.4847,0.5563,-0.3996,-1.3374,-1.7705,-1.9885,-1.9825,-2.0797,0.0,-2.2113,-2.2456,-2.2628,-2.2756,-2.2916,-2.315,-2.3446,-2.3156,-2.2983,-2.3089,-2.2467,0.0,-2.1445,-2.0778,-2.043,-2.041,-2.0965,-2.1807,-2.2908,-2.4192,-2.5728,-2.7492,-2.9896,-3.1649,-3.2906,-3.4475,-3.535,-3.5694,-3.578,-3.5836,-3.5857,-3.5857,-3.5857,-3.5853,-3.5866,-3.5869,-3.5858,-3.5833,-3.5801,-3.5781,-3.5827,-3.5776,-3.5708,-3.565,-3.5566,-3.5514,-3.5464,-3.5449,-3.5412,-3.5364,-3.4717,-3.3839,-3.2976,-3.2166,-3.1335,-3.0452,-3.0336,-3.0359,-3.0364,-3.0386,-3.012,-2.9361,0.0,0.0,0.0,0.0,0.0,0.0,-2.6215,-2.6543,0.0,0.0,0.0,0.0,0.0,-3.1636,-3.347,-3.5923,-3.7771,-3.898,-4.2109,-4.3662,-4.3682,-4.5351,-4.6761,-4.7922,-4.8448,-4.9333,-5.0441,-5.0947,-5.1169,-5.1167,-5.1167,-5.1167,-5.1186,-5.1494,-5.2142,-5.3016,-5.3838,-5.4685,-5.5472,3.5021,3.1784,2.7644,0.0,2.0138,0.0,0.9404,0.1749,-0.531,-1.13,-1.4629,-1.7057,-1.829,-1.8531,-1.9073,-2.045,0.0,0.0,0.0,-2.1863,-2.2176,-2.2553,-2.2628,-2.2572,-2.249,-2.2518,-2.2254,-2.1708,-2.1401,-2.1377,-2.1713,-2.2437,-2.3203,-2.4165,-2.606,-2.7595,-2.8943,-3.0939,-3.2495,-3.367,-3.4444,-3.5051,-3.5492,-3.5631,-3.5732,-3.5794,-3.5794,-3.5794,-3.5787,-3.5779,-3.5782,-3.5765,-3.5698,-3.5637,-3.5588,-3.567,-3.5639,-3.557,-3.5495,-3.5443,-3.5398,-3.5379,-3.535,-3.53,-3.53,-3.4706,-3.3935,-3.3058,-3.2234,-3.141,-3.0529,-3.0337,-3.0304,-3.0304,-3.0352,-3.0117,-2.9396,-2.9283,-2.8994,0.0,0.0,0.0,-2.8097,-2.8202,-2.8274,0.0,0.0,0.0,0.0,0.0,-3.2606,-3.5807,-3.6801,-3.8127,-3.9875,-4.2357,-4.3666,-4.3794,-4.5363,-4.6999,-4.8691,-4.8691,-4.9575,-5.1093,-5.1093,-5.1095,-5.1101,-5.1101,-5.1139,-5.1256,-5.1992,-5.2865,-5.3795,-5.4595,-5.5428,-5.6184,0.0,0.0,2.4507,1.8903,1.3605,0.8115,0.2033,-0.3632,-0.8519,-1.2095,-1.3808,-1.5082,-1.6079,-1.6738,-1.7546,-1.8585,-1.9539,-2.0167,-2.0323,-2.0857,-2.1339,-2.1502,-2.1883,-2.2124,-2.2392,-2.2393,-2.2481,-2.2826,-2.2819,-2.317,-2.3701,-2.4209,-2.4888,-2.5788,-2.7285,-2.8605,-2.9805,-3.1268,-3.2474,-3.3506,-3.4259,-3.4813,-3.522,-3.5463,-3.5599,-3.565,-3.5708,-3.5689,-3.564,-3.5648,-3.5604,-3.5558,-3.5489,-3.5438,-3.5378,-3.5519,-3.5495,-3.5418,-3.5369,-3.535,-3.5308,-3.5207,-3.5193,-3.5231,-3.5231,-3.5076,-3.4706,-3.3884,-3.3077,-3.2264,-3.1383,-3.0701,-3.0299,-3.0304,-3.0316,-3.0283,-3.0136,-2.9599,-2.9157,0.0,-2.8375,-2.8014,-2.8023,-2.9237,-3.0017,0.0,0.0,0.0,-3.3563,-3.4256,-3.5014,-3.5872,-3.7332,-3.8948,-4.0699,-4.2619,-4.4217,-4.5444,-4.5823,-4.6909,-4.8541,-4.8541,-4.9491,-5.1108,-5.1108,-5.1095,-5.1101,-5.1101,-5.1469,-5.2031,-5.2177,-5.317,-5.4526,-5.4707,-5.5258,-5.5975,3.0733,2.6671,2.1803,1.5913,0.9875,0.4016,-0.1254,-0.5359,-0.8899,-1.1677,-1.3228,-1.4419,-1.5264,-1.5839,-1.6492,-1.7302,-1.8514,-1.932,-1.9627,-2.0255,-2.0722,-2.1041,-2.1349,-2.1807,-2.2402,-2.2444,-2.2871,-2.3555,-2.3831,-2.4318,-2.5042,-2.581,-2.6484,-2.7128,-2.8438,-2.9418,-3.0278,-3.1462,-3.2512,-3.3413,-3.4104,-3.4655,-3.5032,-3.5228,-3.5391,-3.5521,-3.5521,-3.5521,-3.5509,-3.5457,-3.5435,-3.5393,-3.5326,-3.5251,-3.5223,-3.5296,-3.5277,-3.5247,-3.5219,-3.5209,-3.5196,-3.5126,-3.5127,-3.5147,-3.5147,-3.5181,-3.4966,-3.4127,-3.3299,-3.2507,-3.1666,-3.0814,-3.0247,-3.0254,-3.0279,-3.0316,-3.0352,-2.999,-2.9743,-2.9745,-2.9718,-2.9699,-2.9699,-3.0936,-3.1739,-3.1729,-3.2986,0.0,-3.5001,-3.5873,-3.6541,-3.6981,-3.8263,-3.9779,-4.1489,-4.3229,-4.4724,-4.5944,-4.5944,-4.6853,-4.8503,-4.8503,-4.9439,-5.1053,-5.102,-5.101,-5.1014,-5.0979,-5.1463,-5.224,-5.2572,-5.3522,-5.474,-5.5128,-5.5517,-5.5904,2.857,2.4327,1.9367,1.3341,0.772,0.2506,-0.2153,-0.5275,-0.8105,-1.0738,-1.2717,-1.425,-1.5097,-1.5347,-1.5756,-1.6656,-1.7716,-1.8603,-1.9063,-1.9715,-2.0342,-2.0867,-2.1118,-2.1578,-2.2402,-2.2767,-2.3441,-2.4305,-2.4644,-2.5218,-2.609,-2.7069,-2.7783,-2.8228,-2.9427,-3.0238,-3.0767,-3.1915,-3.2887,-3.3676,-3.433,-3.4757,-3.504,-3.519,-3.5305,-3.5354,-3.5285,-3.53,-3.5335,-3.5277,-3.5245,-3.5229,-3.5157,-3.5108,-3.5057,-3.5057,-3.5056,-3.5053,-3.5053,-3.5054,-3.5057,-3.5057,-3.5075,-3.5075,-3.5075,-3.5147,-3.4954,-3.4247,-3.3443,-3.2634,-3.1813,-3.0963,-3.0341,-3.0226,-3.0254,-3.0292,-3.0292,0.0,-3.0425,-3.0579,-3.1237,-3.175,-3.1865,-3.2748,-3.3341,-3.3478,-3.4283,-3.5136,-3.6028,-3.6899,-3.7704,-3.8433,-3.9199,-4.047,-4.2274,-4.4017,-4.5227,-4.5905,-4.6009,-4.692,-4.8476,-4.8598,-4.9495,-5.0975,-5.0925,-5.0877,-5.0883,-5.0964,-5.1506,-5.2374,-5.3185,-5.3995,-5.4863,-5.5615,-5.5885,-5.5885,2.5545,2.1476,1.6822,1.1391,0.6413,0.1793,-0.2244,-0.5275,-0.7841,-0.9951,-1.1763,-1.3307,-1.4166,-1.4929,-1.5756,-1.6656,-1.6894,-1.7383,-1.8112,-1.9152,-2.002,-2.0644,-2.1195,-2.1731,-2.2402,-2.3706,-2.4755,-2.5636,-2.5749,-2.6324,-2.714,-2.7515,-2.8197,-2.9139,-3.0253,-3.1262,-3.2238,-3.3357,-3.4233,-3.5044,-3.5721,-3.5806,-3.5593,-3.5771,-3.5552,-3.5145,-3.507,-3.5107,-3.5145,-3.5073,-3.502,-3.4964,-3.4889,-3.4851,-3.485,-3.4849,-3.4849,-3.4849,-3.4851,-3.4888,-3.4926,-3.4926,-3.4965,-3.502,-3.502,-3.5075,-3.5091,-3.4939,-3.4268,-3.3446,-3.2588,-3.176,-3.1002,-3.0303,-3.0202,-3.0247,-3.0292,0.0,-3.0597,-3.1328,-3.1588,-3.1989,-3.274,-3.3612,-3.4415,-3.5148,-3.597,-3.68,-3.7681,-3.855,-3.909,-3.9239,-3.9472,-4.0749,-4.3164,-4.4858,-4.5776,-4.5906,-4.6582,-4.7424,-4.8361,-4.9029,-4.9881,-5.0827,-5.0827,-5.081,-5.0868,-5.1603,-5.2374,-5.3185,-5.3995,-5.4843,-5.5633,-5.5688,-5.5724,-5.5724,2.301,1.8824,1.435,0.9314,0.491,0.0987,-0.2424,-0.5275,-0.7757,-0.9772,-1.1165,-1.246,-1.3913,-1.4426,-1.509,-1.5922,-1.6409,-1.7057,-1.7959,-1.8904,-1.9854,-2.0809,-2.1492,-2.2327,-2.3224,-2.4215,-2.5087,-2.591,-2.6502,-2.7223,-2.8012,-2.8816,-2.9508,-3.0098,-3.1187,-3.1999,-3.2613,-3.3659,-3.4528,-3.5252,-3.5927,-3.6187,-3.6199,-3.6419,-3.6107,-3.559,-3.5552,-3.5287,-3.4927,-3.4869,-3.483,-3.4771,-3.4711,-3.467,-3.4628,-3.4645,-3.4727,-3.4809,-3.481,-3.481,-3.4848,-3.4848,-3.4907,-3.4946,-3.4946,-3.5002,-3.5057,-3.5057,-3.4407,-3.3718,-3.332,-3.2213,-3.1234,-3.0901,-3.0472,0.0,-3.0866,-3.0983,-3.1316,-3.216,-3.2679,-3.316,-3.3545,-3.4835,-3.5804,-3.6209,-3.7032,-3.7874,-3.8742,-3.9185,-3.9802,-4.0709,-4.126,-4.2305,-4.391,-4.5181,-4.5786,-4.581,-4.665,-4.7503,-4.8337,-4.9134,-4.9982,-5.0793,-5.0775,-5.0757,-5.0815,-5.1645,-5.2473,-5.3281,-5.4126,-5.4932,-5.5618,-5.5596,-5.5903,-5.6284,2.076,1.6429,1.2009,0.7573,0.3576,0.0179,-0.2513,-0.5275,-0.7757,-0.9772,-1.0738,-1.1946,-1.3568,-1.4004,-1.4426,-1.5347,-1.6409,-1.7383,-1.8273,-1.9301,-2.0323,-2.1262,-2.2101,-2.299,-2.4032,-2.4659,-2.5382,-2.6176,-2.7162,-2.8012,-2.8739,-2.9903,-3.0675,-3.1026,-3.206,-3.274,-3.3172,-3.4148,-3.4979,-3.5685,-3.6304,-3.6652,-3.683,-3.7038,-3.6747,-3.6152,-3.6004,-3.5539,-3.4956,-3.4722,-3.4623,-3.4623,-3.4561,-3.4517,-3.4473,-3.4473,-3.4602,-3.4708,-3.4727,-3.4747,-3.4768,-3.4768,-3.4827,-3.4868,-3.4868,-3.4907,-3.4946,-3.4964,-3.4489,-3.3992,-3.3838,-3.2754,-3.1838,-3.1699,0.0,-3.0987,-3.1666,-3.1828,-3.2182,-3.2982,-3.3853,-3.4457,-3.4649,-3.6128,-3.7137,-3.7343,-3.7973,-3.8733,-3.9615,-3.9673,-4.0444,-4.214,-4.3023,-4.379,-4.4392,-4.5256,-4.5796,-4.6008,-4.686,-4.7747,-4.8596,-4.9408,-5.014,-5.0757,-5.072,-5.0817,-5.1048,-5.1856,-5.266,-5.3503,-5.4326,-5.5013,-5.5504,-5.5504,-5.606,-5.6808,1.9045,1.4608,1.0294,0.6435,0.2598,-0.0539,-0.2604,-0.5275,-0.7757,-0.9772,-1.0738,-1.1688,-1.2705,-1.3568,-1.4426,-1.5347,-1.6976,-1.8273,-1.9143,-2.0712,-2.1797,-2.2252,-2.3075,-2.3875,-2.4636,-2.5382,-2.6176,-2.6905,-2.763,-2.8417,-2.9233,-3.0086,-3.097,-3.186,-3.287,-3.3822,-3.4714,-3.5562,-3.6446,-3.7272,-3.7751,-3.7744,-3.7448,-3.7738,-3.7378,-3.6664,-3.5979,-3.5689,-3.5506,-3.4693,-3.4409,-3.4427,-3.4427,-3.4427,-3.4404,-3.4404,-3.4427,-3.445,-3.4517,-3.458,-3.4623,-3.4687,-3.4768,-3.4809,-3.4809,-3.4809,-3.4829,-3.4887,-3.487,-3.4604,-3.3938,-3.3688,-3.338,-3.2621,0.0,0.0,-3.2511,-3.263,-3.3015,-3.3819,-3.4672,-3.5526,-3.6332,-3.7271,-3.8166,-3.8965,-3.908,-3.9496,-4.0369,-4.0427,-4.1216,-4.2967,-4.3859,-4.4334,-4.4392,-4.5256,-4.6105,-4.6899,-4.7713,-4.8563,-4.943,-5.024,-5.0645,-5.0702,-5.0702,-5.1106,-5.1875,-5.2679,-5.3522,-5.4386,-5.5125,-5.5446,-5.5504,-5.5504,-5.606,-5.6808,1.7123,1.319,0.9327,0.5455,0.2152,-0.0808,-0.3406,-0.563,-0.7584,-0.8911,-1.0396,-1.1688,-1.2619,-1.3568,-1.4671,-1.6079,-1.7302,-1.8825,-2.0712,-2.1939,-2.2767,-2.3287,-2.374,-2.4322,-2.5087,-2.5606,-2.6233,-2.6973,-2.7829,-2.861,-2.9498,-3.0404,-3.1248,-3.212,-3.314,-3.4002,-3.4721,-3.5688,-3.6498,-3.715,-3.7739,-3.8023,-3.8083,-3.8343,-3.8016,-3.7392,-3.7166,-3.641,-3.546,-3.5076,-3.4624,-3.4197,-3.4173,-3.4148,-3.4173,-3.4197,-3.4245,-3.4293,-3.434,-3.4409,-3.4495,-3.4561,-3.4623,-3.4687,-3.4727,-3.4768,-3.4809,-3.4829,-3.4849,-3.4755,-3.4472,-3.4017,-3.3599,-3.3314,0.0,-3.2716,-3.3263,-3.3408,-3.399,-3.5327,-3.5832,-3.6396,-3.7261,-3.8137,-3.8767,-3.9109,-3.9646,-4.0104,-4.0427,-4.1426,-4.2539,-4.3748,-4.4645,-4.5103,-4.5137,-4.5464,-4.608,-4.6947,-4.7757,-4.8586,-4.947,-5.0317,-5.0702,-5.0721,-5.1162,-5.1566,-5.193,-5.3286,-5.4009,-5.4345,-5.5131,-5.5427,-5.5498,-5.5995,-5.6722,-5.7545,1.5228,1.1837,0.8364,0.4563,0.1435,-0.1346,-0.3941,-0.5897,-0.7496,-0.8476,-1.0222,-1.1688,-1.2619,-1.3822,-1.5325,-1.7375,-1.8336,-1.9608,-2.1502,-2.2553,-2.3361,-2.3875,-2.4177,-2.4671,-2.5465,-2.5886,-2.6508,-2.7242,-2.8039,-2.8803,-2.9685,-3.0598,-3.1437,-3.2247,-3.3277,-3.4034,-3.4673,-3.5644,-3.6374,-3.6939,-3.7595,-3.8036,-3.835,-3.8603,-3.8442,-3.8061,-3.7887,-3.7081,-3.6081,-3.5795,-3.5306,-3.4844,-3.4818,-3.4607,-3.4404,-3.4456,-3.4321,-3.4148,-3.4197,-3.4245,-3.434,-3.445,-3.4495,-3.4539,-3.4602,-3.4666,-3.4708,-3.4747,-3.4747,-3.4768,-3.4788,-3.4356,-3.3979,-3.4037,-3.36,-3.3446,-3.4051,-3.4444,-3.5088,-3.6213,-3.6875,-3.7464,-3.8093,-3.8931,-3.9444,-3.9478,-4.0034,-4.0513,-4.0799,-4.239,-4.3579,-4.4173,-4.5035,-4.5629,-4.5954,-4.5991,-4.6432,-4.7298,-4.8105,-4.8952,-4.9817,-5.0413,-5.0663,-5.0721,-5.1448,-5.1926,-5.2288,-5.3679,-5.4379,-5.4618,-5.5192,-5.5543,-5.5842,-5.6396,-5.7313,-5.8364,1.3372,1.0467,0.7408,0.3588,0.0538,-0.2061,-0.403,-0.5897,-0.7496,-0.8476,-1.0222,-1.1688,-1.2619,-1.4321,-1.6476,-1.9054,-2.0089,-2.0799,-2.1205,-2.2617,-2.3666,-2.4189,-2.4515,-2.5087,-2.591,-2.6452,-2.7053,-2.7776,-2.8327,-2.9022,-2.9808,-3.0598,-3.1437,-3.2247,-3.3277,-3.4018,-3.4673,-3.5537,-3.6274,-3.6939,-3.7468,-3.788,-3.8135,-3.8396,-3.859,-3.8597,-3.786,-3.7653,-3.7581,-3.6786,-3.6509,-3.6509,-3.6509,-3.5955,-3.5301,-3.5283,-3.47,-3.3998,-3.3998,-3.4067,-3.4167,-3.434,-3.4386,-3.4386,-3.4386,-3.445,-3.4517,-3.4583,-3.4645,-3.4727,-3.4788,-3.4788,-3.4788,-3.4788,-3.4869,-3.4908,-3.4908,-3.5704,-3.631,-3.6329,-3.7795,-3.8842,-3.8899,-3.9681,-4.0215,-4.0289,-4.0307,-4.0727,-4.1662,-4.3291,-4.4211,-4.4211,-4.4978,-4.5822,-4.6704,-4.6839,-4.7317,-4.8125,-4.899,-4.9856,-5.0702,-5.0623,-5.0603,-5.0641,-5.1404,-5.2206,-5.3069,-5.3881,-5.47,-5.5383,-5.5409,-5.5899,-5.6587,-5.6606,-5.7676,-5.9109,1.2681,0.8978,0.5547,0.242,0.009,-0.2061,-0.403,-0.5897,-0.7669,-0.934,-1.1763,-1.3815,-1.5304,-1.5989,-1.7131,-1.9143,-2.0089,-2.1108,-2.2402,-2.315,-2.3824,-2.4418,-2.4743,-2.53,-2.6094,-2.6645,-2.7175,-2.7776,-2.843,-2.9184,-3.0007,-3.0658,-3.148,-3.2398,-3.3208,-3.3949,-3.4578,-3.5345,-3.6054,-3.6673,-3.7203,-3.7631,-3.7985,-3.8153,-3.8318,-3.846,-3.8253,-3.7796,-3.7332,-3.7064,-3.6607,-3.615,-3.6201,-3.6093,-3.5827,-3.5367,-3.5071,-3.4921,-3.4921,-3.4921,-3.4825,-3.437,-3.4293,-3.434,-3.4386,-3.4427,-3.445,-3.4473,-3.4473,-3.4495,-3.4517,-3.4602,-3.4666,-3.4666,-3.5239,-3.5679,-3.5679,-3.6479,-3.7298,-3.7925,-3.8479,-3.9051,-3.968,-3.9984,-4.0157,-4.0157,-4.073,-4.1456,-4.2354,-4.3444,-4.4344,-4.4937,-4.5245,-4.5801,-4.6624,-4.6704,-4.7472,-4.8873,-4.9142,-4.9717,-5.0563,-5.0542,-5.0521,-5.0598,-5.1951,-5.2694,-5.3039,-5.4459,-5.518,-5.5467,-5.6014,-5.6377,-5.674,-5.7925,-5.867,-5.9205,1.0149,0.6956,0.4212,0.1076,-0.1434,-0.3583,-0.5186,-0.7044,-0.8894,-1.0549,-1.2705,-1.4664,-1.6312,-1.6894,-1.7781,-1.9143,-2.0255,-2.1415,-2.2703,-2.3298,-2.3886,-2.4539,-2.5028,-2.5581,-2.6289,-2.6837,-2.7377,-2.7973,-2.8624,-2.9373,-3.019,-3.0792,-3.161,-3.2453,-3.3171,-3.3848,-3.4497,-3.5253,-3.5898,-3.6485,-3.7009,-3.7447,-3.7775,-3.7915,-3.8068,-3.8285,-3.8285,-3.8008,-3.7671,-3.7671,-3.7361,-3.696,-3.7004,-3.6815,-3.6527,-3.6098,-3.5789,-3.5579,-3.5579,-3.5634,-3.5542,-3.5114,-3.508,-3.5175,-3.5225,-3.525,-3.5274,-3.5299,-3.5323,-3.5347,-3.5394,-3.5464,-3.551,-3.551,-3.6032,-3.6437,-3.6437,-3.7244,-3.8048,-3.8558,-3.8965,-3.9406,-3.9958,-4.0036,-4.021,-4.0534,-4.1374,-4.2254,-4.3092,-4.3993,-4.472,-4.5256,-4.5623,-4.6218,-4.7059,-4.7465,-4.8177,-4.9215,-4.9561,-4.9982,-5.05,-5.0478,-5.0648,-5.1051,-5.2326,-5.3044,-5.3484,-5.483,-5.5403,-5.5479,-5.6282,-5.6797,-5.7275,-5.8612,-5.9319,-5.9682,0.6669,0.4835,0.2959,-0.0269,-0.3496,-0.6005,-0.6962,-0.8807,-1.0554,-1.1929,-1.3307,-1.4664,-1.5974,-1.7212,-1.8345,-1.9222,-2.0489,-2.1655,-2.2402,-2.3224,-2.3948,-2.4719,-2.5312,-2.5886,-2.6427,-2.6985,-2.7656,-2.8287,-2.883,-2.9526,-3.0312,-3.0984,-3.1682,-3.2398,-3.3171,-3.3797,-3.4349,-3.5224,-3.5854,-3.6343,-3.6856,-3.7261,-3.7577,-3.7685,-3.7845,-3.8068,-3.8068,-3.8219,-3.8368,-3.8368,-3.8368,-3.8368,-3.835,-3.7858,-3.7257,-3.7202,-3.6656,-3.6109,-3.6109,-3.6193,-3.6311,-3.6384,-3.6536,-3.6648,-3.6519,-3.6537,-3.6618,-3.6671,-3.6723,-3.6801,-3.6858,-3.6883,-3.6883,-3.6883,-3.7037,-3.7207,-3.7207,-3.7999,-3.8577,-3.8577,-3.9305,-3.9804,-3.9889,-4.003,-4.0433,-4.1216,-4.217,-4.3028,-4.377,-4.4671,-4.5192,-4.5192,-4.6037,-4.692,-4.7799,-4.8659,-4.9185,-4.9309,-5.0095,-5.0478,-5.0478,-5.0435,-5.0868,-5.1733,-5.2466,-5.3282,-5.418,-5.504,-5.5403,-5.5498,-5.6358,-5.7199,-5.8001,-5.8899,-5.972,-6.0389,0.7004,0.3746,0.0806,-0.1522,-0.3669,-0.5722,-0.7394,-0.9235,-1.0982,-1.2363,-1.3639,-1.4908,-1.6154,-1.7049,-1.8014,-1.9222,-2.0867,-2.2252,-2.3075,-2.3677,-2.4322,-2.4933,-2.5535,-2.6107,-2.6645,-2.7188,-2.7723,-2.8287,-2.8931,-2.956,-3.019,-3.0925,-3.1625,-3.2302,-3.3011,-3.3694,-3.4349,-3.493,-3.5532,-3.6088,-3.6533,-3.6895,-3.7223,-3.754,-3.7685,-3.781,-3.7916,-3.7951,-3.8003,-3.8003,-3.8003,-3.802,-3.807,-3.7977,-3.7739,-3.7271,-3.6994,-3.6867,-3.6929,-3.6973,-3.715,-3.7771,-3.7966,-3.7747,-3.6731,-3.6509,-3.6537,-3.6537,-3.6564,-3.6564,-3.6572,-3.6652,-3.6749,-3.6749,-3.7399,-3.7885,-3.7885,-3.8683,-3.9288,-3.9288,-3.9552,-3.9712,-3.9735,-4.0428,-4.0927,-4.1139,-4.2633,-4.3627,-4.3798,-4.4646,-4.5148,-4.5192,-4.6053,-4.6934,-4.7799,-4.8659,-4.9427,-5.0061,-5.0252,-5.0348,-5.0348,-5.0325,-5.0803,-5.1682,-5.2461,-5.3282,-5.418,-5.504,-5.5403,-5.5556,-5.7046,-5.7734,-5.8077,-5.9568,-6.0236,-6.0389,0.6848,0.3479,0.0448,-0.1522,-0.3757,-0.5811,-0.7214,-0.8965,-1.0712,-1.2272,-1.3633,-1.4977,-1.6312,-1.7286,-1.8487,-2.0089,-2.1482,-2.2553,-2.3224,-2.397,-2.455,-2.5087,-2.5606,-2.6188,-2.6807,-2.7268,-2.7789,-2.843,-2.8994,-2.9623,-3.019,-3.0851,-3.1509,-3.215,-3.285,-3.3539,-3.4151,-3.4804,-3.5396,-3.5915,-3.6301,-3.6713,-3.7069,-3.7241,-3.7429,-3.7559,-3.7703,-3.7828,-3.7899,-3.7899,-3.7899,-3.7899,-3.7951,-3.7933,-3.7895,-3.7548,-3.7473,-3.7473,-3.7522,-3.7588,-3.7725,-3.8143,-3.8318,-3.8245,-3.7558,-3.7404,-3.7434,-3.7529,-3.7558,-3.7587,-3.7626,-3.7711,-3.7766,-3.7766,-3.8182,-3.8542,-3.8577,-3.9037,-3.9395,-3.9439,-3.9545,-3.9642,-3.9689,-4.0528,-4.1213,-4.159,-4.2915,-4.3872,-4.4251,-4.4763,-4.527,-4.5712,-4.6599,-4.7503,-4.8365,-4.9228,-4.9882,-5.0302,-5.0302,-5.0302,-5.0302,-5.0302,-5.099,-5.2193,-5.2614,-5.3531,-5.4753,-5.5212,-5.5403,-5.5575,-5.7256,-5.7905,-5.8096,-5.9778,-6.0389,-6.0389,0.5985,0.3218,0.0537,-0.1341,-0.3935,-0.608,-0.7126,-0.8703,-1.0448,-1.2174,-1.3711,-1.5137,-1.6617,-1.7836,-1.9344,-2.1018,-2.1983,-2.2703,-2.3298,-2.4043,-2.4766,-2.5312,-2.5688,-2.6258,-2.6943,-2.7335,-2.7855,-2.8587,-2.9071,-2.9623,-3.0266,-3.0792,-3.1321,-3.1981,-3.2672,-3.3298,-3.3899,-3.4707,-3.5258,-3.5739,-3.6088,-3.6509,-3.6891,-3.6987,-3.7126,-3.7354,-3.7503,-3.7667,-3.7793,-3.7793,-3.7793,-3.7793,-3.7793,-3.7793,-3.7793,-3.7828,-3.7828,-3.7864,-3.7864,-3.7967,-3.8086,-3.8086,-3.8186,-3.8318,-3.8318,-3.8368,-3.8465,-3.8627,-3.8658,-3.8689,-3.8773,-3.8833,-3.8881,-3.8881,-3.8921,-3.9007,-3.9045,-3.9129,-3.9229,-3.9346,-3.9439,-3.9602,-3.9849,-4.0664,-4.1518,-4.2329,-4.3271,-4.4071,-4.4758,-4.4914,-4.5385,-4.6263,-4.7177,-4.8105,-4.9005,-4.9854,-5.0278,-5.0302,-5.0302,-5.0302,-5.0302,-5.0455,-5.1353,-5.2805,-5.2957,-5.3932,-5.5403,-5.5403,-5.5403,-5.5575,-5.7256,-5.7905,-5.8096,-5.9778,-6.0389,-6.0389,0.4018,0.1787,-0.0447,-0.2324,-0.4372,-0.6239,-0.7826,-0.9579,-1.1316,-1.276,-1.4287,-1.5726,-1.687,-1.8718,-2.0246,-2.112,-2.2105,-2.2927,-2.3519,-2.4116,-2.4766,-2.5312,-2.5688,-2.6258,-2.6943,-2.7335,-2.7855,-2.8587,-2.9071,-2.9574,-3.0172,-3.0747,-3.1263,-3.1796,-3.2477,-3.314,-3.3745,-3.4349,-3.4899,-3.5429,-3.5844,-3.6174,-3.6426,-3.6851,-3.7009,-3.7105,-3.7259,-3.7372,-3.7372,-3.7372,-3.7372,-3.7372,-3.7372,-3.7372,-3.7372,-3.7429,-3.754,-3.7649,-3.7721,-3.7828,-3.7934,-3.7934,-3.7969,-3.7969,-3.7969,-3.8204,-3.8415,-3.8415,-3.8433,-3.8465,-3.8446,-3.8609,-3.8738,-3.8738,-3.8822,-3.8939,-3.8921,-3.9017,-3.9129,-3.9129,-3.9301,-3.9731,-4.0502,-4.1342,-4.2239,-4.3182,-4.4044,-4.4606,-4.4796,-4.484,-4.5268,-4.6263,-4.7105,-4.799,-4.9005,-4.9806,-5.0236,-5.0302,-5.0302,-5.0302,-5.034,-5.1085,-5.1926,-5.2843,-5.3588,-5.4486,-5.5403,-5.5403,-5.5403,-5.5575,-5.7256,-5.7905,-5.8096,-5.9778,-6.0389,-6.0389,0.2771,0.0626,-0.152,-0.4024,-0.5447,-0.6946,-0.8703,-1.0366,-1.1923,-1.3451,-1.4655,-1.5863,-1.691,-1.8674,-2.0098,-2.1135,-2.1965,-2.278,-2.3582,-2.4273,-2.4849,-2.5312,-2.5688,-2.6258,-2.6943,-2.7335,-2.7789,-2.843,-2.8944,-2.9526,-3.0111,-3.0568,-3.1087,-3.161,-3.2367,-3.3033,-3.3658,-3.425,-3.4804,-3.5337,-3.5639,-3.6002,-3.6343,-3.6509,-3.669,-3.6846,-3.6987,-3.7066,-3.7143,-3.7143,-3.7143,-3.7143,-3.7143,-3.7182,-3.7185,-3.7223,-3.7317,-3.7447,-3.7466,-3.754,-3.7631,-3.7703,-3.7775,-3.781,-3.7864,-3.802,-3.8138,-3.8219,-3.8234,-3.8285,-3.8382,-3.8465,-3.8546,-3.8546,-3.859,-3.8652,-3.8762,-3.8851,-3.8921,-3.9073,-3.9602,-4.0159,-4.0603,-4.1855,-4.2827,-4.3275,-4.4127,-4.4659,-4.4685,-4.5217,-4.5937,-4.6847,-4.7758,-4.8663,-4.955,-4.9992,-5.0212,-5.0236,-5.0278,-5.0302,-5.034,-5.12,-5.204,-5.2843,-5.3722,-5.46,-5.5403,-5.5403,-5.5403,-5.5575,-5.7256,-5.8459,-5.9376,-6.0122,-6.0389,-6.0389]},{"header":{"parameterUnit":"m.s-1","parameterCategory":1,"la1":30.6,"la2":28.766,"lo1":-90.7593,"lo2":-88.6598,"dy":0.0162,"dx":0.0183,"nx":116,"ny":114,"refTime":"2023-06-16T12:00:00:Z","depth":0,"parameterNumber":3,"parameterNumberName":"V-component_of_WINDS"},"data":[0.0,0.0,0.0,0.0,0.0,0.0,0.0,0.0,0.0,0.0,0.0,0.0,0.0,0.0,0.0,0.0,0.0,0.0,0.0,0.0,0.0,0.0,0.0,0.0,0.0,0.0,0.0,0.0,0.0,0.0,0.0,0.0,0.0,0.0,0.0,0.0,0.0,0.0,0.0,0.0,0.0,0.0,0.0,0.0,0.0,0.0,0.0,0.0,0.0,0.0,0.0,0.0,0.0,0.0,0.0,0.0,0.0,0.0,0.0,0.0,0.0,0.0,0.0,0.0,0.0,0.0,0.0,0.0,0.0,0.0,0.0,0.0,0.0,0.0,0.0,0.0,0.0,0.0,0.0,0.0,0.0,0.0,0.0,0.0,0.0,0.0,0.0,0.0,0.0,0.0,0.0,0.0,0.0,0.0,0.0,0.0,0.0,0.0,0.0,0.0,0.0,0.0,0.0,0.0,0.0,0.0,0.0,0.0,0.0,0.0,0.0,0.0,0.0,0.0,0.0,0.0,0.0,0.0,0.0,0.0,0.0,0.0,0.0,0.0,0.0,0.0,0.0,0.0,0.0,0.0,0.0,0.0,0.0,0.0,0.0,0.0,0.0,0.0,0.0,0.0,0.0,0.0,0.0,0.0,0.0,0.0,0.0,0.0,0.0,0.0,0.0,0.0,0.0,0.0,0.0,0.0,0.0,0.0,0.0,0.0,0.0,0.0,0.0,0.0,0.0,0.0,0.0,0.0,0.0,0.0,0.0,0.0,0.0,0.0,0.0,0.0,0.0,0.0,0.0,0.0,0.0,0.0,0.0,0.0,0.0,0.0,0.0,0.0,0.0,0.0,0.0,0.0,0.0,0.0,0.0,0.0,0.0,0.0,0.0,0.0,0.0,0.0,0.0,0.0,0.0,0.0,0.0,0.0,0.0,0.0,0.0,0.0,0.0,0.0,0.0,0.0,0.0,0.0,0.0,0.0,0.0,0.0,0.0,0.0,0.0,0.0,0.0,0.0,0.0,0.0,0.0,0.0,0.0,0.0,0.0,0.0,0.0,0.0,0.0,0.0,0.0,0.0,0.0,0.0,0.0,0.0,0.0,0.0,0.0,0.0,0.0,0.0,0.0,0.0,0.0,0.0,0.0,0.0,0.0,0.0,0.0,0.0,0.0,0.0,0.0,0.0,0.0,0.0,0.0,0.0,0.0,0.0,0.0,0.0,0.0,0.0,0.0,0.0,0.0,0.0,0.0,0.0,0.0,0.0,0.0,0.0,0.0,0.0,0.0,0.0,0.0,0.0,0.0,0.0,0.0,0.0,0.0,0.0,0.0,0.0,0.0,0.0,0.0,0.0,0.0,0.0,0.0,0.0,0.0,0.0,0.0,0.0,0.0,0.0,0.0,0.0,0.0,0.0,0.0,0.0,0.0,0.0,0.0,0.0,0.0,0.0,0.0,0.0,0.0,0.0,0.0,0.0,0.0,0.0,0.0,0.0,0.0,0.0,0.0,0.0,0.0,0.0,0.0,0.0,0.0,0.0,0.0,0.0,0.0,0.0,0.0,0.0,0.0,0.0,0.0,0.0,0.0,0.0,0.0,0.0,0.0,0.0,0.0,0.0,0.0,0.0,0.0,0.0,0.0,0.0,0.0,0.0,0.0,0.0,0.0,0.0,0.0,0.0,0.0,0.0,0.0,0.0,0.0,0.0,0.0,0.0,0.0,0.0,0.0,0.0,0.0,0.0,0.0,0.0,0.0,0.0,0.0,0.0,0.0,0.0,0.0,0.0,0.0,0.0,0.0,0.0,0.0,0.0,0.0,0.0,0.0,0.0,0.0,0.0,0.0,0.0,0.0,0.0,0.0,0.0,0.0,0.0,0.0,0.0,0.0,0.0,0.0,0.0,0.0,0.0,0.0,0.0,0.0,0.0,0.0,0.0,0.0,0.0,0.0,0.0,0.0,0.0,0.0,0.0,0.0,0.0,0.0,0.0,0.0,0.0,0.0,0.0,0.0,0.0,0.0,0.0,0.0,0.0,0.0,0.0,0.0,0.0,0.0,0.0,0.0,0.0,0.0,0.0,0.0,0.0,0.0,0.0,0.0,0.0,0.0,0.0,0.0,0.0,0.0,0.0,0.0,0.0,0.0,0.0,0.0,0.0,0.0,0.0,0.0,0.0,0.0,0.0,0.0,0.0,0.0,0.0,0.0,0.0,0.0,0.0,0.0,0.0,0.0,0.0,0.0,0.0,0.0,0.0,0.0,0.0,0.0,0.0,0.0,0.0,0.0,0.0,0.0,0.0,0.0,0.0,0.0,0.0,0.0,0.0,0.0,0.0,0.0,0.0,0.0,0.0,0.0,0.0,0.0,0.0,0.0,0.0,0.0,0.0,0.0,0.0,0.0,0.0,0.0,0.0,0.0,0.0,0.0,0.0,0.0,0.0,0.0,0.0,0.0,0.0,0.0,0.0,0.0,0.0,0.0,0.0,0.0,0.0,0.0,0.0,0.0,0.0,0.0,0.0,0.0,0.0,0.0,0.0,0.0,0.0,0.0,0.0,0.0,0.0,0.0,0.0,0.0,0.0,0.0,0.0,0.0,0.0,0.0,0.0,0.0,0.0,0.0,0.0,0.0,0.0,0.0,0.0,0.0,0.0,0.0,0.0,0.0,0.0,0.0,0.0,0.0,0.0,0.0,0.0,0.0,0.0,0.0,0.0,0.0,0.0,0.0,0.0,0.0,0.0,0.0,0.0,0.0,0.0,0.0,0.0,0.0,0.0,0.0,0.0,0.0,0.0,0.0,0.0,0.0,0.0,0.0,0.0,0.0,0.0,0.0,0.0,0.0,0.0,0.0,0.0,0.0,0.0,0.0,0.0,0.0,0.0,0.0,0.0,0.0,0.0,0.0,0.0,0.0,0.0,0.0,0.0,0.0,0.0,0.0,0.0,0.0,0.0,0.0,0.0,0.0,0.0,0.0,0.0,0.0,0.0,0.0,0.0,0.0,0.0,0.0,0.0,0.0,0.0,0.0,0.0,0.0,0.0,0.0,0.0,0.0,0.0,0.0,0.0,0.0,0.0,0.0,0.0,0.0,0.0,0.0,0.0,0.0,0.0,0.0,0.0,0.0,0.0,0.0,0.0,0.0,0.0,0.0,0.0,0.0,0.0,0.0,0.0,0.0,0.0,0.0,0.0,0.0,0.0,0.0,0.0,0.0,0.0,0.0,0.0,0.0,0.0,0.0,0.0,0.0,0.0,0.0,0.0,0.0,0.0,0.0,0.0,0.0,0.0,0.0,0.0,0.0,0.0,0.0,0.0,0.0,0.0,0.0,0.0,0.0,0.0,0.0,0.0,0.0,0.0,0.0,0.0,0.0,0.0,0.0,0.0,0.0,0.0,0.0,0.0,0.0,0.0,0.0,0.0,0.0,0.0,0.0,0.0,0.0,0.0,0.0,0.0,0.0,0.0,0.0,0.0,0.0,0.0,0.0,0.0,0.0,0.0,0.0,0.0,0.0,0.0,0.0,0.0,0.0,0.0,0.0,0.0,0.0,0.0,0.0,0.0,0.0,0.0,0.0,0.0,0.0,0.0,0.0,0.0,0.0,0.0,0.0,0.0,0.0,0.0,0.0,0.0,0.0,0.0,0.0,0.0,0.0,0.0,0.0,0.0,0.0,0.0,0.0,0.0,0.0,0.0,0.0,0.0,0.0,0.0,0.0,0.0,0.0,0.0,0.0,0.0,0.0,0.0,0.0,0.0,0.0,0.0,0.0,0.0,0.0,0.0,0.0,0.0,0.0,0.0,0.0,0.0,0.0,0.0,0.0,0.0,0.0,0.0,0.0,0.0,0.0,0.0,0.0,0.0,0.0,0.0,0.0,0.0,0.0,0.0,0.0,0.0,0.0,0.0,0.0,0.0,0.0,0.0,0.0,0.0,0.0,0.0,0.0,0.0,0.0,0.0,0.0,0.0,0.0,0.0,0.0,0.0,0.0,0.0,0.0,0.0,0.0,0.0,0.0,0.0,0.0,0.0,0.0,0.0,0.0,0.0,0.0,0.0,0.0,0.0,0.0,0.0,0.0,0.0,0.0,0.0,0.0,0.0,0.0,0.0,0.0,0.0,0.0,0.0,0.0,0.0,0.0,0.0,0.0,0.0,0.0,0.0,0.0,0.0,0.0,0.0,0.0,0.0,0.0,0.0,0.0,0.0,0.0,0.0,0.0,0.0,0.0,0.0,0.0,0.0,0.0,0.0,0.0,0.0,0.0,0.0,0.0,0.0,0.0,0.0,0.0,0.0,0.0,0.0,0.0,0.0,0.0,0.0,0.0,0.0,0.0,0.0,0.0,0.0,0.0,0.0,0.0,0.0,0.0,0.0,0.0,0.0,0.0,0.0,0.0,0.0,0.0,0.0,0.0,0.0,0.0,0.0,0.0,0.0,0.0,0.0,0.0,0.0,0.0,0.0,0.0,0.0,0.0,0.0,0.0,0.0,0.0,0.0,0.0,0.0,0.0,0.0,0.0,0.0,0.0,0.0,0.0,0.0,0.0,0.0,0.0,0.0,0.0,0.0,0.0,0.0,0.0,0.0,0.0,0.0,0.0,0.0,0.0,0.0,0.0,0.0,0.0,0.0,0.0,0.0,0.0,0.0,0.0,0.0,0.0,0.0,0.0,0.0,0.0,0.0,0.0,0.0,0.0,0.0,0.0,0.0,0.0,0.0,0.0,0.0,0.0,0.0,0.0,0.0,0.0,0.0,0.0,0.0,0.0,0.0,0.0,0.0,0.0,0.0,0.0,0.0,0.0,0.0,0.0,0.0,0.0,0.0,0.0,0.0,0.0,0.0,0.0,0.0,0.0,0.0,0.0,0.0,0.0,0.0,0.0,0.0,0.0,0.0,0.0,0.0,0.0,0.0,0.0,0.0,0.0,0.0,0.0,0.0,0.0,0.0,0.0,0.0,0.0,0.0,0.0,0.0,0.0,0.0,0.0,0.0,0.0,0.0,0.0,0.0,0.0,0.0,0.0,0.0,0.0,0.0,0.0,0.0,0.0,0.0,0.0,0.0,0.0,0.0,0.0,0.0,0.0,0.0,0.0,0.0,0.0,0.0,0.0,0.0,0.0,0.0,0.0,0.0,0.0,0.0,0.0,0.0,0.0,0.0,0.0,0.0,0.0,0.0,0.0,0.0,0.0,0.0,0.0,0.0,0.0,0.0,0.0,0.0,0.0,0.0,0.0,0.0,0.0,0.0,0.0,0.0,0.0,0.0,0.0,0.0,0.0,0.0,0.0,0.0,0.0,0.0,0.0,0.0,0.0,0.0,0.0,0.0,0.0,0.0,0.0,0.0,0.0,0.0,0.0,0.0,0.0,0.0,0.0,0.0,0.0,0.0,0.0,0.0,0.0,0.0,0.0,0.0,0.0,0.0,0.0,0.0,0.0,0.0,0.0,0.0,0.0,0.0,0.0,0.0,0.0,0.0,0.0,0.0,0.0,0.0,0.0,0.0,0.0,0.0,0.0,0.0,0.0,0.0,0.0,0.0,0.0,0.0,0.0,0.0,0.0,0.0,0.0,0.0,0.0,0.0,0.0,0.0,0.0,0.0,0.0,0.0,0.0,0.0,0.0,0.0,0.0,0.0,0.0,0.0,0.0,0.0,0.0,0.0,0.0,0.0,0.0,0.0,0.0,0.0,0.0,0.0,0.0,0.0,0.0,0.0,0.0,0.0,0.0,0.0,0.0,0.0,0.0,0.0,0.0,0.0,0.0,0.0,0.0,0.0,0.0,0.0,0.0,0.0,0.0,0.0,0.0,0.0,0.0,0.0,0.0,0.0,0.0,0.0,0.0,0.0,0.0,0.0,0.0,0.0,0.0,0.0,0.0,0.0,0.0,0.0,0.0,0.0,0.0,0.0,0.0,0.0,0.0,0.0,0.0,0.0,0.0,0.0,0.0,0.0,0.0,0.0,0.0,0.0,0.0,0.0,0.0,0.0,0.0,0.0,0.0,0.0,0.0,0.0,0.0,0.0,0.0,0.0,0.0,0.0,0.0,0.0,0.0,0.0,0.0,0.0,0.0,0.0,0.0,0.0,0.0,0.0,0.0,0.0,2.4867,0.0,0.0,0.0,0.0,0.0,0.0,0.0,0.0,0.0,0.0,0.0,0.0,0.0,0.0,0.0,0.0,0.0,0.0,0.0,0.0,0.0,0.0,0.0,0.0,0.0,0.0,0.0,0.0,0.0,0.0,0.0,0.0,0.0,0.0,0.0,0.0,0.0,0.0,0.0,1.0944,1.2175,1.4124,1.3754,1.3223,1.2602,0.0,0.0,0.0,0.0,0.0,0.0,0.0,0.0,0.0,0.0,0.0,0.0,0.0,0.0,0.0,0.0,0.0,0.0,0.0,0.0,0.0,0.0,0.0,0.0,0.0,0.0,0.0,0.0,0.0,0.0,0.0,0.0,0.0,0.0,0.0,0.0,0.0,0.0,0.0,0.0,0.0,0.0,0.0,0.0,0.0,0.0,0.0,0.0,0.0,0.0,0.0,0.0,0.0,0.0,0.0,0.0,0.0,0.0,0.0,0.0,0.0,0.0,0.0,0.0,0.0,0.0,0.0,0.0,0.0,0.0,0.0,2.6896,0.0,0.0,0.0,0.0,0.0,0.0,0.0,0.0,0.0,0.0,0.0,0.0,0.0,0.0,0.0,0.0,0.0,0.0,0.0,0.0,0.0,0.0,0.0,0.0,0.0,0.0,0.0,0.0,0.0,0.0,0.0,0.0,0.0,0.0,0.0,0.0,0.0,0.0,1.3458,1.4865,1.6898,1.8676,1.8105,1.5545,1.4995,0.0,0.0,0.0,0.0,0.0,0.0,0.0,0.0,0.0,0.0,0.0,0.0,0.0,0.0,0.0,0.0,0.0,0.0,0.0,0.0,0.0,0.0,0.0,0.0,0.0,0.0,0.0,0.0,0.0,0.0,0.0,0.0,0.0,0.0,0.0,0.0,0.0,0.0,0.0,0.0,0.0,0.0,0.0,0.0,0.0,0.0,0.0,0.0,0.0,0.0,0.0,0.0,0.0,0.0,0.0,0.0,0.0,0.0,0.0,0.0,0.0,0.0,0.0,3.527,3.5984,3.6665,3.7471,3.7764,3.7441,3.4068,3.1705,3.0183,2.8533,0.0,0.0,0.0,0.0,0.0,0.0,0.0,0.0,0.0,0.0,0.0,0.0,0.0,0.0,0.0,0.0,0.0,0.0,0.0,0.0,0.0,0.0,0.0,0.0,0.0,0.0,0.0,0.0,0.0,0.0,0.0,0.0,0.0,1.1293,1.2781,1.4384,1.7841,1.9778,2.0301,2.25,2.3077,2.2125,1.9377,1.7718,1.6931,0.0,0.0,0.0,0.0,0.0,0.0,0.0,0.0,0.0,0.0,0.0,0.0,0.0,0.0,0.0,0.0,0.0,0.0,0.0,0.0,0.0,0.0,0.0,0.0,0.0,0.0,0.0,0.0,0.0,0.0,0.0,0.0,0.0,0.0,0.0,0.0,0.0,0.0,0.0,0.0,0.0,2.0266,2.1189,0.0,0.0,0.0,0.0,0.0,0.0,0.0,0.0,0.0,0.0,0.0,0.0,0.0,3.3904,3.4168,3.6193,3.7699,3.8683,3.9388,4.0076,4.0754,4.1627,4.1878,4.1686,4.1088,0.0,3.4263,3.3256,0.0,0.0,0.0,0.0,0.0,0.0,0.0,0.0,0.0,0.0,0.0,0.0,0.0,0.0,0.0,0.0,0.0,0.0,0.0,0.0,0.0,0.0,0.0,0.0,0.0,0.0,0.0,0.0,0.0,0.0,0.0,0.0,1.1902,1.3036,1.507,1.8014,2.1616,2.3393,2.3545,2.5569,2.6365,2.6093,2.4818,2.2815,2.0371,1.965,0.0,0.0,0.0,0.0,0.0,0.0,0.0,0.0,0.0,0.0,0.0,0.0,0.0,0.0,0.0,0.0,0.0,0.0,0.0,0.0,0.0,0.0,0.0,0.0,0.0,0.0,0.0,0.0,0.0,0.0,0.0,0.0,0.0,0.0,0.0,0.0,0.0,0.0,0.0,2.1399,2.3218,2.4502,2.4622,2.4932,0.0,0.0,0.0,0.0,0.0,0.0,0.0,0.0,0.0,3.4775,3.6587,3.7973,3.8841,4.0277,4.1351,4.2033,4.3241,4.3918,4.4165,4.5392,4.5895,4.5735,4.5168,4.3429,4.0778,3.7656,3.5593,3.4268,0.0,0.0,0.0,0.0,3.0297,3.0112,0.0,0.0,0.0,0.0,0.0,0.0,0.0,0.0,0.0,0.0,0.0,0.0,0.0,0.0,0.0,1.4246,0.0,0.0,0.0,0.0,0.0,0.0,0.0,1.2738,1.399,1.5637,1.8256,2.1854,2.4883,2.6503,2.6861,2.8813,2.964,2.9528,2.9891,2.7748,2.381,2.3037,2.1716,1.991,0.0,0.0,0.0,0.0,0.0,0.0,0.0,0.0,0.0,0.0,0.0,0.0,0.0,0.0,0.0,0.0,0.0,0.0,0.0,0.0,0.0,0.0,0.0,0.0,0.0,0.0,0.0,0.0,0.0,0.0,0.0,0.0,0.0,0.0,0.0,0.0,0.0,2.4427,2.6084,2.7975,2.8139,2.8539,0.0,0.0,0.0,0.0,0.0,0.0,3.6252,3.6711,3.7788,3.9721,4.0866,4.1999,4.3138,4.4098,4.491,4.5519,4.6675,4.7274,4.7389,4.8474,4.8909,4.8812,4.8072,4.7241,4.6088,4.1685,3.9164,3.8068,3.7286,3.6448,3.5647,3.5474,3.4853,3.411,0.0,0.0,0.0,0.0,0.0,0.0,0.0,0.0,0.0,0.0,0.0,1.1369,0.0,0.0,1.5663,1.6469,1.6821,1.6678,0.0,0.0,1.5574,1.4155,1.491,1.5467,1.5666,1.9411,2.2638,2.5262,2.759,2.9283,3.0398,3.2719,3.3526,3.3087,3.3906,3.1664,2.7211,2.6404,2.4801,2.2666,2.096,0.0,0.0,0.0,0.0,0.0,0.0,0.0,0.0,0.0,0.0,0.0,0.0,0.0,0.0,0.0,0.0,0.0,0.0,0.0,0.0,0.0,0.0,0.0,0.0,0.0,0.0,0.0,0.0,0.0,0.0,0.0,0.0,0.0,0.0,0.0,0.0,0.0,0.0,3.1449,3.1681,0.0,0.0,0.0,0.0,3.622,3.7708,3.888,3.9627,4.1177,4.2308,4.2956,4.5293,4.645,4.6275,4.7828,4.8932,4.9584,4.9546,4.9853,5.0472,5.0479,5.041,5.0289,5.0125,4.9542,4.8478,4.5182,4.29,4.1433,4.1133,4.0438,3.9608,3.9526,3.8854,3.8025,0.0,0.0,0.0,0.0,0.0,0.0,0.0,0.0,0.0,0.9558,1.1293,1.3121,0.0,1.6701,1.7971,1.8872,1.9079,1.9132,1.9042,0.0,1.7659,1.7305,1.7151,1.7864,1.9504,2.3022,2.576,2.7707,3.0216,3.1934,3.288,3.4433,3.5047,3.4932,3.5284,3.4586,3.3021,3.0588,2.8237,2.5917,2.3824,2.1898,0.0,0.0,0.0,0.0,0.0,0.0,0.0,0.0,0.0,0.0,0.0,0.0,0.0,0.0,0.0,0.0,0.0,0.0,0.0,0.0,0.0,0.0,0.0,0.0,0.0,0.0,0.0,0.0,0.0,0.0,0.0,0.0,0.0,0.0,0.0,0.0,0.0,3.5754,3.6492,0.0,3.8998,3.9304,3.9938,4.1265,4.1736,4.2762,4.4643,4.5089,4.5867,4.7151,4.8338,4.8919,4.8816,4.9714,5.0247,5.0428,5.0857,5.1119,5.131,5.1661,5.1782,5.1683,5.0977,5.0443,5.0018,4.8183,4.6585,4.5228,4.4979,4.4064,4.2832,4.2642,4.1674,4.0393,0.0,0.0,0.0,0.0,0.0,0.0,0.0,0.0,0.0,1.0651,1.2485,1.4536,1.6945,1.867,2.0077,2.1213,2.1466,2.139,2.1085,0.0,1.9706,1.9391,1.9478,2.0697,2.3241,2.5971,2.83,3.0211,3.2823,3.4557,3.5411,3.6705,3.7377,3.7443,3.7603,3.7436,3.6964,3.4862,3.2244,2.9333,2.7318,2.5374,2.3419,0.0,0.0,0.0,0.0,0.0,0.0,0.0,0.0,0.0,0.0,0.0,0.0,0.0,0.0,0.0,0.0,0.0,0.0,0.0,0.0,0.0,0.0,0.0,0.0,0.0,0.0,0.0,0.0,0.0,0.0,0.0,0.0,0.0,0.0,0.0,3.7169,3.968,4.0681,4.1663,4.2964,4.3444,4.4094,4.5115,4.5523,4.6524,4.8381,4.8284,4.8721,5.0011,5.0631,5.0861,5.0731,5.1351,5.1614,5.1431,5.2083,5.2379,5.229,5.2868,5.3135,5.3117,5.2269,5.1938,5.1884,5.0784,4.9826,4.8859,4.7927,4.6909,4.5882,4.5676,4.4694,4.3378,0.0,0.0,0.0,0.0,0.0,0.0,0.0,0.0,0.0,1.0944,1.3084,1.5575,1.8514,2.0363,2.1956,2.3416,2.3835,2.3421,2.201,2.219,2.1735,2.0348,2.1945,2.4058,2.6651,2.8235,3.0313,3.293,3.5346,3.7023,3.8006,3.9697,4.0581,4.0722,4.0976,4.023,3.8793,3.8984,3.6766,3.2974,3.1314,2.926,2.6898,0.0,0.0,0.0,0.0,0.0,0.0,0.0,0.0,0.0,0.0,0.0,0.0,0.0,0.0,0.0,0.0,0.0,0.0,0.0,0.0,0.0,0.0,0.0,0.0,0.0,0.0,0.0,0.0,0.0,0.0,0.0,0.0,0.0,3.5974,3.8158,4.0673,4.3169,4.4109,4.4884,4.5703,4.7084,4.7842,4.7661,4.9098,5.0194,5.0654,5.0697,5.0908,5.1398,5.2271,5.2469,5.2009,5.2858,5.3115,5.2852,5.3388,5.361,5.3628,5.4129,5.4389,5.4389,5.4132,5.3975,5.3904,5.2874,5.2413,5.2183,4.9867,4.8897,4.871,4.8556,4.7997,4.6934,0.0,0.0,0.0,0.0,0.0,0.0,0.0,0.0,1.0069,1.1612,1.421,1.6896,1.9471,2.1681,2.3406,2.456,2.4796,2.4796,2.4555,2.4157,2.4071,2.4517,2.5749,2.728,2.9097,3.084,3.2968,3.5471,3.686,3.8311,3.9805,4.0381,4.0757,4.0912,4.106,4.0933,4.0585,4.0785,3.9565,3.7166,3.3785,3.1728,3.0374,0.0,0.0,0.0,0.0,0.0,0.0,0.0,0.0,0.0,0.0,0.0,0.0,0.0,0.0,0.0,0.0,0.0,0.0,0.0,0.0,0.0,0.0,0.0,0.0,0.0,0.0,0.0,0.0,0.0,0.0,0.0,0.0,3.9509,3.9509,4.1651,4.4157,4.6626,4.7578,4.8529,4.9827,5.0225,5.059,5.1033,5.1386,5.1813,5.2381,5.2797,5.3293,5.3961,5.4496,5.4687,5.4558,5.4428,5.4306,5.4259,5.4188,5.4147,5.4165,5.4128,5.4132,5.408,5.3816,5.3708,5.369,5.3278,5.3007,5.2758,5.0981,4.996,4.9416,4.9169,4.8429,4.7361,0.0,0.0,0.0,0.0,0.0,0.0,0.0,0.8109,1.0451,1.201,1.4814,1.7561,1.9941,2.2312,2.4132,2.5011,2.5547,2.5748,2.5593,2.536,2.5708,2.6817,2.8092,2.9545,3.1211,3.327,3.5239,3.7059,3.869,4.0022,4.1017,4.1559,4.1917,4.2035,4.2187,4.2097,4.189,4.2073,4.1417,4.0047,3.6995,3.4936,3.3417,3.0828,2.968,2.9221,2.7604,2.6285,2.5226,2.4784,0.0,0.0,0.0,0.0,0.0,0.0,0.0,0.0,0.0,0.0,0.0,0.0,0.0,0.0,0.0,0.0,0.0,0.0,0.0,0.0,0.0,0.0,0.0,0.0,4.1354,4.3768,4.4439,4.5783,4.7472,4.956,5.0471,5.1252,5.2031,5.231,5.2699,5.3308,5.3553,5.3927,5.4549,5.4746,5.4981,5.5284,5.5484,5.5477,5.5277,5.4978,5.4719,5.4639,5.4712,5.4737,5.4737,5.4795,5.4793,5.4775,5.4573,5.4479,5.4444,5.3901,5.3589,0.0,0.0,0.0,0.0,0.0,4.8933,4.7911,0.0,0.0,0.0,0.0,0.0,0.0,0.0,0.8184,1.055,1.2081,1.4897,1.7662,1.9958,2.2338,2.4116,2.4945,2.6,2.6403,2.5961,2.6293,2.7043,2.8287,2.9656,3.1299,3.3161,3.5453,3.7113,3.808,4.0528,4.176,4.1869,4.2922,4.3446,4.3532,4.3719,4.343,4.2841,4.2988,4.2621,4.1801,4.0349,3.8407,3.6148,3.4442,3.3317,3.2466,3.0966,2.9345,2.7932,2.8017,0.0,0.0,0.0,0.0,0.0,0.0,0.0,0.0,0.0,0.0,0.0,0.0,0.0,0.0,0.0,0.0,0.0,0.0,0.0,0.0,0.0,0.0,0.0,0.0,4.5495,4.8225,4.9923,5.0256,5.0752,5.203,5.2813,5.3219,5.3225,5.3777,5.4382,5.4919,5.5494,5.6042,5.6556,0.0,0.0,0.0,0.0,5.5578,5.5088,5.5039,5.4891,5.4607,5.5115,5.5294,5.5312,5.5712,5.5861,5.5861,5.5764,5.5648,5.5595,5.4636,5.4074,5.376,5.231,5.1551,5.1188,5.0224,4.9337,4.8511,0.0,0.0,0.0,0.0,0.0,0.0,0.0,0.8184,1.0381,1.1458,1.4227,1.6993,1.9394,2.1222,2.2926,2.4486,2.5389,2.6465,2.7788,2.8178,2.932,3.1421,3.1989,3.3341,3.5633,3.6898,3.8313,3.9896,4.1125,4.2141,4.2941,4.3232,4.3481,4.3582,4.3719,4.3744,4.3675,4.3923,4.3557,4.2697,4.1897,4.0553,3.8715,3.6406,3.5054,3.4301,3.339,3.1998,3.0567,3.0634,2.9595,2.8133,2.7377,0.0,0.0,0.0,0.0,0.0,0.0,0.0,0.0,0.0,0.0,0.0,0.0,0.0,0.0,0.0,0.0,0.0,0.0,0.0,0.0,4.5897,4.8496,5.1006,5.3372,5.4169,5.4379,5.3953,5.3955,5.4465,5.5668,5.5722,5.5951,5.6592,5.6632,5.6535,5.6442,5.6878,5.694,5.661,5.6987,5.7031,5.6736,5.6533,5.6293,5.5991,0.0,0.0,5.5745,5.5751,5.5764,5.5706,5.5607,5.5431,5.5301,5.5102,5.4,5.2502,5.1561,5.0776,5.0015,4.97,4.9265,4.8802,0.0,0.0,0.0,0.0,0.0,0.0,0.0,0.7897,0.9972,1.1293,1.346,1.5808,1.8177,1.9924,2.1575,2.3262,2.4931,2.6499,2.7875,2.8928,3.0416,3.247,3.3504,3.5007,3.7041,3.8403,3.9716,4.1035,4.1978,4.2741,4.3286,4.3446,4.3566,4.3701,4.3818,4.3915,4.4073,4.4226,4.4071,4.3624,4.2532,4.1632,4.0683,3.8244,3.6835,3.6102,3.5343,3.4008,3.261,3.2684,3.19,3.0772,3.0033,2.9242,2.8271,0.0,0.0,0.0,0.0,0.0,0.0,0.0,0.0,0.0,0.0,0.0,0.0,0.0,0.0,3.9925,0.0,0.0,4.7539,5.0035,5.2148,5.4027,5.573,5.6538,5.6797,5.6307,5.6108,5.6274,5.6977,5.688,5.7024,5.7691,5.7522,5.7454,5.7633,5.7798,5.7678,5.7299,5.7448,5.7338,5.6984,5.6742,5.6492,5.629,5.6067,5.5897,5.5822,5.5666,5.5607,5.5607,5.5413,5.5277,5.5199,5.4974,5.3766,5.2045,5.1501,5.06,4.959,4.9367,4.9124,4.8838,0.0,0.0,0.0,0.0,0.0,0.0,0.0,0.0,0.0,1.0919,1.2622,1.4492,1.6551,1.8243,2.0017,2.1966,2.4339,2.6298,2.7666,2.925,3.1059,3.3115,3.4545,3.6111,3.781,3.9536,4.08,4.1506,4.265,4.3286,4.3394,4.3532,4.3667,4.3804,4.3883,4.4011,4.4214,4.4255,4.425,4.4055,4.2671,4.2077,4.1731,3.9501,3.8148,3.7413,3.6787,3.5528,3.4168,3.4225,3.3714,3.2952,3.2372,3.1642,3.0664,2.8983,2.8163,0.0,0.0,0.0,0.0,0.0,0.0,0.0,0.0,0.0,3.8137,4.034,4.2261,4.4423,4.7356,4.939,5.1386,5.3684,5.5294,5.6559,5.7505,5.8072,5.8438,5.8547,5.8092,5.7785,5.7805,5.7661,5.7881,5.8509,5.8277,5.8312,5.8821,5.8523,5.8197,5.7792,5.7504,5.7188,5.6794,5.6546,5.629,5.6123,5.5822,5.5648,5.559,5.549,5.5448,5.5371,5.5217,5.5079,5.5,5.4447,5.329,5.185,5.1383,5.0436,4.929,4.9063,4.8877,4.8668,0.0,0.0,0.0,0.0,0.0,0.0,0.0,0.0,0.0,0.9576,1.154,1.3345,1.4433,1.5946,1.8131,2.1225,2.3231,2.5568,2.8452,2.9669,3.1679,3.4865,3.5236,3.6195,3.7931,3.9642,4.0582,4.0815,4.2521,4.3394,4.3394,4.3532,4.3667,4.3804,4.3883,4.4011,4.4214,4.4255,4.3932,4.3287,4.2498,4.1763,4.0962,3.938,3.8268,3.7489,3.7471,3.6423,3.5064,3.5136,3.4625,3.3964,3.3987,3.3419,3.2411,3.079,0.0,3.0979,2.9389,3.07,3.2764,3.3749,3.5868,3.8161,0.0,0.0,4.3144,4.4196,4.6326,4.8316,4.9411,5.1559,5.3732,5.5449,5.6482,5.7582,5.9056,5.9206,5.9428,6.0081,5.8691,5.792,5.8439,5.8391,5.8528,5.9139,5.9008,5.8772,5.8553,5.8312,5.8042,5.7649,5.7338,5.7105,5.6794,5.6546,5.6217,5.5918,5.5764,5.5514,5.5259,5.5259,5.5156,5.5053,5.4904,5.4762,5.4506,5.3628,5.2603,5.1486,5.0617,4.9586,4.861,4.8769,4.8517,4.8049,0.0,0.0,0.0,0.0,0.0,0.0,0.0,0.0,0.0,0.0,1.027,1.1434,1.2771,1.4809,1.6982,1.9224,2.1482,2.392,2.6643,2.8588,3.0942,3.3791,3.4906,3.6278,3.7948,3.9242,4.0197,4.0757,4.2063,4.2734,4.275,4.3431,4.3771,4.3804,4.3897,4.3776,4.3498,4.3509,4.3128,4.2433,4.177,4.1014,4.0127,3.9174,3.768,3.6121,3.6138,3.5446,0.0,0.0,3.3657,3.3423,3.3511,3.3319,3.2937,3.2299,3.2399,0.0,3.248,3.4374,3.6632,0.0,3.9623,4.1875,4.3085,4.5087,4.6897,4.7741,4.9515,5.1307,5.2636,5.3689,5.506,0.0,5.7699,5.8406,6.0035,6.0073,5.9852,5.9616,5.8796,5.8342,5.8578,5.849,5.8436,5.8577,5.8799,5.8821,5.8511,5.8223,5.795,5.7601,5.7239,5.7003,5.6794,5.6365,5.6032,5.5918,5.5572,5.5336,5.5199,5.5139,5.4992,5.4886,5.4717,5.4512,5.4252,5.3177,5.2153,5.118,5.0116,4.9055,4.8244,4.8325,4.8049,4.7638,0.0,0.0,0.0,0.0,0.0,0.0,0.0,0.0,0.0,0.0,0.0,0.0,0.0,1.3769,1.5771,1.7261,1.9911,2.2531,2.4936,2.7469,2.9982,3.255,3.4074,3.5645,3.735,3.8567,3.9519,4.0151,4.1311,4.1925,4.1992,4.2728,4.3121,4.3121,4.3274,4.3092,4.2679,4.2679,4.2164,4.1285,4.0809,4.0014,3.8961,3.8114,3.6654,3.5092,3.5107,3.4486,3.3589,3.3015,3.2872,3.2904,3.3006,3.3235,3.3412,3.3246,3.3584,3.4309,3.5671,0.0,0.0,4.0967,4.3201,4.5429,4.6516,4.8376,5.0108,5.0913,5.2016,5.3263,5.4718,5.491,5.5594,5.7852,5.8045,5.844,5.985,5.9862,5.9444,5.8683,5.819,5.7864,5.7767,5.7899,5.7971,5.8015,5.8329,5.8475,5.8468,5.8133,5.7839,5.7601,5.7188,5.6899,5.6794,5.6182,5.5918,5.5901,5.542,5.5199,5.5139,5.4913,5.4762,5.4637,5.4448,5.4119,5.3622,5.2547,5.1507,5.0536,4.9342,4.8431,4.7737,4.7571,4.7354,4.7134,0.0,0.0,0.0,0.0,0.0,0.0,0.0,0.0,0.0,0.0,0.0,0.0,0.0,1.2562,1.4195,1.5721,1.8857,2.1768,2.4189,2.6666,2.9223,3.1894,3.2823,3.4073,3.5824,3.754,3.8437,3.8455,4.0244,4.1148,4.1148,4.1322,4.1366,4.1366,4.1586,4.1733,4.1838,4.1838,4.1004,3.9677,3.9717,3.8807,3.7206,3.5761,3.5169,3.511,3.5179,3.4194,3.2838,3.2872,3.291,3.2916,3.307,3.3692,0.0,3.3425,3.4439,3.6372,3.8954,0.0,4.27,4.4414,4.6816,4.9178,5.0836,5.1928,5.2804,5.3608,5.3721,5.3926,5.4757,5.4797,5.5262,5.6966,5.7135,5.7293,5.8078,5.8042,5.7862,5.7574,5.6744,5.6047,0.0,5.6472,5.719,5.7752,5.763,5.7798,5.8356,5.8042,5.7745,5.7601,5.7087,5.6794,5.6794,5.6182,5.5918,5.5901,5.542,5.5139,5.4992,5.4477,5.4222,5.4222,5.4045,5.3457,5.2416,5.1539,5.0503,4.926,4.815,4.7521,4.7167,4.6582,4.6442,4.6512,0.0,0.0,0.0,0.0,0.0,0.0,0.0,0.0,0.0,0.0,0.0,0.0,0.0,0.0,0.0,0.0,1.6789,1.9402,2.182,2.4307,2.6828,2.943,3.0869,3.2162,3.3393,3.5072,3.5964,3.6024,3.7778,3.8676,3.8726,3.9344,3.9674,3.9704,3.9822,3.9668,3.9275,3.9328,3.877,3.7845,3.742,3.6597,3.5545,3.4603,3.3225,3.1794,0.0,3.1607,3.0976,2.9874,2.9955,3.051,3.0569,3.196,3.3899,3.5412,3.7108,3.8924,4.0971,0.0,4.5526,4.7812,4.9486,5.1015,5.2722,5.3312,5.3557,5.3797,5.3768,5.3766,5.3998,5.3948,5.4431,5.6078,5.6188,5.6533,5.7851,5.784,5.7415,5.6668,5.621,0.0,0.0,0.0,0.0,5.6835,5.7175,5.7677,5.8356,5.7932,5.7649,5.7601,5.7105,5.6794,5.6794,5.6182,5.5861,5.5764,5.5174,5.4745,5.4477,5.4286,5.4093,5.3815,5.3207,5.2587,5.1917,5.0393,4.9377,4.866,4.7411,4.6722,4.6285,4.5551,4.5095,4.4856,0.0,0.0,0.0,0.0,0.0,0.0,0.0,0.0,0.0,0.0,0.0,0.0,0.0,0.0,0.0,0.0,0.0,1.7371,1.9777,2.2,2.4342,2.6903,2.8317,2.9602,3.0867,3.2254,3.3138,3.3468,3.495,3.5842,3.6164,3.6793,3.7108,3.7146,3.7239,3.7068,3.667,3.6746,3.6358,3.5604,3.4932,3.4165,3.3355,3.2364,3.1035,0.0,2.9123,2.8967,2.8868,2.8123,2.8502,2.9369,2.9694,3.1809,3.4679,3.7347,3.9134,4.0776,4.3154,4.5486,4.7773,5.0015,5.1447,5.2616,5.3713,5.3696,5.3407,5.3322,5.2772,5.2369,5.2584,5.2334,5.2601,5.4208,5.4586,5.5121,5.6416,5.6652,5.6415,5.5724,5.5479,5.5074,0.0,0.0,0.0,5.5862,5.644,5.7106,5.7781,5.7692,5.7601,5.7553,5.7036,5.6794,5.6742,5.6199,5.5746,5.5472,5.4948,5.4512,5.4158,5.3755,5.3457,5.316,5.2151,5.133,5.0642,4.9358,4.8322,4.7529,4.6445,4.5841,4.5405,4.4571,4.3881,4.3491,0.0,0.0,0.0,0.0,0.0,0.0,0.0,0.0,0.0,0.0,0.0,0.0,0.0,0.0,0.0,0.0,0.0,0.0,1.8128,1.9805,2.1861,2.4415,2.526,2.6462,2.8222,2.9156,3.0049,3.0865,3.1853,3.271,3.346,3.3658,3.3729,3.3755,3.3882,3.3981,3.4059,3.4116,3.3739,3.3037,3.2372,3.16,3.0656,2.9213,2.8655,2.845,2.6983,2.6446,2.6632,2.7605,2.8568,2.9541,3.0579,3.3225,3.6475,3.9103,4.0542,4.2039,4.5449,4.7676,4.9412,5.107,5.2737,5.3972,5.3869,5.3171,5.2464,5.2247,5.0848,4.9867,0.0,0.0,4.9889,5.151,5.2387,5.3158,5.3995,5.4588,5.4903,0.0,0.0,0.0,0.0,0.0,0.0,5.489,0.0,5.6141,5.6767,5.7324,5.7553,5.7388,5.7003,5.6742,5.66,5.6088,5.5555,5.4992,5.4586,5.4316,5.4089,5.2836,5.2317,5.22,5.0961,4.9758,4.8691,4.8266,4.7216,4.5841,4.5243,4.4812,4.4282,4.3506,4.2871,4.2467,0.0,0.0,0.0,0.0,0.0,0.0,0.0,0.0,0.0,0.0,0.0,0.0,0.0,0.0,0.0,0.0,0.0,0.0,1.6406,1.7584,1.9339,2.1817,2.2206,2.3115,2.481,2.5685,2.6567,2.7525,2.8385,2.9241,3.0112,3.018,3.0252,3.0341,3.0388,3.0457,3.0587,3.0655,3.059,3.041,2.9738,2.8981,2.8148,2.7277,2.6193,2.5206,2.5499,2.5274,2.5037,0.0,0.0,0.0,0.0,3.511,3.7386,3.9995,4.2316,4.4472,4.668,4.8979,5.1015,5.2101,5.3142,5.374,5.3081,5.2232,5.1169,4.9845,4.8625,4.7641,0.0,0.0,0.0,4.976,5.0558,0.0,5.3722,5.3992,0.0,5.4661,0.0,5.4321,5.4127,5.3963,0.0,0.0,5.5166,5.6141,5.6767,5.7324,5.7486,5.7239,5.6951,5.6707,5.6437,5.5729,5.5139,5.462,5.3736,5.3143,5.2819,5.1646,5.0894,5.0506,4.9488,4.8495,4.7668,4.6908,4.6,4.5036,4.4419,4.3726,4.2936,4.2126,4.1267,4.0504,0.0,0.0,0.0,0.0,0.0,0.0,0.0,0.0,0.0,0.0,0.0,0.0,0.0,0.0,0.0,0.0,0.0,0.0,0.0,1.5696,1.7112,1.9248,1.9416,2.0083,2.1419,2.2264,2.3156,2.4115,2.4972,2.5841,2.6695,2.6739,2.6805,2.6909,2.6951,2.7013,2.7115,2.7213,2.7289,0.0,0.0,2.6061,2.5597,2.4936,2.414,2.3511,2.4437,2.5252,0.0,0.0,0.0,3.2269,3.4486,3.6895,3.9354,4.1593,0.0,4.6035,4.8139,5.0022,5.1601,5.2439,5.2721,5.252,5.1628,5.0111,4.8405,4.6639,4.5531,0.0,4.3675,0.0,0.0,0.0,0.0,0.0,5.1961,5.2987,5.3683,0.0,5.4165,0.0,5.3981,5.3851,5.3637,0.0,5.4557,5.5349,5.5587,5.6095,5.6322,5.6125,5.5752,5.5384,5.4983,5.4244,5.3706,5.3415,5.2482,5.1891,5.148,5.0309,4.9488,4.8973,0.0,4.7004,4.6323,4.5473,4.4555,4.3804,4.3066,4.226,4.1463,4.0617,3.9724,3.8814,0.0,0.0,0.0,0.0,0.0,0.0,0.0,0.0,0.0,0.0,0.0,0.0,0.0,0.0,0.0,0.0,0.0,0.0,0.0,0.0,1.5072,1.6638,1.6939,1.747,1.834,1.909,1.9933,2.0816,2.1617,2.2475,2.3258,2.332,2.3378,2.3472,2.3529,2.3603,2.3675,2.3909,2.4031,2.4054,2.3539,2.3291,2.3207,0.0,0.0,2.2508,2.3571,0.0,0.0,0.0,3.1403,3.3897,3.5701,3.8567,4.1648,4.3496,4.5273,4.7146,4.9469,5.0805,5.1703,5.2271,5.1857,5.0975,4.9817,4.7609,4.5246,4.3208,0.0,4.1158,4.0116,4.0673,4.1805,4.3407,0.0,4.788,4.9594,5.1736,5.3126,5.309,5.3674,5.4018,5.3813,5.3676,5.3536,5.3212,5.3787,5.4096,5.3964,5.456,5.4822,5.4575,5.4114,5.3618,5.3059,5.2424,5.2001,5.1816,5.1082,5.0509,5.0041,4.877,4.7977,4.7523,4.6311,4.539,4.4721,4.3944,4.316,4.2208,4.1365,4.0603,3.9839,3.897,3.8043,3.7258,0.0,0.0,0.0,0.0,0.0,0.0,0.0,0.0,0.0,0.0,0.8675,0.8441,0.0,0.0,0.0,0.0,0.0,0.0,0.0,0.0,0.0,1.4193,1.4882,1.5662,1.6536,1.6765,1.7312,1.8235,1.8449,1.9038,1.9919,1.9936,2.0022,2.0124,2.014,2.0205,2.0369,2.1084,2.1436,2.1592,2.2182,2.2058,2.1537,2.1521,0.0,0.0,2.2583,0.0,2.7457,2.9796,3.2313,3.4905,3.7354,3.999,4.2655,4.5137,4.7045,4.861,4.9774,5.1224,5.2251,5.1671,5.1366,5.0614,4.828,4.6251,0.0,0.0,3.9393,3.8218,3.667,3.7529,3.9023,4.0616,0.0,0.0,0.0,0.0,5.1782,0.0,0.0,0.0,0.0,0.0,0.0,0.0,0.0,5.3062,5.3632,5.4465,5.4607,5.3957,5.3382,5.2874,5.2364,5.1878,5.1376,5.0924,4.9776,4.8991,4.8515,4.712,4.616,4.5562,4.4827,0.0,4.324,4.2555,4.1738,4.0845,3.9899,3.9006,3.8081,3.7309,3.6458,3.5414,0.0,0.0,0.0,0.0,0.0,0.0,0.0,0.7973,0.8499,0.9034,0.9235,0.9246,0.8994,0.907,0.0,0.0,0.0,0.0,0.0,0.0,0.0,0.0,0.0,0.0,1.4222,1.5069,1.5763,1.625,0.0,1.7268,1.7742,1.7772,1.7851,1.7945,1.7975,1.8067,1.8218,1.8601,1.8846,1.9014,1.947,1.9736,0.0,0.0,0.0,0.0,0.0,0.0,2.6622,2.9238,3.1854,3.4546,3.7585,4.0621,4.3496,4.5678,4.7481,4.9087,5.0366,5.131,5.1721,5.0792,4.9867,4.848,4.5813,0.0,0.0,0.0,3.6311,3.5089,3.4246,3.4672,0.0,0.0,0.0,0.0,0.0,0.0,0.0,0.0,0.0,0.0,0.0,0.0,0.0,0.0,0.0,5.2495,5.2857,5.2965,5.2709,5.2128,5.1612,5.1094,5.0617,5.0062,4.9488,4.8978,4.8008,4.7103,4.6414,4.5352,4.4449,4.3758,4.3115,4.2394,4.167,4.0817,3.9931,3.8979,3.8198,3.7271,3.6245,3.5605,3.4751,3.3773,0.0,0.0,0.0,0.0,0.0,0.0,0.0,0.8172,0.882,0.9149,0.9891,1.0182,0.9624,0.9509,0.9227,0.0,0.0,0.0,0.0,0.0,0.0,0.0,0.0,0.0,0.0,0.0,0.0,0.0,0.0,0.0,0.0,0.0,0.0,0.0,0.0,0.0,1.649,1.6682,1.6824,0.0,0.0,0.0,0.0,0.0,0.0,0.0,0.0,0.0,0.0,0.0,3.0825,3.3667,3.6717,4.0195,4.3553,4.5682,4.7229,4.866,5.0516,5.0875,5.0596,5.002,4.841,4.6325,4.384,4.1106,0.0,0.0,3.3538,3.2179,3.1752,0.0,3.287,0.0,3.7698,4.0223,0.0,0.0,0.0,0.0,0.0,0.0,0.0,0.0,0.0,0.0,0.0,0.0,5.1946,5.1329,5.0768,5.0345,4.9873,4.9342,4.881,4.8161,4.7505,4.6896,4.6111,4.5285,4.4281,4.3557,4.2767,4.1971,4.1308,4.0561,3.9871,3.8917,3.8003,3.7073,3.6351,3.5414,3.4557,3.3784,3.2989,3.2297,0.0,0.0,0.0,0.0,0.0,0.0,0.0,0.8156,0.8966,0.9716,1.0529,1.0755,1.011,0.9671,0.9129,0.0,0.0,0.0,0.0,0.0,0.0,0.0,0.0,0.0,0.0,0.0,0.0,0.0,0.0,0.0,0.0,0.0,0.0,0.0,0.0,0.0,0.0,1.5647,0.0,0.0,0.0,0.0,0.0,0.0,0.0,0.0,0.0,0.0,0.0,0.0,0.0,3.2559,3.4448,3.7938,4.1997,4.5327,0.0,0.0,4.9449,4.9508,4.8999,4.9644,4.7863,4.5452,4.3622,0.0,0.0,3.3742,3.1659,2.9964,2.8363,0.0,0.0,0.0,0.0,3.8625,0.0,0.0,0.0,0.0,0.0,0.0,0.0,0.0,0.0,0.0,0.0,0.0,5.1087,5.055,4.9988,4.9521,4.89,4.8225,4.7588,4.6844,4.6111,4.5285,4.4433,4.3572,4.2687,4.186,4.0915,4.0062,3.9319,0.0,0.0,3.6913,3.6068,3.5222,3.4264,3.3487,3.2901,3.2083,3.1483,3.0888,0.0,0.0,0.0,0.0,0.0,0.0,0.7213,0.8042,0.8879,0.9731,1.0519,1.0746,1.0101,0.9866,0.9375,0.0,0.0,0.0,0.0,0.0,0.0,0.0,0.0,0.0,0.0,0.0,0.0,0.0,0.0,0.0,0.0,0.0,0.0,0.0,0.0,0.0,0.0,0.0,0.0,0.0,0.0,0.0,0.0,0.0,0.0,0.0,0.0,0.0,0.0,0.0,0.0,0.0,3.2265,3.4647,0.0,0.0,4.4585,4.5807,4.7825,4.8455,4.8366,4.7579,4.5761,4.3438,4.0646,0.0,3.4112,3.1685,2.9398,2.778,2.7519,2.757,2.8339,3.0428,3.2694,3.5284,3.8484,0.0,0.0,0.0,0.0,0.0,0.0,0.0,0.0,0.0,0.0,0.0,4.924,4.9351,4.911,4.8476,4.777,4.7053,4.6292,4.54,4.4584,4.3728,4.2752,4.1681,4.0675,3.9743,3.8863,3.8068,3.7165,0.0,0.0,3.5029,3.4264,3.3586,3.2778,3.2095,3.1494,3.066,3.0151,2.9649,0.0,0.0,0.0,0.0,0.0,0.6088,0.6858,0.7828,0.87,0.9339,1.0069,1.0309,0.9693,0.9635,0.9246,0.8231,0.0,0.0,0.0,0.0,0.0,0.0,0.0,0.0,0.0,0.0,0.0,1.2444,0.0,0.0,0.0,0.0,0.0,0.0,0.0,0.0,0.0,0.0,0.0,0.0,0.0,0.0,0.0,0.0,0.0,0.0,0.0,0.0,0.0,0.0,0.0,0.0,0.0,3.1295,3.3323,0.0,4.2152,4.3675,4.5627,4.6531,4.6615,4.5322,4.3443,4.1155,0.0,0.0,3.1794,3.0045,2.7842,2.6323,2.6571,2.6314,2.6758,2.8931,3.0845,3.3138,3.6342,3.9268,0.0,0.0,0.0,0.0,0.0,0.0,0.0,0.0,0.0,0.0,4.7473,4.7589,4.7507,4.7139,4.6368,4.5586,4.4794,4.376,4.2817,4.186,4.076,3.9743,3.8622,3.7625,3.6807,3.6068,3.5222,3.4557,0.0,3.3178,3.26,3.2004,3.1176,3.0671,3.0162,2.9217,2.8794,2.8495,0.0,0.0,0.0,0.0,0.0,0.0,0.6104,0.7451,0.8419,0.8508,0.9216,0.9466,0.8783,0.8759,0.854,0.7857,0.0,0.0,0.0,0.0,0.0,0.0,0.0,0.0,0.0,0.0,1.1502,1.2304,1.3163,1.3684,0.0,0.0,0.0,0.0,0.0,0.0,0.0,0.0,0.0,0.0,0.0,0.0,0.0,0.0,0.0,0.0,0.0,0.0,0.0,0.0,0.0,0.0,0.0,2.8107,3.063,3.6669,3.9021,4.0216,4.2737,4.335,4.3226,4.3158,4.112,3.8687,0.0,0.0,3.0807,2.9064,2.732,2.5827,2.4975,2.5424,2.6444,2.8054,3.0329,3.2976,3.6075,3.8431,0.0,0.0,0.0,0.0,0.0,0.0,0.0,0.0,0.0,0.0,4.5945,4.5133,4.5001,4.5634,4.4644,4.3728,4.2956,4.1778,4.0689,3.9495,3.8545,3.7665,3.6658,3.5618,3.4751,3.3993,0.0,3.2588,0.0,3.1381,3.0888,3.0287,2.9448,2.9132,2.9026,2.7853,2.7431,2.7323,0.0,0.0,0.0,0.0,0.0,0.0,0.0,0.6917,0.772,0.8299,0.8628,0.8755,0.859,0.8578,0.8333,0.7723,0.0,0.0,0.0,0.0,0.0,0.0,0.0,0.0,0.0,0.0,1.1133,1.1485,1.2847,1.3608,1.3733,1.3851,0.0,0.0,0.0,0.0,0.0,0.0,0.0,0.0,0.0,0.0,0.0,0.0,0.0,0.0,0.0,0.0,0.0,0.0,0.0,0.0,0.0,0.0,0.0,3.0335,3.348,0.0,3.9096,4.0072,4.0261,3.9685,3.8386,3.6511,3.3598,0.0,2.8963,2.7223,2.5938,2.503,2.465,2.4785,2.5426,2.697,2.8722,3.0949,0.0,0.0,0.0,0.0,0.0,0.0,0.0,0.0,0.0,0.0,0.0,0.0,4.4296,4.3307,4.318,4.3898,4.2942,4.1957,4.1028,3.9931,3.8801,3.7821,3.682,3.5796,3.4848,3.397,3.3078,0.0,0.0,3.1165,3.0442,2.9942,2.9544,2.9122,2.8271,2.796,2.7853,2.6663,2.6236,2.6118,0.0,0.0,0.0,0.0,0.0,0.0,0.0,0.608,0.6836,0.7398,0.7693,0.7865,0.7935,0.7935,0.7798,0.7435,0.0,0.0,0.0,0.0,0.0,0.0,0.0,0.0,0.0,1.017,1.1061,1.1481,1.3107,1.3972,1.4119,1.4243,1.4394,1.4506,0.0,0.0,0.0,0.0,0.0,0.0,0.0,0.0,1.667,0.0,0.0,0.0,0.0,0.0,0.0,0.0,0.0,0.0,0.0,0.0,0.0,0.0,2.8494,3.1614,3.5136,3.6618,3.6936,3.6093,3.5122,0.0,0.0,2.8841,2.7236,2.6158,2.5178,2.4515,2.4445,2.4615,2.5152,2.634,2.8064,0.0,0.0,0.0,0.0,0.0,0.0,0.0,0.0,0.0,0.0,0.0,0.0,0.0,4.232,4.1279,4.0873,4.1167,4.0788,4.0118,3.9156,3.7912,3.6926,3.5986,3.4933,3.4068,3.3201,3.2398,3.1586,0.0,3.0359,2.9733,0.0,2.8591,2.8271,2.7833,2.7098,2.6772,2.6663,2.5578,2.5128,2.4898,0.0,0.0,0.0,0.0,0.0,0.0,0.0,0.5073,0.5872,0.5989,0.6448,0.6776,0.6857,0.6857,0.6889,0.6969,0.0,0.0,0.0,0.0,0.0,0.0,0.0,0.0,0.0,1.0339,1.1249,1.2173,1.3802,1.4674,1.4882,1.5017,1.5125,1.5184,1.4639,0.0,0.0,0.0,0.0,0.0,0.0,0.0,0.0,0.0,0.0,0.0,0.0,0.0,0.0,0.0,0.0,0.0,0.0,0.0,0.0,0.0,0.0,0.0,0.0,3.2856,3.3301,0.0,0.0,0.0,0.0,0.0,0.0,2.5686,2.493,2.4266,2.4266,2.4757,2.5415,0.0,0.0,0.0,0.0,0.0,0.0,0.0,0.0,0.0,0.0,0.0,0.0,0.0,0.0,0.0,4.0017,3.9142,3.8275,3.7665,3.8185,3.8003,3.723,3.5998,3.4945,3.4288,3.3201,3.2409,3.1812,3.1094,3.0162,0.0,2.9122,2.8281,2.7314,2.7314,2.6989,2.6436,2.5789,2.5569,2.5459,2.459,2.4016,2.3768,0.0,0.0,0.0,0.0,0.0,0.0,0.0,0.0,0.0,0.0,0.5289,0.5406,0.5461,0.5461,0.5514,0.0,0.0,0.0,0.0,0.0,0.0,0.0,0.0,0.0,0.0,1.0252,1.1433,1.2871,1.3986,1.4913,1.566,1.5835,1.5683,1.5282,1.5284,1.5079,0.0,0.0,0.0,0.0,0.0,0.0,0.0,0.0,0.0,0.0,1.7991,1.873,0.0,0.0,0.0,0.0,0.0,0.0,0.0,0.0,2.2376,2.3496,2.5924,0.0,2.9777,2.9502,2.9173,2.8446,0.0,0.0,0.0,0.0,0.0,2.3978,2.3919,2.4447,2.526,0.0,0.0,0.0,0.0,0.0,0.0,0.0,0.0,0.0,0.0,0.0,0.0,0.0,0.0,3.8965,3.8068,3.735,3.6539,3.5796,3.5101,3.5017,3.5439,3.4264,3.3487,3.2901,3.1993,3.1289,3.0795,2.9858,2.9006,2.8145,2.795,2.7098,2.6118,2.6118,2.578,2.511,2.4556,2.4326,2.4223,2.3352,2.2788,2.2441,0.0,0.0,0.0,0.0,0.0,0.0,0.0,0.0,0.0,0.0,0.0,0.0,0.0,0.0,0.0,0.0,0.0,0.0,0.0,0.0,0.0,0.0,0.0,0.0,0.9734,1.0367,1.1646,1.3563,1.4559,1.553,1.6458,1.6694,1.6671,1.6432,1.5984,1.5431,0.0,0.0,0.0,0.0,1.5315,0.0,0.0,0.0,0.0,0.0,1.7108,1.7777,0.0,1.8804,1.915,1.9526,0.0,0.0,0.0,0.0,2.1028,2.1788,2.2588,2.4741,2.6776,2.7063,2.7009,2.6542,2.515,0.0,0.0,0.0,0.0,2.371,2.3943,2.4726,0.0,0.0,0.0,0.0,0.0,0.0,0.0,0.0,0.0,0.0,0.0,0.0,0.0,0.0,0.0,3.698,3.6257,3.5402,3.4642,3.4068,3.3089,3.2989,3.3883,3.2801,3.2095,3.1699,3.0671,3.0057,2.9544,2.8698,2.7843,2.698,2.6772,2.5999,2.4898,2.4898,2.4565,2.3896,2.3448,2.3223,2.2998,2.2335,2.1881,2.1417,0.0,0.0,0.0,0.0,0.0,0.0,0.0,0.0,0.0,0.0,0.0,0.0,0.0,0.0,0.0,0.0,0.0,0.0,0.0,0.0,0.0,0.0,0.0,0.8789,1.0232,1.0735,1.207,1.4272,1.5336,1.6358,1.7296,1.7575,1.7699,1.7636,1.6503,1.5612,0.0,0.0,0.0,0.0,1.5366,0.0,0.0,0.0,0.0,0.0,0.0,0.0,0.0,1.8196,1.8517,1.8796,1.9469,0.0,0.0,0.0,0.0,0.0,2.0549,2.2221,2.4136,2.4856,2.5092,2.4878,2.3937,0.0,0.0,0.0,0.0,0.0,0.0,2.5224,0.0,0.0,0.0,0.0,0.0,0.0,0.0,0.0,0.0,0.0,0.0,0.0,0.0,0.0,0.0,3.4957,3.4483,3.3499,3.2801,3.251,3.1483,3.1278,3.2196,3.1278,3.0774,3.0474,2.9438,2.8698,2.8475,2.753,2.6673,2.5898,0.0,0.0,2.3776,2.3656,2.3336,2.2788,2.2449,2.2108,2.1767,2.1425,2.0952,2.0371,0.0,0.0,0.0,0.0,0.0,0.0,0.0,0.0,0.0,0.0,0.0,0.0,0.0,0.0,0.0,0.0,0.0,0.0,0.0,0.0,0.0,0.0,0.8127,0.9068,1.0114,1.1555,1.3197,1.5023,1.6113,1.715,1.8116,1.8444,1.8064,1.708,1.6394,1.5712,1.5085,0.0,0.0,0.0,0.0,0.0,0.0,0.0,0.0,0.0,0.0,0.0,0.0,1.6571,1.7461,1.8554,1.8608,0.0,0.0,0.0,0.0,0.0,2.01,2.0895,2.177,2.2725,2.3371,2.3728,2.3435,2.3724,0.0,0.0,0.0,0.0,0.0,2.5379,0.0,0.0,0.0,0.0,0.0,0.0,0.0,0.0,0.0,0.0,0.0,0.0,0.0,0.0,0.0,3.33,3.2812,3.1993,3.1392,3.1094,3.0057,2.9544,2.9638,2.9544,2.9438,2.9333,2.8174,2.7638,2.753,2.6445,2.578,2.5331,0.0,2.3776,2.3119,2.2562,2.2108,2.1767,2.1181,2.0838,2.05,2.0155,1.9693,1.9107,0.0,0.0,0.0,0.0,0.0,0.0,0.0,0.0,0.0,0.0,0.0,0.0,0.0,0.0,0.0,0.0,0.0,0.0,0.0,0.0,0.0,0.6999,0.8321,0.9339,1.0045,1.1724,1.3439,1.5197,1.6757,1.8031,1.9064,1.9543,1.8819,1.7113,1.6941,1.6219,1.517,1.5229,0.0,0.0,0.0,0.0,0.0,0.0,0.0,0.0,0.0,0.0,0.0,0.0,1.6838,1.7813,1.8185,0.0,0.0,0.0,0.0,0.0,1.9218,1.9944,2.0753,2.1027,2.2387,2.3621,2.345,2.3777,0.0,0.0,0.0,0.0,0.0,0.0,0.0,0.0,0.0,0.0,0.0,0.0,0.0,0.0,0.0,0.0,0.0,0.0,0.0,0.0,0.0,0.0,3.1597,3.0567,3.0057,2.9858,2.8804,2.8174,2.8174,2.752,2.752,2.8174,2.6989,2.6327,2.6108,2.5033,2.4157,2.3628,0.0,2.2206,2.1729,2.1271,2.0921,2.0622,2.027,1.9917,1.9455,1.8991,1.8402,1.7818,0.0,0.0,0.0,0.0,0.0,0.0,0.0,0.0,0.0,0.0,0.0,0.0,0.0,0.0,0.0,0.0,0.0,0.0,0.0,0.0,0.6027,0.6798,0.8364,0.9533,1.02,1.2081,1.3905,1.5697,1.7484,1.8854,1.9856,2.0413,1.9443,1.7259,1.7453,1.6687,1.5236,1.5287,1.5335,0.0,0.0,0.0,0.0,0.0,0.0,0.0,0.0,0.0,0.0,0.0,0.0,0.0,0.0,0.0,0.0,1.8965,1.8843,1.8643,1.8415,1.9277,2.0159,1.9982,2.1769,2.3562,2.3469,2.3929,0.0,0.0,0.0,0.0,0.0,0.0,0.0,0.0,0.0,0.0,0.0,0.0,0.0,0.0,0.0,0.0,0.0,0.0,0.0,0.0,0.0,3.0578,3.037,2.9333,2.8708,2.8708,2.7638,2.6989,2.6989,2.5809,2.5755,2.6849,2.5755,2.5007,2.4515,2.3445,2.2638,2.2057,2.1186,2.0582,2.0388,2.0005,1.9721,1.9361,1.9312,1.8991,1.8292,1.7701,1.7114,1.6526,0.0,0.0,0.0,0.0,0.0,0.0,0.0,0.0,0.0,0.0,0.0,0.0,0.0,0.0,0.0,0.0,0.0,0.0,0.0,0.0,0.6171,0.6599,0.8158,0.9591,1.0801,1.3155,1.5284,1.7155,1.8478,1.9524,2.0262,2.0682,1.9626,1.7396,1.7608,1.6789,1.5295,1.5368,1.5351,1.5317,0.0,0.0,0.0,0.0,0.0,0.0,0.0,0.0,0.0,0.0,0.0,0.0,0.0,0.0,1.7929,1.8484,1.8489,1.829,1.7997,1.8788,1.9744,2.0007,2.1552,0.0,2.3258,2.4156,0.0,2.5228,0.0,0.0,0.0,0.0,0.0,0.0,0.0,0.0,0.0,0.0,0.0,0.0,0.0,0.0,0.0,0.0,0.0,0.0,2.9848,2.9237,2.9237,2.8174,2.7539,2.7539,2.6445,2.5798,2.5798,2.4343,2.4156,2.5228,2.4156,2.3428,2.307,2.1873,2.1318,2.1186,2.0004,1.9477,1.9409,1.891,1.8457,1.8148,1.8062,1.7467,1.6655,1.6295,1.5822,1.5229,0.0,0.0,0.0,0.0,0.0,0.0,0.0,0.0,0.0,0.0,0.0,0.0,0.0,0.0,0.0,0.0,0.0,0.0,0.0,0.0,0.5918,0.6266,0.7862,0.9329,1.0567,1.3149,1.522,1.6696,1.8781,2.0046,2.0482,2.0858,1.9768,1.7543,1.769,1.6861,1.5353,1.5388,1.5365,1.5309,1.5245,0.0,0.0,0.0,0.0,0.0,0.0,0.0,0.0,0.0,1.494,1.5637,1.6307,1.6968,1.763,1.8126,1.8187,1.7954,1.7572,1.8273,1.9126,1.9296,2.0899,0.0,0.0,2.4596,2.5514,2.6138,2.6564,0.0,0.0,0.0,0.0,0.0,0.0,0.0,0.0,0.0,0.0,0.0,0.0,0.0,0.0,0.0,0.0,2.8992,2.8123,2.766,2.766,2.684,2.6336,2.6336,2.5221,2.4556,2.4556,2.3092,2.2472,2.2573,2.2249,2.1858,2.1419,2.0559,1.9806,1.9396,1.8659,1.8239,1.7991,1.7725,1.7497,1.7213,1.6897,1.6295,1.5585,1.5224,1.4873,1.4525,0.0,0.0,0.0,0.0,0.0,0.0,0.0,0.0,0.0,0.0,0.0,0.0,0.0,0.0,0.0,0.0,0.0,0.0,0.4274,0.498,0.5537,0.5925,0.736,0.8832,1.027,1.2558,1.4687,1.6619,1.9275,2.0603,2.0685,2.1017,1.9916,1.7675,1.7771,1.6931,1.5403,1.5388,1.5338,1.5257,1.5206,1.5121,0.0,0.0,0.0,0.0,0.0,0.0,0.0,0.0,1.4611,1.5063,1.5715,1.6361,1.695,1.7439,1.7596,1.7536,1.7261,1.7773,1.8532,1.8986,0.0,0.0,2.3596,2.4707,2.5684,2.6757,2.7009,0.0,0.0,0.0,0.0,0.0,0.0,0.0,0.0,0.0,0.0,0.0,0.0,0.0,0.0,2.772,2.7452,2.7379,2.6739,2.6284,2.6064,2.5604,2.5173,2.4945,2.3936,2.3262,2.3262,2.1593,2.0719,2.0394,1.9952,1.9784,1.9903,1.9056,1.8413,1.7786,1.7265,1.6951,1.6609,1.6551,1.6197,1.5952,1.5612,1.511,1.4515,1.4272,1.3918,1.3449,0.0,0.0,0.0,0.0,0.0,0.0,0.0,0.0,0.0,0.0,0.0,0.0,0.0,0.0,0.0,0.0,0.0,0.0,0.4273,0.4666,0.5108,0.5566,0.6629,0.8094,1.0031,1.1416,1.3806,1.7302,2.0023,2.118,2.0797,2.1119,2.006,1.7799,1.7865,1.6961,1.5409,1.5321,1.5253,1.5196,1.514,1.5019,0.0,0.0,0.0,0.0,0.0,0.0,0.0,0.0,1.4046,1.4097,1.4701,1.5261,1.5773,1.6256,1.6673,1.6995,1.7073,1.7333,1.7899,0.0,0.0,0.0,2.2977,2.4254,2.5483,2.6783,0.0,0.0,0.0,0.0,0.0,0.0,0.0,0.0,0.0,0.0,0.0,0.0,0.0,0.0,0.0,2.6675,2.6342,2.6125,2.5665,2.5154,2.4622,2.4347,2.3905,2.3368,2.2576,2.1906,2.1685,1.9838,1.8891,1.8884,1.7397,1.7259,1.8318,1.7595,1.6955,1.6624,1.6099,1.5779,1.5476,1.508,1.4692,1.4331,1.4208,1.3808,1.3204,1.3204,1.2719,1.2234,0.0,0.0,0.0,0.0,0.0,0.0,0.0,0.0,0.0,0.0,0.0,0.0,0.0,0.0,0.0,0.0,0.0,0.0,0.3869,0.4252,0.4686,0.5146,0.6248,0.733,0.8397,1.1253,1.3937,1.6394,1.819,1.9129,1.9262,2.018,1.9915,1.8687,1.8143,1.7285,1.6204,1.5523,1.5183,1.5127,1.5,1.4876,1.4728,0.0,0.0,0.0,0.0,0.0,0.0,0.0,0.0,0.0,1.4435,1.4634,1.4788,1.5613,1.5717,1.569,1.6203,1.6723,0.0,0.0,0.0,0.0,0.0,2.3406,0.0,0.0,0.0,0.0,0.0,0.0,0.0,0.0,0.0,0.0,0.0,0.0,0.0,0.0,0.0,0.0,2.5595,2.5112,2.4563,2.4171,2.395,2.3592,2.3054,2.2773,2.2433,2.1884,2.1012,2.0355,2.0032,1.8537,1.7692,1.7692,1.6227,1.6099,1.7153,1.6524,1.5998,1.5464,1.5357,1.4821,1.4207,1.4054,1.3814,1.3625,1.3246,1.284,1.2479,1.1997,1.1756,1.1514,0.0,0.0,0.0,0.0,0.0,0.0,0.0,0.0,0.0,0.0,0.0,0.0,0.0,0.0,0.0,0.0,0.0,0.0,0.0,0.3772,0.4216,0.4747,0.5651,0.6742,0.8022,1.068,1.2922,1.4722,1.6698,1.783,1.8193,1.9291,1.9394,1.8592,1.8125,1.7404,1.6499,1.556,1.5101,1.5008,1.4876,1.4737,1.4603,0.0,0.0,0.0,0.0,0.0,0.0,0.0,0.0,0.0,1.3748,1.3859,1.4018,1.4664,1.474,1.477,1.56,1.6082,0.0,1.7389,0.0,0.0,0.0,0.0,0.0,0.0,0.0,0.0,0.0,0.0,0.0,0.0,0.0,0.0,0.0,0.0,0.0,0.0,0.0,2.502,2.4627,2.4134,2.3529,2.3029,2.2749,2.2253,2.1626,2.1552,2.1102,2.0342,1.9476,1.8939,1.8509,1.7016,1.6235,1.6121,1.4888,1.46,1.5232,1.5238,1.4922,1.4504,1.4288,1.3743,1.3019,1.3003,1.2786,1.2454,1.2252,1.1877,1.139,1.1031,1.0789,1.0425,0.0,0.0,0.0,0.0,0.0,0.0,0.0,0.0,0.0,0.0,0.0,0.0,0.0,0.0,0.0,0.0,0.0,0.0,0.0,0.0,0.3695,0.4309,0.5011,0.6385,0.8539,0.9844,1.1228,1.2699,1.5447,1.7014,1.7409,1.8581,1.872,1.8008,1.7929,1.7404,1.6521,1.5517,1.5,1.485,1.4737,1.4592,1.4453,1.4331,0.0,0.0,0.0,0.0,0.0,0.0,0.0,0.0,1.2801,1.2963,1.327,1.347,1.3644,1.4016,1.5083,0.0,0.0,1.7008,0.0,0.0,0.0,0.0,0.0,0.0,0.0,0.0,0.0,0.0,0.0,0.0,0.0,0.0,0.0,0.0,0.0,2.5137,2.4735,2.4233,2.3935,2.3429,2.2929,2.2426,2.1827,2.1208,2.038,2.0368,1.9909,1.8735,1.8198,1.7659,1.7003,1.5576,1.4713,1.4385,1.3527,1.2989,1.2772,1.363,1.3851,1.3532,1.2989,1.2455,1.1955,1.199,1.1693,1.1165,1.1144,1.0789,1.0183,1.0183,0.9697,0.9214,0.0,0.0,0.0,0.0,0.0,0.0,0.0,0.0,0.0,0.0,0.0,0.0,0.0,0.0,0.0,0.0,0.0,0.0,0.0,0.0,0.3208,0.3819,0.5182,0.6724,0.8395,0.9397,1.057,1.1949,1.4175,1.573,1.6673,1.837,1.9062,1.881,1.8127,1.7644,1.7245,1.5589,1.4794,1.465,1.4512,1.4374,1.4257,1.4177,1.4072,0.0,0.0,0.0,0.0,0.0,0.0,0.0,1.2439,1.2169,1.2015,1.217,1.2157,1.2355,1.3506,1.4158,0.0,0.0,1.7134,1.8379,0.0,0.0,0.0,0.0,0.0,0.0,0.0,0.0,0.0,0.0,0.0,0.0,0.0,0.0,0.0,2.4035,2.3728,2.3329,2.2929,2.2325,2.1827,2.1326,2.0704,2.0078,1.9242,1.9002,1.8303,1.7251,1.6612,1.6083,1.5439,1.431,1.3521,1.3295,1.2327,1.1787,1.1568,1.2436,1.2654,1.2332,1.1787,1.1546,1.1483,1.1135,1.0845,1.0635,1.0233,0.9822,0.9457,0.8967,0.872,0.8601,0.0,0.0,0.0,0.0,0.0,0.0,0.0,0.0,0.0,0.0,0.0,0.0,0.0,0.0,0.0,0.0,0.0,0.0,0.0,0.0,0.2975,0.4004,0.5276,0.6547,0.779,0.8675,0.9795,1.1166,1.2862,1.4234,1.5292,1.7495,1.8482,1.8418,1.7924,1.7603,1.7337,1.5499,1.4629,1.4497,1.435,1.4214,1.4101,1.4026,1.39,1.3733,1.3527,0.0,0.0,0.0,0.0,0.0,0.0,0.0,1.123,1.133,1.1248,1.1291,1.2102,0.0,0.0,1.4685,0.0,1.7333,1.7758,0.0,0.0,0.0,0.0,0.0,0.0,0.0,0.0,0.0,0.0,0.0,0.0,0.0,2.3329,2.3129,2.2828,2.2426,2.2123,2.1412,2.0798,2.0498,1.9768,1.8938,1.8304,1.7786,1.7047,1.5885,1.5351,1.4821,1.418,1.3093,1.2327,1.1991,1.1126,1.0468,1.0135,1.1126,1.1459,1.1131,1.0802,1.0687,1.0642,1.0234,1.0051,0.9979,0.9398,0.8967,0.8604,0.8113,0.7872,0.7627,0.0,0.0,0.0,0.0,0.0,0.0,0.0,0.0,0.0,0.0,0.0,0.0,0.0,0.0,0.0,0.0,0.0,0.0,0.0,0.0,0.0,0.426,0.5257,0.621,0.7187,0.8054,0.914,1.0406,1.1836,1.2947,1.3825,1.6536,1.7761,1.7655,1.76,1.7443,1.7135,1.5325,1.4481,1.4338,1.4193,1.4074,1.3934,1.3853,1.3717,1.3526,1.3329,1.3104,1.2852,1.2517,0.0,0.0,0.0,0.0,1.0516,1.0469,1.0346,1.0314,1.0837,0.0,1.251,1.3778,1.4951,0.0,1.6419,1.7058,0.0,0.0,0.0,0.0,0.0,0.0,0.0,0.0,0.0,0.0,0.0,2.2332,2.2156,2.2215,2.1717,2.1412,2.1412,2.049,1.9872,1.9768,1.8833,1.7898,1.7371,1.6736,1.5879,1.4821,1.4277,1.3635,1.2989,1.2005,1.1236,1.0798,0.9923,0.9258,0.8813,0.9809,1.0139,1.0033,1.0033,0.9924,0.9777,0.9327,0.9248,0.9297,0.856,0.8113,0.7627,0.7263,0.7021,0.6655,0.0,0.0,0.0,0.0,0.0,0.0,0.0,0.0,0.0,0.0,0.0,0.0,0.0,0.0,0.0,0.0,0.0,0.0,0.0914,0.0,0.0,0.4022,0.5066,0.611,0.7176,0.8116,0.8932,0.9644,1.1618,1.2691,0.0,0.0,0.0,1.7509,1.7452,1.7267,1.6916,1.5111,1.4268,1.4123,1.3987,1.3868,1.3728,1.3589,1.3461,1.3312,1.3122,1.2834,1.2517,1.2179,1.176,0.0,0.0,0.0,0.9332,0.8875,0.868,0.8772,0.9532,0.0,1.217,0.0,1.3886,1.4529,0.0,0.0,1.6217,0.0,0.0,0.0,0.0,0.0,0.0,0.0,2.0798,2.0728,2.0998,2.0856,2.0777,2.1081,2.0601,2.0285,2.0285,1.945,1.8826,1.8632,1.7799,1.7067,1.6537,1.5678,1.4815,1.3943,1.3305,1.2659,1.1787,1.1131,1.0468,0.9581,0.8706,0.8156,0.8156,0.8266,0.8595,0.9034,0.8813,0.8864,0.9007,0.8668,0.8355,0.8094,0.7986,0.7627,0.6898,0.6285,0.6039,0.5916,0.0,0.0,0.0,0.0,0.0,0.0,0.0,0.0,0.0,0.0,0.0,0.0,0.0,0.0,0.0,0.0405,0.0426,0.0559,0.0892,0.1829,0.2804,0.379,0.4896,0.6024,0.7178,0.8122,0.8905,0.9554,1.1609,0.0,0.0,1.6126,1.7579,0.0,0.0,0.0,1.6735,1.5374,1.446,1.3912,1.3793,1.3653,1.3509,0.0,0.0,0.0,0.0,0.0,0.0,0.0,0.0,1.0866,0.9927,0.0,0.0,0.0,0.7797,0.7987,0.8681,0.9461,1.0256,0.0,1.2087,1.2828,1.3308,0.0,1.4717,1.5035,1.5878,1.7017,0.0,1.8806,1.9051,1.9303,1.9174,1.9202,1.946,1.9475,1.9542,1.9694,1.9354,1.9146,1.9146,1.8422,1.7793,1.747,1.6736,1.5998,1.5357,1.4498,1.3743,1.2975,1.2219,1.1673,1.1131,1.0135,0.9254,0.8377,0.7934,0.7715,0.7601,0.7379,0.7712,0.8374,0.8263,0.8382,0.8577,0.8069,0.785,0.7774,0.7235,0.6773,0.6285,0.5792,0.5546,0.5302,0.0,0.0,0.0,0.0,0.0,0.0,0.0,0.0,0.0,0.0,0.0,0.0,0.0,0.0,0.0,0.0,0.0067,0.0336,0.0914,0.1679,0.2571,0.3612,0.4781,0.5977,0.721,0.8165,0.8973,0.9619,0.0,0.0,1.2762,1.5811,1.7242,0.0,1.7944,1.7766,0.0,0.0,0.0,0.0,0.0,0.0,0.0,0.0,0.0,0.0,0.0,0.0,0.0,0.0,0.0,0.0,0.0,0.0,0.0,0.0,0.0,0.0,0.0,0.0,0.8551,0.9446,1.0342,1.116,0.0,0.0,1.3172,0.0,1.3926,1.4536,1.6224,1.7022,1.7404,1.7538,1.7588,1.7609,1.7843,1.7996,1.8196,1.8361,1.817,1.8025,1.7989,1.7378,1.6749,1.6305,1.5666,1.503,1.4283,1.3527,1.2767,1.211,1.1345,1.0798,1.0249,0.9147,0.8263,0.7607,0.7496,0.7271,0.7046,0.6712,0.6937,0.7604,0.7604,0.7676,0.7803,0.747,0.7348,0.7222,0.6609,0.6037,0.5669,0.5298,0.4931,0.4562,0.0,0.0,0.0,0.0,0.0,0.0,0.0,0.0,0.0,0.0,0.0,0.0,0.0022,-0.0045,-0.0112,-0.018,-0.018,0.0112,0.0758,0.1438,0.2336,0.3454,0.4734,0.0,0.7257,0.8277,0.9082,0.9695,0.0,0.0,1.2749,1.5146,1.6546,1.7046,1.778,1.7863,1.7346,0.0,0.0,0.0,0.0,0.0,0.0,0.0,0.0,0.0,0.0,0.0,0.0,0.0,0.0,0.0,0.0,0.0,0.0,0.0,0.0,0.0,0.0,0.6976,0.0,0.841,0.901,0.0,0.0,0.0,0.0,0.0,1.2722,1.2991,1.3354,1.4572,1.5604,1.59,1.5947,1.6048,1.635,1.641,1.6626,1.719,1.7071,1.6873,1.681,1.653,1.6004,1.5143,1.4821,1.4283,1.3423,1.2767,1.2001,1.1236,1.0911,1.0139,0.903,0.8156,0.7607,0.7607,0.7049,0.6712,0.6715,0.6495,0.6386,0.6386,0.6386,0.6442,0.6543,0.6652,0.6525,0.6386,0.6002,0.5669,0.5298,0.4684,0.4192,0.3944,0.0,0.0,0.0,0.0,0.0,0.0,0.0,0.0,0.0,0.0,0.0,0.0,0.0,-0.0337,-0.0382,-0.045,-0.0292,0.0045,0.0624,0.1348,0.2246,0.3379,0.4734,0.6089,0.7387,0.8365,0.9163,0.0,0.0,1.2134,1.2683,1.4506,1.564,1.6208,1.7435,1.7758,1.7329,1.6567,0.0,0.0,0.0,0.0,0.0,0.0,0.0,0.0,0.0,0.0,0.0,0.0,0.0,0.0,0.0,0.0,0.0,0.0,0.0,0.0,0.0,0.0,0.0,0.7117,0.7806,0.8468,0.9098,0.9753,1.0324,1.0761,1.1305,1.1776,1.2198,1.3429,1.4496,1.459,1.4754,1.4904,1.5005,1.5174,1.5356,1.5551,1.5543,1.5451,1.5392,1.5217,1.4764,1.4169,1.3743,1.331,1.2767,1.1787,1.1131,1.0802,1.0253,0.9372,0.8374,0.7826,0.7385,0.7049,0.6826,0.6604,0.6383,0.6161,0.5935,0.5935,0.5828,0.5958,0.6341,0.6281,0.6136,0.5825,0.5612,0.53,0.4684,0.419,0.3946,0.3577,0.0,0.0,0.0,0.0,0.0,0.0,0.0,0.0,0.0,-0.0233,0.0,0.0,0.0,0.0,-0.065,-0.0704,-0.0479,-0.009,0.0468,0.1348,0.2331,0.3414,0.4838,0.6224,0.7567,0.851,0.9279,0.9863,1.0909,1.1669,1.2204,1.3733,1.4748,1.5324,1.6514,1.7143,0.0,0.0,0.0,1.607,0.0,0.0,1.6265,0.0,0.0,0.0,0.0,0.0,0.0,0.0,0.0,0.0,0.0,0.0,0.0,0.0,0.0,0.0,0.4904,0.0,0.0,0.0,0.6573,0.7133,0.765,0.0,0.8996,0.9385,0.9953,1.0534,1.0939,1.2003,1.3008,1.3466,1.3802,1.3969,1.3969,1.4104,1.4299,1.4283,1.4354,1.4361,1.4194,1.3986,1.3678,1.3194,1.2837,0.0,1.1896,1.1126,1.0468,1.0139,0.9372,0.8602,0.7826,0.7493,0.7049,0.6715,0.649,0.627,0.6161,0.5824,0.5712,0.5601,0.5491,0.5605,0.5953,0.5773,0.562,0.5426,0.5205,0.4785,0.4315,0.3946,0.3577,0.3332,0.0,0.0,0.0,0.0,0.0,0.0,0.0,0.0,-0.0489,-0.068,0.0,0.0,0.0,0.0,0.0,-0.0913,-0.0731,-0.036,0.0246,0.1441,0.2554,0.3577,0.5021,0.6448,0.7773,0.8723,0.9469,0.9998,1.0918,1.1334,1.132,1.2813,1.3812,1.4366,1.5035,1.5993,1.7022,0.0,1.6261,1.7239,0.0,1.7124,1.7461,0.0,0.0,0.0,1.6585,1.5898,0.0,0.0,0.0,0.0,0.0,0.0,0.0,0.0,0.0,0.0,0.0,0.0,0.0,0.0,0.0,0.0,0.6579,0.0,0.7447,0.8146,0.869,0.9138,0.9448,1.0093,1.1107,1.2473,1.2963,1.3145,1.3151,1.3273,1.3425,1.3469,1.3496,1.3295,1.3033,1.3039,1.2745,1.2129,1.1985,1.1551,1.0794,1.0688,1.0139,0.8923,0.8263,0.7823,0.7607,0.7049,0.6715,0.6712,0.6044,0.5822,0.5824,0.5491,0.5382,0.5382,0.5382,0.5382,0.5388,0.5136,0.5105,0.5072,0.455,0.4378,0.4316,0.3702,0.3332,0.2961,0.0,0.0,0.0,0.0,0.0,0.0,-0.0555,-0.0635,-0.0692,0.0,0.0,0.0,-0.0866,-0.1007,-0.1112,-0.1118,-0.0943,-0.056,0.0049,0.1576,0.2873,0.3777,0.5276,0.672,0.8047,0.8962,0.9615,0.9994,1.0305,1.0721,1.1223,1.1577,1.2055,0.0,1.3365,1.403,1.4742,1.5904,0.0,0.0,1.7225,1.765,0.0,0.0,0.0,0.0,0.0,1.7441,0.0,0.0,1.2916,1.0846,0.0,0.0,0.0,0.0,0.0,0.0,0.416,0.0,0.0,0.0,0.0,0.0,0.0,0.0,0.6542,0.7058,0.7592,0.8153,0.866,0.9058,0.9524,1.0218,1.1211,1.1926,1.2099,1.2183,1.2214,1.2433,1.2263,1.2058,1.1986,1.1744,1.1527,0.0,1.091,1.0682,1.0485,0.9742,0.9144,0.8595,0.8045,0.7604,0.7268,0.6937,0.649,0.6044,0.5933,0.5712,0.5491,0.5154,0.5043,0.5043,0.4817,0.4706,0.4711,0.5021,0.487,0.4478,0.4311,0.4014,0.3701,0.3331,0.2961,0.259,0.0,0.0,0.0,0.0,0.0,-0.0698,-0.0698,-0.0783,-0.0856,0.0,0.0,0.0,-0.1234,-0.1282,-0.1337,-0.1337,-0.0976,-0.0519,0.0075,0.1567,0.2929,0.4063,0.5608,0.7055,0.8383,0.9217,0.9761,1.0038,1.0077,1.029,1.065,1.088,1.1189,0.0,0.0,0.0,0.0,0.0,0.0,0.0,1.7523,0.0,0.0,1.9192,1.9475,0.0,0.0,0.0,1.6516,1.5026,1.2724,0.0,0.0,0.0,0.0,0.0,0.0,0.0,0.0,0.0,0.0,0.0,0.0,0.0,0.4576,0.4956,0.5446,0.0,0.6438,0.6958,0.7472,0.7912,0.834,0.8704,0.9549,1.0411,1.1086,1.1213,1.1313,1.153,1.126,1.1146,1.1065,1.0751,1.0535,1.0548,1.0119,0.9785,0.9667,0.8904,0.8445,0.8069,0.7743,0.7329,0.7046,0.6715,0.627,0.5822,0.5712,0.5489,0.5156,0.5043,0.4817,0.4706,0.4592,0.4369,0.4262,0.4531,0.4478,0.4085,0.3913,0.3737,0.3424,0.2954,0.2714,0.2344,0.0,0.0,-0.0687,-0.0727,-0.0744,-0.0781,-0.0781,-0.0872,-0.1035,0.0,-0.1304,-0.1457,-0.1707,-0.1631,-0.1545,-0.1509,-0.0924,-0.0306,0.034,0.1734,0.3147,0.4496,0.6112,0.7539,0.8736,0.9457,0.9907,1.0104,1.0096,1.0001,0.99,1.055,1.0779,1.0731,0.0,0.0,0.0,0.0,0.0,1.6007,1.778,1.8497,0.0,0.0,1.9922,0.0,1.8785,1.7824,1.6564,1.461,1.1921,0.0,0.0,0.0,0.0,0.0,0.4326,0.0,0.0,0.0,0.0,0.0,0.0,0.0,0.3925,0.4092,0.4319,0.0,0.5327,0.5787,0.6092,0.6683,0.7308,0.763,0.8009,0.8751,1.0081,1.0437,1.0589,1.0707,1.055,1.0341,1.0232,1.0004,0.9803,0.9726,0.9503,0.8989,0.8455,0.8161,0.7806,0.7388,0.7283,0.7125,0.6584,0.6366,0.6038,0.571,0.5491,0.5156,0.4817,0.4819,0.4706,0.448,0.4369,0.4257,0.3924,0.3924,0.3963,0.3915,0.3503,0.3324,0.3261,0.2693,0.2463,0.2344,0.0,0.0,-0.1015,-0.1028,-0.1116,-0.1184,-0.1184,-0.1334,-0.1489,-0.152,-0.1562,-0.1689,-0.1837,-0.1852,-0.1753,-0.1524,-0.0867,-0.0032,0.0887,0.3244,0.4885,0.5513,0.7185,0.8404,0.9092,0.9607,0.9961,1.0093,0.9985,0.9889,0.9819,0.9916,0.9911,0.9895,0.0,0.0,0.0,0.0,0.0,1.5174,1.7478,0.0,1.8638,1.9867,2.0436,2.0469,1.9974,1.8939,1.7357,0.0,1.1294,0.963,0.0,0.0,0.0,0.0,0.0,0.0,0.0,0.0,0.0,0.0,0.0,0.0,0.3438,0.3672,0.3978,0.0,0.4666,0.5005,0.5536,0.574,0.6,0.6472,0.6698,0.7471,0.9061,0.9483,0.962,0.9813,0.9798,0.9622,0.937,0.9119,0.8921,0.887,0.8654,0.8402,0.7994,0.758,0.7334,0.7255,0.6831,0.6463,0.6253,0.5925,0.5524,0.5041,0.5043,0.4817,0.4592,0.426,0.4148,0.4036,0.3923,0.3699,0.3699,0.3362,0.3282,0.3334,0.3229,0.2938,0.2531,0.2419,0.2076,0.1605,0.0,-0.1211,-0.1246,-0.1284,-0.1451,-0.1566,-0.1566,-0.171,-0.1859,-0.1861,-0.1941,-0.2053,-0.2144,-0.2067,-0.185,-0.1429,-0.0511,0.0544,0.172,0.4106,0.5959,0.7008,0.8244,0.9237,0.9987,0.9974,0.9974,0.9994,0.9892,0.9819,0.9743,0.9677,0.9617,0.9616,0.0,0.0,0.0,0.0,1.5245,1.5336,1.7413,0.0,1.898,1.9946,2.0666,2.1054,2.0167,1.8567,1.6365,1.3513,1.1422,0.0,0.0,0.7099,0.6252,0.0,0.4873,0.4387,0.0,0.0,0.0,0.3108,0.0,0.0,0.0,0.3088,0.3299,0.3714,0.39,0.4096,0.4608,0.4809,0.5024,0.5431,0.5705,0.6226,0.7261,0.7897,0.8421,0.8777,0.8722,0.8579,0.8654,0.8398,0.8192,0.7882,0.7808,0.7534,0.7341,0.7065,0.6958,0.6709,0.6396,0.6137,0.5817,0.5603,0.522,0.4867,0.4759,0.4559,0.4258,0.4036,0.3813,0.3587,0.3362,0.3251,0.3141,0.2917,0.2817,0.2727,0.2751,0.2554,0.236,0.2038,0.1698,0.1345,-0.1331,-0.1432,-0.1497,-0.1569,-0.1738,-0.1882,-0.1882,-0.2057,-0.217,-0.2186,-0.2255,-0.2342,-0.2383,-0.2133,-0.1732,-0.1116,0.0177,0.1622,0.3094,0.5404,0.7353,0.8795,0.9726,1.0416,1.0844,0.9937,0.9337,0.91,0.9024,0.8956,0.8924,0.9387,0.9649,0.0,0.0,0.0,0.0,0.0,0.0,1.5943,0.0,1.8553,1.9406,1.9922,2.0725,2.1406,1.9893,1.7712,1.5207,1.35,0.0,0.9805,0.865,0.7452,0.0,0.0,0.0,0.0,0.0,0.0,0.0,0.0,0.0,0.2769,0.0,0.0,0.0,0.3022,0.3159,0.0,0.0,0.0,0.0,0.0,0.0,0.0,0.0,0.6204,0.0,0.7644,0.7586,0.7661,0.7875,0.7696,0.7434,0.7121,0.6979,0.6876,0.671,0.6637,0.6453,0.6146,0.6067,0.582,0.5499,0.5187,0.4915,0.4673,0.4459,0.4171,0.3795,0.3795,0.3578,0.3026,0.3026,0.2915,0.2693,0.2581,0.2469,0.2247,0.2278,0.218,0.2077,0.154,0.132,0.1209,-0.157,-0.1704,-0.1831,-0.1845,-0.2008,-0.2139,-0.2139,-0.2345,-0.2464,-0.2474,-0.2437,-0.2385,-0.2318,0.0,0.0,0.0,0.0,0.0,0.5458,0.0,1.0247,1.0834,1.2325,1.2471,1.1091,0.8731,0.7098,0.6262,0.6144,0.6077,0.6121,0.8497,0.995,0.0,1.1283,0.0,0.0,0.0,1.5733,0.0,1.741,1.8579,0.0,1.9822,2.0585,2.1436,1.9299,1.7329,1.5378,0.0,1.1328,0.9787,0.0,0.7304,0.0,0.0,0.0,0.0,0.0,0.0,0.0,0.0,0.2704,0.0,0.0,0.0,0.2297,0.2473,0.0,0.0,0.0,0.0,0.0,0.0,0.0,0.0,0.4435,0.4645,0.5298,0.6516,0.6927,0.7025,0.6972,0.6817,0.6682,0.6557,0.6427,0.6459,0.6472,0.6217,0.5997,0.5909,0.5511,0.52,0.5089,0.4782,0.4409,0.3951,0.3951,0.3666,0.3184,0.3184,0.2987,0.2693,0.2693,0.2693,0.2693,0.2356,0.2244,0.2245,0.2249,0.193,0.1495,0.1386,0.106,0.0603,-0.1784,-0.1918,0.0,-0.2014,-0.2312,-0.2506,-0.2428,-0.2509,-0.263,-0.2801,-0.2603,-0.2466,0.0,0.0,0.0,0.0,0.0,0.626,0.0,0.0,1.3252,1.4344,1.1974,1.0383,0.9835,0.5393,0.3002,0.2841,0.2753,0.3648,0.5525,0.7158,0.892,1.0774,1.2347,0.0,1.3826,0.0,0.0,0.0,0.0,0.0,0.0,1.9584,1.9761,1.9866,1.8277,1.6533,1.478,0.0,1.1224,0.0,0.0,0.0,0.0,0.0,0.0,0.0,0.0,0.0,0.0,0.0,0.0,0.0,0.0,0.0,0.2013,0.0,0.0,0.0,0.0,0.0,0.0,0.0,0.3074,0.0,0.0,0.0,0.4362,0.0,0.0,0.0,0.5914,0.5959,0.5942,0.5916,0.5832,0.5825,0.5874,0.5744,0.5582,0.5482,0.5088,0.4855,0.4692,0.4186,0.3814,0.3566,0.3357,0.3177,0.2803,0.2831,0.2636,0.2434,0.2458,0.2244,0.1907,0.1683,0.157,0.1458,0.1458,0.1352,0.1249,0.0917,0.0696,0.0471,-0.2045,0.0,0.0,0.0,-0.2528,-0.2778,-0.2757,-0.272,-0.2759,-0.2984,0.0,0.0,-0.2256,-0.0628,0.0,0.0,0.0,0.9664,0.0,0.0,1.5912,1.551,1.1571,0.0,0.0,0.1658,-0.0888,-0.0697,-0.0584,0.0672,0.2989,0.4401,0.6795,1.001,0.0,1.3186,1.4482,0.0,0.0,1.78,1.8778,1.922,1.9337,1.9305,1.8967,1.8376,1.7277,1.5742,1.4095,1.268,1.108,0.0,0.8792,0.0,0.0,0.0,0.0,0.0,0.4455,0.0,0.0,0.0,0.0,0.0,0.0,0.0,0.0,0.0,0.0,0.0,0.0,0.0,0.0,0.2252,0.0,0.2529,0.0,0.3047,0.0,0.0,0.0,0.0,0.0,0.5155,0.524,0.5196,0.5178,0.5127,0.519,0.5296,0.5193,0.4955,0.4753,0.4512,0.4137,0.3736,0.3355,0.3193,0.2883,0.2703,0.2434,0.2359,0.2168,0.197,0.1884,0.1564,0.1234,0.1234,0.1121,0.0897,0.0785,0.0897,0.1011,0.0568,0.0344,0.0231,-0.2341,-0.2374,0.0,0.0,0.0,0.0,-0.3152,-0.2939,0.0,0.0,0.0,0.0,0.0,0.0,0.0,0.0,0.0,1.3913,1.7246,0.0,1.8021,0.0,0.0,0.0,0.0,0.0,-0.3852,-0.4234,-0.3653,-0.3306,-0.315,-0.0404,0.3429,0.7995,0.827,1.1232,1.6081,1.6997,1.7815,1.8499,1.8744,1.8578,1.8345,0.0,1.851,1.7343,1.6369,0.0,0.0,1.2079,1.0826,0.0,0.0,0.0,0.0,0.0,0.0,0.0,0.0,0.0,0.0,0.3118,0.0,0.0,0.0,0.0,0.1327,0.0,0.0,0.0,0.0,0.0,0.1762,0.189,0.1984,0.0,0.0,0.0,0.0,0.0,0.0,0.0,0.0,0.4417,0.4539,0.4439,0.4434,0.4494,0.4701,0.4741,0.4669,0.4571,0.4371,0.4062,0.3635,0.3332,0.3029,0.2828,0.2524,0.2345,0.2075,0.1869,0.1588,0.1312,0.1094,0.0884,0.0897,0.0897,0.0897,0.0897,0.0561,0.0449,0.0449,0.0449,0.0227,0.0,0.0,0.0,0.0,0.0,0.0,0.0,0.0,-0.3211,0.0,0.0,0.0,0.0,0.0,0.0,0.7722,0.0,0.0,1.8634,2.1568,1.8568,0.0,0.0,0.0,-0.0696,0.0,0.0,0.0,-0.8238,-0.7635,-0.6227,-0.4056,-0.2446,0.1556,0.7443,0.0,1.2383,0.0,0.0,0.0,0.0,0.0,1.8289,1.7668,0.0,0.0,1.6307,1.4882,1.368,0.0,1.1205,1.011,0.9122,0.8398,0.7696,0.6943,0.6448,0.5789,0.0,0.0,0.0,0.355,0.2948,0.0,0.0,0.0,0.0,0.0,0.0,0.0,0.0,0.0,0.0,0.1151,0.1342,0.1434,0.1512,0.0,0.0,0.0,0.0,0.0,0.0,0.0,0.0,0.3873,0.3988,0.4049,0.4112,0.433,0.4396,0.433,0.412,0.4023,0.3836,0.3269,0.301,0.2726,0.2223,0.2223,0.1925,0.153,0.1445,0.1262,0.1077,0.0979,0.0773,0.0561,0.0561,0.0449,0.0336,0.0224,0.0,-0.0112,0.0112,0.0113,0.0,-0.3025,0.0,0.0,0.0,0.0,0.0,0.0,0.0,0.0,0.0,-0.1039,0.0,0.4711,0.0,1.2945,0.0,2.104,2.2143,2.1861,1.7966,0.0,0.7963,-0.0825,0.0,0.0,0.0,0.0,0.0,0.0,-0.8456,-0.6117,-0.5419,-0.2008,0.3658,0.0,1.0866,1.5122,0.0,1.9524,0.0,0.0,1.7617,0.0,0.0,1.5645,1.4972,0.0,1.2531,1.1632,1.0487,0.96,0.8829,0.8301,0.756,0.6812,0.6374,0.5717,0.4991,0.4379,0.3887,0.0,0.2695,0.2242,0.0,0.1407,0.0,0.0,0.0,0.0,0.0,0.0,0.0,0.0689,0.0826,0.0933,0.108,0.0,0.1459,0.0,0.0,0.0,0.0,0.0,0.0,0.3334,0.3465,0.3591,0.3687,0.0,0.3948,0.3907,0.3674,0.3633,0.3457,0.2942,0.2781,0.2407,0.2022,0.1819,0.1516,0.1213,0.1023,0.0935,0.074,0.0646,0.0438,0.0111,0.0112,-0.0112,-0.0336,-0.0336,-0.0449,-0.0561,-0.0224,-0.0224,-0.0337,0.0,0.0,0.0,0.0,-0.3096,0.0,0.0,0.0,-0.2213,0.0,0.1054,0.3877,0.7282,1.4042,1.9433,2.1995,2.471,0.0,1.8743,1.7038,0.0,0.0,-0.5883,-0.9112,-1.4747,0.0,0.0,0.0,0.0,0.0,-0.938,-0.9152,-0.69,-0.282,0.2307,0.0,1.1402,1.6881,1.9264,1.9294,1.7857,1.6656,1.5573,1.4177,1.3597,1.3433,1.2573,1.1608,1.0701,1.0008,0.9315,0.8674,0.8148,0.7489,0.6762,0.6102,0.5495,0.486,0.4022,0.3606,0.3179,0.24,0.1847,0.0,0.0,0.0,0.0253,0.0,0.0,0.0,0.0,0.0,0.0,0.0358,0.0528,0.0752,0.1055,0.0,0.0,0.0,0.0,0.0,0.0,0.2769,0.2896,0.2858,0.3074,0.315,0.0,0.3351,0.3428,0.3203,0.3221,0.3044,0.2639,0.2449,0.2179,0.1918,0.1414,0.1212,0.1111,0.0606,0.0408,0.0312,0.0106,-0.0216,-0.0439,-0.0446,-0.0561,-0.0897,-0.0897,-0.0897,-0.0897,-0.0561,-0.0673,-0.0897,-0.3655,-0.3628,-0.3519,0.0,-0.33,-0.3297,0.0,0.0,0.0,0.0,0.3508,0.7767,1.4323,1.8273,2.2147,2.6495,2.3117,0.0,0.0,0.0,0.0,-0.6653,-1.2619,-1.6183,-1.6896,-1.6152,0.0,-1.3343,0.0,0.0,-1.0559,-0.9944,-0.7497,-0.3362,0.0,0.0,1.1994,1.6858,1.8614,1.808,1.7197,1.5946,1.4455,0.0,1.2352,1.1717,1.1311,1.0873,1.0352,0.9561,0.9018,0.8551,0.7988,0.7198,0.6411,0.5859,0.51,0.4348,0.372,0.3203,0.2629,0.2023,0.1477,0.1015,0.0,0.0,0.0,0.0,0.0,0.0,0.0,0.0,0.0,-0.0083,0.0154,0.0435,0.0,0.0,0.0,0.1172,0.0,0.0,0.214,0.2284,0.2453,0.2615,0.272,0.2782,0.0,0.0,0.3142,0.2999,0.2973,0.2731,0.2349,0.2129,0.187,0.1386,0.1305,0.101,0.0606,0.0505,0.0204,-0.0208,-0.0318,-0.0431,-0.0767,-0.078,-0.0785,-0.0897,-0.0897,-0.1009,-0.1121,-0.0897,-0.0785,-0.0897,-0.4174,0.0,0.0,-0.3447,0.0,0.0,-0.2437,0.0,0.0,0.3135,0.6732,0.0,1.839,2.2402,2.4699,2.4938,2.1816,0.0,0.0,0.0,0.0,-1.372,-1.765,-1.9472,-1.8977,-1.765,0.0,-1.466,0.0,0.0,-1.1065,-1.0353,-0.8813,-0.6374,-0.1536,0.378,0.9494,1.6333,1.8476,1.7207,1.6428,1.508,0.0,1.2227,1.1268,1.0514,1.0079,0.9971,0.9832,0.9149,0.8613,0.8221,0.7655,0.6945,0.6239,0.5601,0.4848,0.4032,0.3407,0.2823,0.2173,0.1543,0.0982,0.0445,0.0062,-0.0419,-0.0874,0.0,-0.1096,0.0,0.0,0.0,0.0,0.0,0.0,0.0,0.0,0.0,0.0,0.0,0.1138,0.0,0.1689,0.1888,0.2052,0.2186,0.2371,0.0,0.0,0.0,0.2637,0.2557,0.2541,0.2301,0.1826,0.1807,0.1558,0.0982,0.0901,0.0606,0.0202,0.0101,-0.0203,-0.0616,-0.0523,-0.0745,-0.1082,-0.1101,-0.1114,-0.1346,-0.1346,-0.1458,-0.1683,-0.157,-0.1346,-0.1346,0.0,0.0,0.0,0.0,0.0,0.0,0.0,0.0437,0.0,0.6049,0.0,1.5438,1.9703,2.4762,2.5364,1.9326,0.0,1.076,-0.538,-0.8574,-1.359,-2.2054,-2.136,-2.0772,-2.0777,-1.8919,0.0,0.0,0.0,-1.2747,-1.1333,-1.0677,-1.0327,-1.0084,-0.6059,0.0,0.0,1.5762,1.85,1.6508,1.5538,1.4109,1.2414,1.1122,1.0292,0.9649,0.8964,0.8972,0.9265,0.8695,0.8279,0.787,0.7296,0.6709,0.6046,0.5324,0.4517,0.3713,0.2985,0.2332,0.1668,0.0921,0.0346,-0.0202,-0.0591,-0.1022,-0.1497,-0.1675,-0.1718,-0.1813,0.0,0.0,0.0,0.0,0.0,0.0,0.0,0.0,0.0,0.0,0.0,0.0,0.1209,0.1556,0.1772,0.1792,0.0,0.0,0.0,0.0,0.215,0.217,0.1959,0.1711,0.1429,0.14,0.1154,0.0783,0.05,0.0202,-0.0101,-0.0303,-0.0606,-0.0809,-0.0824,-0.1049,-0.1386,-0.1411,-0.1546,-0.1907,-0.1907,-0.202,-0.2244,-0.2244,-0.2132,-0.1908,0.0,0.0,0.0,0.0,0.0,-0.0194,0.2421,0.3813,0.6194,1.0678,1.5927,1.8536,1.6655,1.9484,1.8631,1.1529,0.2898,0.0,0.0,0.0,0.0,-2.4147,-2.3897,-2.3039,-2.1676,-2.0549,-1.8865,0.0,-1.5529,-1.4065,-1.2179,-1.1562,-1.1002,-1.037,-0.6375,0.0,0.9229,1.614,0.0,1.5796,1.4705,1.33,1.1646,1.0469,0.9696,0.9216,0.8384,0.8476,0.8839,0.8111,0.7856,0.7685,0.6931,0.6163,0.5393,0.4646,0.3843,0.2987,0.2332,0.1604,0.0874,0.0217,-0.0361,-0.0857,-0.1391,-0.1759,-0.2042,-0.2186,-0.2423,-0.2504,-0.2262,0.0,0.0,0.0,0.0,0.0,0.0,0.0,0.0,0.0,0.0,0.0,0.0,0.1322,0.0,0.0,0.0,0.0,0.0,0.0,0.1726,0.0,0.1582,0.1422,0.0,0.0,0.0764,0.0479,0.0199,-0.0101,-0.0303,-0.0606,-0.0909,-0.1113,-0.1236,-0.1364,-0.16,-0.1737,-0.1878,-0.2132,-0.2469,-0.2581,-0.2581,-0.2581,-0.2581,-0.2586,0.0,0.0,0.0,0.0,0.0,0.0,0.0,0.9284,0.0,1.5732,1.7088,1.7681,1.7406,1.529,1.0227,0.1117,-0.5098,-1.1063,-1.7158,-2.2754,-2.5743,-2.5664,-2.5132,0.0,-2.2821,-2.1794,-2.0227,-1.8149,-1.6778,-1.5235,-1.3601,-1.2678,-1.2085,-1.1676,0.0,-0.1607,0.0,0.0,0.0,1.5437,1.401,1.231,1.0514,0.9518,0.8776,0.818,0.7609,0.7572,0.7647,0.7346,0.7331,0.7169,0.6321,0.5659,0.5073,0.4232,0.3436,0.2575,0.1818,0.106,0.0227,-0.0522,-0.1114,-0.1697,-0.2229,-0.2522,-0.2737,-0.2969,-0.3055,-0.3018,-0.2728,-0.2561,0.0,0.0,0.0,0.0,0.0,0.0,0.0,0.0,0.0,0.0,0.0,0.0,0.0,0.0,0.0,0.0,0.0,0.0,0.1293,0.0,0.0,0.0,0.0855,0.0,0.0381,0.0,-0.0099,-0.0404,-0.0808,-0.0909,-0.1111,-0.1416,-0.1647,-0.1782,-0.2028,-0.2193,-0.2339,-0.2469,-0.2581,-0.2806,-0.2915,-0.2915,-0.3045,-0.3185,0.0,-0.6136,0.0,0.0,-0.2625,0.0,0.5016,1.0486,1.5052,1.7772,1.6857,1.5322,1.3788,0.8223,0.035,-1.0226,-1.2627,-1.7284,-2.6076,-2.7183,-2.7306,-2.7047,-2.629,-2.5315,-2.4163,-2.2986,-2.1499,0.0,-1.8058,-1.644,-1.489,-1.3927,-1.3486,-1.3373,0.0,0.0,0.0,0.0,0.9411,1.2608,1.2358,1.1034,0.9212,0.8466,0.7673,0.7061,0.6663,0.6402,0.6251,0.6321,0.6475,0.6398,0.5622,0.5002,0.4538,0.3761,0.2901,0.2038,0.1254,0.0392,-0.0469,-0.1227,-0.1829,-0.2422,-0.3027,-0.3166,-0.3313,-0.3642,-0.3551,-0.3404,-0.3278,-0.3156,0.0,0.0,0.0,0.0,0.0,0.0,0.0,0.0,0.0,0.0,0.0,0.0,0.0,0.0,0.0,0.0,0.1152,0.0,0.0,0.0,0.0,0.0491,0.0253,0.0,0.0,-0.0477,-0.0496,-0.0808,-0.1313,-0.1314,-0.1515,-0.182,-0.2058,-0.2205,-0.2363,-0.2659,-0.2806,-0.2806,-0.2918,-0.3029,-0.3251,-0.3264,-0.3523,-0.3798,0.0,0.0,0.0,0.0,0.0,0.0,-0.3318,0.0117,0.5313,1.2794,1.6413,1.2512,-0.2625,-0.6204,-1.1595,-2.1822,-2.4719,-2.6711,-2.8602,-2.9087,-2.9133,-2.8697,-2.8006,-2.7117,-2.5969,-2.4355,-2.262,0.0,0.0,-1.7748,-1.5255,-1.5272,-1.5301,0.0,0.0,0.0,0.0,0.1772,0.5299,0.3948,0.8522,0.9428,0.7856,0.7032,0.6396,0.5986,0.5622,0.5318,0.5082,0.4771,0.5007,0.5318,0.4696,0.407,0.3446,0.2823,0.2038,0.1254,0.0392,-0.0549,-0.1332,-0.1955,-0.2578,-0.3102,-0.3483,-0.3618,-0.3743,-0.3865,-0.3754,-0.3663,-0.4011,-0.3732,-0.3382,0.0,0.0,0.0,0.0,0.0,0.0,0.0,0.0,0.0,0.0,0.0,0.0,0.0,0.0337,0.0,0.0,0.0,0.0,0.054,0.0449,0.0242,0.0,-0.0183,-0.0477,-0.0763,-0.0992,-0.1313,-0.1617,-0.1819,-0.2121,-0.2324,-0.247,-0.2538,-0.2623,-0.2892,-0.3026,-0.3138,-0.3363,-0.3475,-0.3594,-0.3993,-0.4134,-0.4157,0.0,0.0,0.0,0.0,0.0,0.0,0.0,-0.5004,-0.3245,-0.3668,-0.04,-0.0822,-0.8177,-1.509,-2.1283,-2.6531,-2.8339,-2.9434,-3.0072,-3.0283,-3.0189,-2.9624,-2.8971,-2.8083,-2.6974,-2.5854,-2.4408,0.0,0.0,-1.9782,-1.7985,-1.7151,-1.6988,0.0,0.0,-1.3007,-0.9506,-0.454,-0.0436,0.3104,0.5836,0.6463,0.5693,0.5342,0.4876,0.4377,0.4226,0.399,0.3834,0.3368,0.3761,0.4307,0.3604,0.2978,0.2352,0.1726,0.0942,0.0157,-0.0549,-0.1411,-0.2195,-0.2743,-0.3368,-0.3982,-0.433,-0.454,-0.4575,-0.4673,-0.4458,-0.4333,-0.4449,-0.4267,-0.4066,-0.3703,0.0,0.0,0.0,0.0,0.0,0.0,0.0,0.0,0.0,0.0,0.0,0.0,0.0,0.0,0.0,0.0,0.0,0.0134,0.0,-0.0321,-0.0421,-0.055,-0.0763,-0.1049,-0.129,-0.1617,-0.1819,-0.2121,-0.2452,-0.2715,-0.2871,-0.3042,-0.3222,-0.3353,-0.3362,-0.3474,-0.3699,-0.3813,-0.3932,-0.4339,-0.451,-0.4563,-0.9586,0.0,-1.4229,0.0,-1.66,-1.6658,-1.5136,-1.351,-1.4192,-1.9021,-1.7463,-1.5887,-1.5789,-2.269,-2.7994,-2.9553,-3.0453,-3.0999,-3.1233,-3.1364,-3.1228,-3.0708,-3.0067,0.0,-2.8195,-2.739,-2.6178,-2.4487,-2.3126,0.0,-2.0473,-1.9101,-1.8628,0.0,-1.9727,-1.7231,-1.2371,-1.0076,-0.5881,-0.0571,0.2329,0.3424,0.3343,0.3409,0.3205,0.282,0.282,0.2662,0.2427,0.2037,0.2273,0.2665,0.2431,0.196,0.1333,0.0628,-0.0157,-0.0942,-0.1568,-0.235,-0.3056,-0.3602,-0.4148,-0.4774,-0.5004,-0.5143,-0.5229,-0.5203,-0.4986,-0.48,-0.4764,-0.4684,-0.4577,-0.4258,0.0,0.0,0.0,0.0,0.0,0.0,-0.1662,-0.1409,-0.1039,-0.0877,0.0,0.0,0.0,0.0,0.0,0.0,0.0,0.0,0.0,0.0,-0.0758,-0.0916,-0.1144,-0.1431,-0.1687,-0.202,-0.2223,-0.2538,-0.2907,-0.3224,-0.3264,-0.3533,-0.381,-0.381,-0.381,-0.3923,-0.4035,-0.4161,-0.4186,-0.4601,-0.4791,-0.4986,-0.9765,-1.4305,-1.9137,-2.2603,-2.298,-2.3844,-2.6918,-2.7694,-2.8556,-3.0386,-3.1362,-3.0985,-2.8516,-2.9748,-3.104,-3.1819,-3.2296,-3.2547,-3.2398,-3.2398,-3.2342,0.0,0.0,-3.0846,-3.006,-2.8978,-2.772,-2.6363,0.0,0.0,-2.2164,0.0,-2.0342,-2.0127,-2.0769,-2.1087,-2.061,-1.3858,-1.0744,-0.9835,-0.2643,0.0528,0.0935,0.1249,0.133,0.1332,0.1332,0.1175,0.0862,0.0705,0.0392,0.0157,0.1019,0.0863,0.0236,-0.0392,-0.1175,-0.2038,-0.2589,-0.3446,-0.4146,-0.4304,-0.4851,-0.5321,-0.5321,-0.5378,-0.543,-0.5294,-0.5061,-0.4827,-0.5087,-0.4957,-0.4782,-0.4644,0.0,0.0,0.0,0.0,0.0,0.0,-0.2336,-0.202,-0.1544,-0.1391,0.0,0.0,0.0,0.0,0.0,0.0,0.0,-0.0558,-0.0604,0.0,-0.101,-0.1375,-0.1717,-0.1909,-0.228,-0.2522,-0.2827,-0.3086,-0.3491,-0.3934,-0.3935,-0.4082,-0.4479,-0.4479,-0.4479,-0.4479,-0.448,-0.4526,-0.4601,-0.5029,-0.5228,-0.5307,-1.2679,-1.5454,-1.8786,-2.1911,-2.5201,-2.8435,-3.1661,-3.4372,-3.5941,-3.568,-3.466,-3.3794,-3.3301,-3.3002,-3.2951,0.0,-3.3439,-3.3471,0.0,-3.3314,-3.3224,-3.3065,-3.2458,-3.1934,-3.1596,-3.03,-2.914,-2.8185,0.0,0.0,0.0,-2.2577,-2.2222,-2.2119,-2.1636,-2.1016,-1.9964,-1.5468,-1.2255,-0.9898,-0.5371,-0.2694,-0.1327,-0.0704,-0.0391,-0.0235,-0.0235,-0.0235,-0.0392,-0.0784,-0.1097,-0.1333,-0.1254,-0.1176,-0.1098,-0.1725,-0.2352,-0.3056,-0.3524,-0.4224,-0.4768,-0.516,-0.5631,-0.6025,-0.6173,-0.6211,-0.6198,-0.6058,-0.5752,-0.5545,-0.5439,-0.5292,-0.5147,-0.4963,-0.4891,0.0,0.0,0.0,0.0,0.0,-0.2701,-0.2404,-0.2135,-0.1937,0.0,0.0,0.0,0.0,0.0,0.0,0.0,0.0,-0.1458,0.0,-0.1682,-0.1924,-0.2099,-0.2195,-0.2678,-0.3251,-0.3806,-0.3877,-0.4066,-0.4267,-0.4314,-0.4347,-0.448,-0.448,-0.448,-0.448,-0.4704,-0.4867,-0.4949,-0.5379,-0.57,-0.603,-1.6707,-1.9595,-2.2845,-2.6297,-2.9363,-3.2416,-3.5624,-3.8368,-3.9682,-3.8567,-3.6911,-3.5873,-3.595,-3.5307,0.0,-3.4544,-3.4415,-3.4349,-3.4218,-3.4134,-3.4,-3.3797,-3.3379,-3.2976,-3.252,-3.1644,0.0,-2.9516,-2.7825,-2.6149,-2.4432,-2.3906,-2.3488,-2.3109,-2.2168,-2.0927,-1.934,-1.6486,-1.3516,-1.0533,-0.7643,-0.5283,-0.3437,-0.2659,-0.2113,-0.1722,-0.1722,-0.1722,-0.1801,-0.2272,-0.2508,-0.2665,-0.3214,-0.3132,-0.2895,-0.3056,-0.3602,-0.4226,-0.4535,-0.5157,-0.5625,-0.5935,-0.6251,-0.6563,-0.6714,-0.667,-0.6578,-0.641,-0.618,-0.5949,-0.5782,-0.5554,-0.5422,-0.5286,-0.5153,-0.4973,-0.4519,0.0,0.0,0.0,0.0,0.0,0.0,-0.264,-0.2497,0.0,0.0,0.0,0.0,0.0,-0.1658,-0.1754,-0.1961,-0.2145,-0.2213,-0.2575,-0.2766,-0.2767,-0.3271,-0.3783,-0.4193,-0.4239,-0.4425,-0.4746,-0.4793,-0.4927,-0.5152,-0.5152,-0.5152,-0.5154,-0.5412,-0.5595,-0.5689,-0.5896,-0.6231,-0.6566,-2.1461,-2.5738,-3.0168,0.0,-3.5057,0.0,-3.8798,-4.0059,-4.0335,-3.9408,-3.836,-3.7429,-3.6886,-3.6766,-3.6444,-3.5599,0.0,0.0,0.0,-3.4818,-3.4643,-3.4399,-3.4349,-3.3941,-3.3031,-3.2918,-3.2079,-3.0434,-2.8529,-2.6995,-2.5762,-2.5028,-2.4239,-2.3336,-2.2356,-2.0889,-1.8976,-1.7062,-1.4553,-1.1758,-0.9471,-0.7291,-0.5384,-0.4533,-0.3834,-0.321,-0.321,-0.321,-0.3288,-0.3761,-0.3919,-0.4075,-0.4621,-0.4929,-0.5002,-0.438,-0.4771,-0.5395,-0.5622,-0.617,-0.6641,-0.6637,-0.6791,-0.6942,-0.6942,-0.6825,-0.6596,-0.6501,-0.6339,-0.6177,-0.6003,-0.576,-0.5617,-0.5617,-0.5352,-0.5107,-0.4919,-0.4638,-0.4333,0.0,0.0,0.0,-0.3388,-0.3338,-0.3221,0.0,0.0,0.0,0.0,0.0,-0.2137,-0.2268,-0.2331,-0.2415,-0.2614,-0.3241,-0.3532,-0.3639,-0.3869,-0.4215,-0.4367,-0.4367,-0.4774,-0.5483,-0.5483,-0.5822,-0.6274,-0.6274,-0.6279,-0.6293,-0.6384,-0.6491,-0.6605,-0.6824,-0.6928,-0.7023,0.0,0.0,-3.267,-3.6312,-3.8155,-3.9447,-4.0476,-4.0501,-4.0081,-3.9253,-3.8725,-3.8289,-3.7881,-3.7594,-3.7203,-3.6673,-3.6174,-3.5827,-3.5739,-3.5407,-3.5165,-3.5088,-3.4851,-3.456,-3.4154,-3.3356,-3.2255,-3.0707,-2.9339,-2.8233,-2.7506,-2.6189,-2.5106,-2.4153,-2.2693,-2.107,-1.9263,-1.7154,-1.4885,-1.2444,-1.0392,-0.8519,-0.6846,-0.5696,-0.4924,-0.4535,-0.4384,-0.4382,-0.4613,-0.4851,-0.5162,-0.5473,-0.578,-0.6089,-0.6318,-0.5467,-0.5622,-0.6086,-0.6475,-0.6791,-0.7103,-0.7403,-0.7561,-0.7569,-0.7569,-0.7456,-0.7219,-0.7048,-0.6805,-0.6491,-0.6314,-0.6037,-0.5752,-0.5617,-0.555,-0.5408,-0.5111,-0.4887,-0.4683,0.0,-0.4114,-0.3875,-0.3814,-0.3719,-0.3619,0.0,0.0,0.0,-0.3898,-0.3676,-0.3371,-0.2981,-0.3102,-0.3236,-0.3382,-0.3635,-0.3966,-0.4476,-0.4614,-0.493,-0.5638,-0.5638,-0.5748,-0.6049,-0.6049,-0.6161,-0.6274,-0.6274,-0.632,-0.6389,-0.6638,-0.6882,-0.7057,-0.7324,-0.7766,-0.7991,-2.7191,-3.0954,-3.4556,-3.7718,-3.9608,-4.0779,-4.1055,-4.0703,-4.0139,-3.942,-3.8968,-3.8564,-3.8259,-3.8003,-3.7703,-3.7317,-3.6731,-3.6335,-3.6148,-3.58,-3.5532,-3.5367,-3.5182,-3.4899,-3.4497,-3.3909,-3.2816,-3.1259,-2.9959,-2.8981,-2.8305,-2.6962,-2.5687,-2.4426,-2.2824,-2.1081,-1.9104,-1.7083,-1.4988,-1.291,-1.1081,-0.9367,-0.7927,-0.7007,-0.624,-0.5705,-0.5705,-0.5705,-0.5783,-0.6093,-0.6328,-0.656,-0.6707,-0.7092,-0.7326,-0.6861,-0.6857,-0.7011,-0.7246,-0.7484,-0.7642,-0.7868,-0.7949,-0.7953,-0.7953,-0.7799,-0.7592,-0.741,-0.7078,-0.6762,-0.6587,-0.6269,-0.6017,-0.5881,-0.5749,-0.555,-0.5352,-0.5153,-0.4977,-0.4844,-0.464,-0.4505,-0.4505,-0.4417,-0.4319,-0.4248,-0.427,0.0,-0.4375,-0.4325,-0.4163,-0.3724,-0.3853,-0.4006,-0.4178,-0.4448,-0.4799,-0.5133,-0.5133,-0.5442,-0.5955,-0.5955,-0.618,-0.6495,-0.6604,-0.6829,-0.6943,-0.7051,-0.7118,-0.7342,-0.7506,-0.776,-0.7937,-0.8116,-0.8421,-0.8604,-2.9456,-3.2876,-3.6044,-3.8744,-4.0183,-4.0978,-4.1076,-4.0754,-4.0286,-3.9727,-3.9138,-3.8627,-3.8325,-3.8225,-3.8038,-3.7631,-3.7143,-3.6708,-3.6426,-3.6122,-3.5773,-3.5424,-3.5321,-3.5041,-3.4497,-3.4234,-3.3323,-3.1818,-3.0433,-2.9396,-2.8598,-2.7426,-2.6022,-2.4538,-2.2991,-2.1173,-1.9132,-1.7149,-1.5248,-1.3521,-1.1821,-1.0296,-0.8899,-0.8286,-0.7504,-0.6872,-0.7019,-0.6942,-0.6868,-0.7257,-0.7411,-0.7488,-0.7633,-0.7944,-0.8255,-0.8255,-0.8174,-0.8012,-0.8012,-0.8093,-0.8255,-0.8255,-0.8178,-0.8178,-0.8178,-0.7953,-0.7829,-0.7592,-0.7338,-0.7011,-0.6835,-0.6511,-0.6242,-0.6218,-0.5881,-0.5683,-0.5683,0.0,-0.516,-0.5186,-0.5157,-0.5171,-0.519,-0.5114,-0.4983,-0.4854,-0.4742,-0.4704,-0.4663,-0.4776,-0.4797,-0.4634,-0.464,-0.47,-0.491,-0.5307,-0.5553,-0.5636,-0.5751,-0.5865,-0.6167,-0.629,-0.6516,-0.6937,-0.7157,-0.749,-0.7718,-0.7958,-0.8158,-0.8295,-0.8424,-0.8673,-0.8812,-0.8933,-0.8976,-0.8976,-3.2114,-3.4875,-3.7343,-3.9402,-4.0491,-4.1074,-4.1111,-4.0754,-4.0339,-3.9911,-3.9395,-3.8921,-3.8658,-3.8391,-3.8038,-3.7631,-3.7503,-3.7279,-3.693,-3.6402,-3.5932,-3.5577,-3.5274,-3.4947,-3.4497,-3.3543,-3.2703,-3.1942,-3.0687,-2.9623,-2.885,-2.7396,-2.6065,-2.4887,-2.3424,-2.189,-2.0242,-1.83,-1.6604,-1.4965,-1.3267,-1.1721,-1.029,-0.9501,-0.8617,-0.7872,-0.7936,-0.7863,-0.7872,-0.8097,-0.8327,-0.8475,-0.8699,-0.877,-0.8932,-0.9094,-0.9094,-0.9013,-0.8851,-0.8861,-0.887,-0.887,-0.8637,-0.8327,-0.8327,-0.8178,-0.8021,-0.7986,-0.7676,-0.7415,-0.7225,-0.6896,-0.6519,-0.6234,-0.6145,-0.6017,-0.5888,0.0,-0.5533,-0.5665,-0.5428,-0.5281,-0.5405,-0.5399,-0.5451,-0.5567,-0.5617,-0.5746,-0.58,-0.5933,-0.6017,-0.5952,-0.5284,-0.5003,-0.5204,-0.5508,-0.5722,-0.5942,-0.634,-0.6665,-0.7012,-0.7437,-0.7677,-0.7823,-0.7823,-0.7934,-0.7943,-0.8173,-0.8295,-0.8424,-0.8915,-0.9178,-0.9185,-0.9569,-0.97,-0.97,-3.3953,-3.6353,-3.8382,-3.9944,-4.0721,-4.1101,-4.11,-4.0754,-4.0375,-3.9935,-3.9588,-3.9221,-3.875,-3.8583,-3.8307,-3.7969,-3.7739,-3.7429,-3.7027,-3.6509,-3.6002,-3.5503,-3.5071,-3.4546,-3.3949,-3.3177,-3.2547,-3.1996,-3.0893,-2.997,-2.9261,-2.7827,-2.6453,-2.5144,-2.3715,-2.2095,-2.0379,-1.8561,-1.6934,-1.5419,-1.3881,-1.2548,-1.1327,-1.0529,-0.9759,-0.8956,-0.8946,-0.8798,-0.8627,-0.8937,-0.9089,-0.9236,-0.9382,-0.9533,-0.9685,-0.9771,-0.9549,-0.9246,-0.9165,-0.9165,-0.9175,-0.9175,-0.8946,-0.8713,-0.8713,-0.8484,-0.8255,-0.8255,-0.7944,-0.763,-0.7616,-0.7289,-0.6924,-0.6709,-0.6477,0.0,-0.621,-0.6022,-0.5945,-0.6106,-0.5983,-0.5847,-0.5915,-0.5907,-0.5911,-0.5978,-0.6031,-0.6083,-0.6223,-0.6294,-0.6393,-0.6539,-0.6166,-0.604,-0.6269,-0.635,-0.6537,-0.6642,-0.6972,-0.7205,-0.744,-0.7782,-0.7916,-0.8045,-0.8156,-0.8266,-0.8276,-0.8642,-0.8899,-0.9275,-0.9544,-0.981,-1.0183,-1.0304,-1.0361,-1.0559,-3.5419,-3.756,-3.9279,-4.037,-4.0879,-4.1113,-4.1095,-4.0754,-4.0375,-3.9935,-3.9727,-3.938,-3.8851,-3.8738,-3.8583,-3.8225,-3.7739,-3.7279,-3.6851,-3.6301,-3.5739,-3.5211,-3.4691,-3.4084,-3.3382,-3.2873,-3.2342,-3.1754,-3.0837,-3.004,-2.9373,-2.813,-2.6783,-2.5462,-2.405,-2.2397,-2.0628,-1.8928,-1.7345,-1.5888,-1.4576,-1.334,-1.2234,-1.1589,-1.0798,-1.0111,-0.9985,-0.9689,-0.9448,-0.9711,-0.9846,-0.9846,-0.9992,-1.0143,-1.0293,-1.0293,-0.9922,-0.9544,-0.9549,-0.9473,-0.9397,-0.9397,-0.9251,-0.9099,-0.9099,-0.8865,-0.8632,-0.8556,-0.828,-0.8004,-0.789,-0.7637,-0.735,-0.7173,0.0,-0.6587,-0.6587,-0.6476,-0.6401,-0.6486,-0.6504,-0.6464,-0.65,-0.6452,-0.6465,-0.6417,-0.644,-0.6395,-0.6452,-0.6461,-0.6587,-0.6863,-0.691,-0.6936,-0.713,-0.7168,-0.7253,-0.7287,-0.7527,-0.7669,-0.7806,-0.8047,-0.8166,-0.8266,-0.8488,-0.8618,-0.8657,-0.9144,-0.9641,-0.9916,-1.0191,-1.0445,-1.0789,-1.0789,-1.0897,-1.1042,-3.6392,-3.8305,-3.9804,-4.0626,-4.1011,-4.1168,-4.1109,-4.0754,-4.0375,-3.9935,-3.9727,-3.9458,-3.9101,-3.8851,-3.8583,-3.8225,-3.7466,-3.6851,-3.6385,-3.5515,-3.4883,-3.4594,-3.405,-3.3471,-3.2841,-3.2342,-3.1754,-3.1087,-3.0418,-2.9685,-2.8853,-2.7934,-2.6921,-2.58,-2.4434,-2.3029,-2.1587,-2.012,-1.847,-1.679,-1.5734,-1.4489,-1.3261,-1.2535,-1.1875,-1.1209,-1.0914,-1.0656,-1.0517,-1.0441,-1.0438,-1.0443,-1.0443,-1.0443,-1.0519,-1.0519,-1.0443,-1.0368,-1.0143,-0.9997,-0.9846,-0.962,-0.9397,-0.9246,-0.9246,-0.9246,-0.917,-0.9022,-0.8775,-0.8548,-0.8148,-0.7932,-0.7706,-0.7606,0.0,0.0,-0.7208,-0.6936,-0.6717,-0.6881,-0.6897,-0.6906,-0.7062,-0.7245,-0.7246,-0.7222,-0.7243,-0.7142,-0.7027,-0.7037,-0.7175,-0.748,-0.7241,-0.7121,-0.713,-0.7168,-0.7302,-0.7533,-0.7878,-0.8127,-0.8272,-0.8633,-0.8816,-0.8826,-0.8826,-0.9011,-0.9147,-0.9645,-0.992,-1.008,-1.059,-1.0778,-1.0789,-1.0789,-1.0897,-1.1042,-3.7356,-3.8857,-4.0001,-4.075,-4.1057,-4.1144,-4.0991,-4.0706,-4.0427,-4.0196,-3.9838,-3.9458,-3.9129,-3.8851,-3.8469,-3.7881,-3.7317,-3.655,-3.5515,-3.4771,-3.4234,-3.3882,-3.3591,-3.3171,-3.2547,-3.2191,-3.1682,-3.1029,-3.0237,-2.9498,-2.861,-2.7617,-2.6688,-2.5664,-2.4299,-2.3043,-2.1907,-2.0294,-1.8798,-1.7521,-1.6312,-1.517,-1.4144,-1.3484,-1.2812,-1.2149,-1.1897,-1.1567,-1.1266,-1.1312,-1.125,-1.1111,-1.1186,-1.126,-1.1186,-1.1111,-1.0962,-1.0812,-1.0663,-1.0438,-1.0218,-0.9992,-0.9846,-0.962,-0.9549,-0.9397,-0.9246,-0.917,-0.9094,-0.8988,-0.8835,-0.856,-0.8299,-0.8152,0.0,-0.7628,-0.7603,-0.7406,-0.7302,-0.759,-0.7371,-0.724,-0.7496,-0.7499,-0.7535,-0.7513,-0.7617,-0.7614,-0.7584,-0.7771,-0.798,-0.8207,-0.7973,-0.7851,-0.7655,-0.771,-0.7815,-0.7962,-0.8206,-0.8458,-0.8501,-0.8759,-0.894,-0.8944,-0.9252,-0.9325,-0.9507,-1.0117,-1.0498,-1.081,-1.0966,-1.1277,-1.1417,-1.152,-1.1669,-1.1838,-3.8168,-3.9331,-4.0213,-4.084,-4.1088,-4.1111,-4.0924,-4.0668,-4.0444,-4.031,-3.9883,-3.9458,-3.9129,-3.8762,-3.8171,-3.7261,-3.6776,-3.6114,-3.5088,-3.4399,-3.3832,-3.3471,-3.3277,-3.2888,-3.2302,-3.1966,-3.1452,-3.0792,-3.0068,-2.931,-2.8417,-2.743,-2.6496,-2.5535,-2.4177,-2.3065,-2.1983,-2.0372,-1.9036,-1.7917,-1.664,-1.5658,-1.4817,-1.4146,-1.3613,-1.3105,-1.2769,-1.2407,-1.2072,-1.2064,-1.1985,-1.1828,-1.1904,-1.1916,-1.1846,-1.1696,-1.1484,-1.126,-1.1111,-1.0962,-1.0663,-1.0368,-1.0218,-1.0067,-0.9922,-0.9695,-0.9544,-0.9473,-0.9473,-0.9397,-0.9322,-0.9045,-0.8867,-0.8723,-0.8377,-0.8107,-0.8096,-0.7873,-0.7859,-0.8194,-0.8006,-0.7963,-0.801,-0.8009,-0.7935,-0.7763,-0.7872,-0.7967,-0.793,-0.824,-0.8471,-0.8586,-0.855,-0.8457,-0.831,-0.8213,-0.8187,-0.834,-0.8482,-0.8632,-0.8784,-0.9003,-0.9047,-0.9058,-0.9535,-0.9741,-0.9927,-1.0556,-1.094,-1.1236,-1.1354,-1.1679,-1.187,-1.1987,-1.2182,-1.2406,-3.8836,-3.9758,-4.046,-4.1015,-4.109,-4.1042,-4.0915,-4.0668,-4.0444,-4.031,-3.9883,-3.9458,-3.9129,-3.8559,-3.7667,-3.6409,-3.5871,-3.5487,-3.5291,-3.4333,-3.3642,-3.3293,-3.298,-3.2547,-3.1996,-3.1524,-3.0984,-3.0312,-2.9851,-2.9149,-2.8287,-2.743,-2.6496,-2.5535,-2.4177,-2.3054,-2.1983,-2.0518,-1.9186,-1.7917,-1.6878,-1.5982,-1.5311,-1.4643,-1.4237,-1.4048,-1.35,-1.3149,-1.294,-1.2667,-1.2571,-1.2571,-1.2571,-1.238,-1.2241,-1.2235,-1.1948,-1.1706,-1.1706,-1.1564,-1.1267,-1.0663,-1.0513,-1.0513,-1.0513,-1.0368,-1.0143,-0.9916,-0.9771,-0.9549,-0.9322,-0.9322,-0.9322,-0.9322,-0.8937,-0.8703,-0.8703,-0.8572,-0.8383,-0.8387,-0.8726,-0.8878,-0.8624,-0.8797,-0.8732,-0.8288,-0.8201,-0.8193,-0.8098,-0.8415,-0.8594,-0.8594,-0.8743,-0.8907,-0.9078,-0.8575,-0.8343,-0.8486,-0.8638,-0.8791,-0.894,-0.9268,-0.9379,-0.9386,-0.9876,-1.0148,-1.0316,-1.084,-1.1129,-1.1394,-1.1651,-1.1882,-1.2028,-1.2032,-1.2259,-1.2564,-3.9027,-4.0081,-4.0757,-4.1042,-4.1094,-4.1042,-4.0915,-4.0668,-4.0392,-4.0058,-3.9395,-3.8743,-3.8117,-3.7898,-3.7374,-3.6385,-3.5871,-3.5304,-3.4497,-3.4,-3.3555,-3.315,-3.2834,-3.2382,-3.1796,-3.1336,-3.0851,-3.0312,-2.9699,-2.8931,-2.8105,-2.7364,-2.6414,-2.5312,-2.4238,-2.3224,-2.2241,-2.0924,-1.9678,-1.8585,-1.7546,-1.6656,-1.5831,-1.5318,-1.4901,-1.4475,-1.4302,-1.4131,-1.3865,-1.3858,-1.3687,-1.3516,-1.3265,-1.3048,-1.2863,-1.2524,-1.2247,-1.2024,-1.2024,-1.2024,-1.1822,-1.1085,-1.0812,-1.0663,-1.0513,-1.0443,-1.0368,-1.0293,-1.0293,-1.0218,-1.0143,-0.9922,-0.9695,-0.9695,-0.9525,-0.9393,-0.9393,-0.9264,-0.9127,-0.9193,-0.9061,-0.9016,-0.907,-0.9139,-0.9087,-0.8995,-0.8937,-0.8906,-0.9003,-0.9135,-0.9224,-0.9347,-0.9205,-0.9214,-0.938,-0.9078,-0.9013,-0.9279,-0.933,-0.9439,-0.9485,-0.9596,-0.9706,-0.9721,-1.0334,-1.0601,-1.067,-1.1328,-1.1603,-1.1663,-1.1906,-1.1983,-1.206,-1.2312,-1.2471,-1.2584,-3.9599,-4.0481,-4.0936,-4.108,-4.1069,-4.0957,-4.0765,-4.0466,-4.012,-3.9717,-3.9101,-3.8451,-3.7739,-3.7503,-3.7069,-3.6385,-3.58,-3.5118,-3.43,-3.3899,-3.3487,-3.3011,-3.2617,-3.216,-3.161,-3.1146,-3.0673,-3.0129,-2.9512,-2.8739,-2.7908,-2.7242,-2.6289,-2.5241,-2.4322,-2.3372,-2.2402,-2.1078,-2.0001,-1.8993,-1.7951,-1.7066,-1.6327,-1.5899,-1.5477,-1.4985,-1.4985,-1.4781,-1.4461,-1.4461,-1.4342,-1.4188,-1.4019,-1.3856,-1.3566,-1.3317,-1.3026,-1.2862,-1.2862,-1.2706,-1.2499,-1.2005,-1.1738,-1.1514,-1.136,-1.1284,-1.1207,-1.113,-1.1053,-1.0975,-1.0821,-1.0589,-1.0434,-1.0434,-1.0247,-1.0105,-1.0105,-0.9892,-0.9751,-0.9882,-0.9625,-0.9551,-0.9593,-0.9519,-0.9376,-0.9451,-0.9457,-0.9464,-0.9652,-0.9652,-0.971,-0.9723,-0.9594,-0.9613,-0.9788,-0.9657,-0.9583,-0.9567,-0.9634,-0.9716,-0.9816,-0.9926,-1.0075,-1.0155,-1.0646,-1.1033,-1.1125,-1.1654,-1.1776,-1.1792,-1.1963,-1.2073,-1.2174,-1.2458,-1.2609,-1.2686,-4.0391,-4.0848,-4.1026,-4.1073,-4.0984,-4.0791,-4.0519,-4.0139,-3.9735,-3.9324,-3.8921,-3.8451,-3.7862,-3.7337,-3.6794,-3.6343,-3.5667,-3.4994,-3.4497,-3.3949,-3.3419,-3.2803,-3.2398,-3.1966,-3.1495,-3.1043,-3.0447,-2.9808,-2.9338,-2.8638,-2.7776,-2.7053,-2.6233,-2.5312,-2.4322,-2.3446,-2.2628,-2.1165,-2.0079,-1.9222,-1.8175,-1.7375,-1.673,-1.6484,-1.6064,-1.5477,-1.5477,-1.5151,-1.4824,-1.4824,-1.4824,-1.4824,-1.4817,-1.4627,-1.4395,-1.4374,-1.4163,-1.3952,-1.3952,-1.3622,-1.3306,-1.3333,-1.3028,-1.2708,-1.2664,-1.2492,-1.2252,-1.2092,-1.1932,-1.1692,-1.1445,-1.1364,-1.1364,-1.1364,-1.1059,-1.0757,-1.0757,-1.0538,-1.0427,-1.0427,-1.0348,-1.0294,-1.0038,-0.9795,-0.9707,-0.9705,-0.9833,-0.9934,-1.0105,-1.0108,-1.0019,-1.0019,-0.9996,-0.9973,-1.016,-1.0343,-1.0119,-0.9696,-0.9851,-0.9926,-0.9926,-1.0147,-1.0465,-1.0525,-1.1032,-1.1325,-1.1516,-1.1699,-1.1776,-1.1797,-1.1979,-1.2158,-1.2328,-1.2519,-1.2694,-1.2836,-4.0235,-4.0766,-4.1066,-4.1026,-4.091,-4.0713,-4.0383,-4.0002,-3.9599,-3.921,-3.8785,-3.8336,-3.7828,-3.7411,-3.6935,-3.6343,-3.5424,-3.4594,-3.405,-3.3658,-3.3171,-3.2641,-3.2247,-3.1811,-3.1336,-3.0866,-3.0387,-2.9808,-2.9184,-2.8546,-2.7908,-2.7121,-2.6302,-2.5465,-2.4539,-2.3593,-2.2628,-2.1721,-2.0722,-1.9696,-1.8816,-1.8095,-1.7456,-1.6812,-1.6484,-1.6147,-1.5997,-1.5914,-1.5839,-1.5839,-1.5839,-1.5748,-1.5575,-1.544,-1.5248,-1.4681,-1.4479,-1.4429,-1.4268,-1.41,-1.4075,-1.431,-1.4289,-1.3926,-1.2827,-1.2571,-1.2492,-1.2492,-1.2412,-1.2412,-1.2326,-1.2086,-1.1852,-1.1852,-1.1613,-1.1492,-1.1492,-1.1275,-1.108,-1.108,-1.0783,-1.0641,-1.0554,-1.0455,-1.0394,-1.0353,-1.0334,-1.0373,-1.0414,-1.0307,-1.0216,-1.0019,-1.0104,-1.019,-1.016,-1.0343,-1.0393,-1.0413,-1.0453,-1.0472,-1.0472,-1.0582,-1.0683,-1.0868,-1.1151,-1.1325,-1.1516,-1.1699,-1.1776,-1.1809,-1.2125,-1.2272,-1.2345,-1.2661,-1.2804,-1.2836,-4.038,-4.0789,-4.1033,-4.1007,-4.0882,-4.07,-4.0396,-4.0024,-3.9632,-3.9219,-3.8766,-3.8267,-3.7739,-3.7281,-3.6678,-3.5871,-3.5055,-3.4399,-3.3949,-3.345,-3.3027,-3.2547,-3.2191,-3.1769,-3.1249,-3.0821,-3.0326,-2.9699,-2.9121,-2.8481,-2.7908,-2.7175,-2.644,-2.5688,-2.4754,-2.3813,-2.2927,-2.1959,-2.0954,-2.001,-1.9301,-1.8505,-1.7781,-1.7465,-1.7057,-1.6722,-1.6492,-1.6252,-1.6087,-1.6087,-1.6087,-1.6087,-1.5914,-1.5906,-1.5794,-1.5457,-1.5331,-1.5331,-1.516,-1.4996,-1.486,-1.5025,-1.4901,-1.449,-1.3763,-1.3614,-1.3532,-1.3382,-1.33,-1.3218,-1.3048,-1.2801,-1.2636,-1.2636,-1.2498,-1.2337,-1.2163,-1.1935,-1.1763,-1.1682,-1.1246,-1.0901,-1.0727,-1.0765,-1.085,-1.095,-1.0899,-1.0938,-1.1033,-1.0747,-1.0555,-1.0553,-1.0438,-1.0422,-1.0501,-1.0576,-1.0603,-1.0692,-1.0692,-1.0692,-1.0692,-1.0692,-1.0838,-1.1094,-1.1183,-1.1378,-1.1638,-1.1736,-1.1776,-1.1813,-1.217,-1.2308,-1.2349,-1.2706,-1.2836,-1.2836,-4.0655,-4.0889,-4.0992,-4.0974,-4.0866,-4.0681,-4.0412,-4.0082,-3.9683,-3.9208,-3.8718,-3.8183,-3.7542,-3.6978,-3.619,-3.5153,-3.4673,-3.43,-3.3899,-3.3398,-3.2866,-3.2398,-3.215,-3.1712,-3.1132,-3.0762,-3.0266,-2.9602,-2.9071,-2.8481,-2.7855,-2.7242,-2.6633,-2.5898,-2.4957,-2.4082,-2.3298,-2.2111,-2.1185,-2.0323,-1.9696,-1.8904,-1.8193,-1.804,-1.7708,-1.7221,-1.6894,-1.6574,-1.6335,-1.6335,-1.6335,-1.6335,-1.6335,-1.6335,-1.6335,-1.6252,-1.6252,-1.617,-1.617,-1.5824,-1.5484,-1.5484,-1.5235,-1.4901,-1.4901,-1.4824,-1.4573,-1.425,-1.4166,-1.4082,-1.373,-1.3561,-1.3483,-1.3483,-1.3307,-1.3052,-1.2875,-1.2619,-1.2369,-1.2123,-1.1682,-1.1262,-1.0958,-1.1086,-1.1222,-1.1441,-1.1392,-1.15,-1.1575,-1.1198,-1.1001,-1.1107,-1.0892,-1.0775,-1.0864,-1.0824,-1.0802,-1.0692,-1.0692,-1.0692,-1.0692,-1.0724,-1.0915,-1.1224,-1.1256,-1.1464,-1.1776,-1.1776,-1.1776,-1.1813,-1.217,-1.2308,-1.2349,-1.2706,-1.2836,-1.2836,-4.0799,-4.0937,-4.0974,-4.093,-4.0743,-4.0538,-4.0262,-3.9901,-3.9464,-3.898,-3.8468,-3.7966,-3.745,-3.6539,-3.5423,-3.413,-3.4201,-3.4151,-3.3745,-3.3346,-3.2866,-3.2398,-3.215,-3.1712,-3.1132,-3.0762,-3.0266,-2.9602,-2.9071,-2.856,-2.8013,-2.7323,-2.6701,-2.6094,-2.5146,-2.4299,-2.3519,-2.2628,-2.1807,-2.0974,-2.0177,-1.9539,-1.9063,-1.8273,-1.7951,-1.7797,-1.7473,-1.7229,-1.7229,-1.7229,-1.7229,-1.7229,-1.7229,-1.7229,-1.7229,-1.7057,-1.6812,-1.6566,-1.6402,-1.6154,-1.6004,-1.6004,-1.5922,-1.5922,-1.5922,-1.5242,-1.465,-1.465,-1.4657,-1.4573,-1.4566,-1.4243,-1.4004,-1.4004,-1.3652,-1.3313,-1.3307,-1.296,-1.2619,-1.2619,-1.2203,-1.1863,-1.1805,-1.1855,-1.1913,-1.1874,-1.1905,-1.1848,-1.1585,-1.1492,-1.1392,-1.1107,-1.12,-1.119,-1.0864,-1.1042,-1.0907,-1.0692,-1.0692,-1.0692,-1.07,-1.0858,-1.1037,-1.1232,-1.139,-1.1581,-1.1776,-1.1776,-1.1776,-1.1813,-1.217,-1.2308,-1.2349,-1.2706,-1.2836,-1.2836,-4.0902,-4.0972,-4.0968,-4.0857,-4.0692,-4.0423,-4.0082,-3.9724,-3.9305,-3.8789,-3.7931,-3.7145,-3.668,-3.5307,-3.429,-3.3822,-3.3663,-3.3614,-3.3678,-3.3256,-3.2827,-3.2398,-3.215,-3.1712,-3.1132,-3.0762,-3.0326,-2.9699,-2.9198,-2.8638,-2.8079,-2.7523,-2.6905,-2.6289,-2.5288,-2.4443,-2.3677,-2.2777,-2.1959,-2.1128,-2.0576,-1.9854,-1.9222,-1.8904,-1.8594,-1.8371,-1.804,-1.7878,-1.7716,-1.7716,-1.7716,-1.7716,-1.7716,-1.7635,-1.7538,-1.7456,-1.7302,-1.7066,-1.6976,-1.6812,-1.6656,-1.6492,-1.6327,-1.6245,-1.617,-1.5748,-1.5409,-1.5151,-1.5061,-1.4985,-1.4734,-1.4573,-1.4412,-1.4412,-1.4237,-1.4068,-1.3822,-1.3568,-1.3307,-1.279,-1.2677,-1.247,-1.222,-1.2398,-1.2483,-1.2409,-1.2341,-1.2175,-1.2078,-1.1905,-1.1773,-1.168,-1.1576,-1.1571,-1.1553,-1.1197,-1.1017,-1.0907,-1.0802,-1.0692,-1.07,-1.0883,-1.1062,-1.1232,-1.1419,-1.1606,-1.1776,-1.1776,-1.1776,-1.1813,-1.217,-1.2426,-1.2621,-1.2779,-1.2836,-1.2836]}]]